<?xml version="1.0" encoding="UTF-8" standalone="no" ?>
<gpx xmlns="http://www.topografix.com/GPX/1/1" xmlns:xsi="http://www.w3.org/2001/XMLSchema-instance" xsi:schemaLocation="http://www.topografix.com/GPX/1/1 http://www.topografix.com/GPX/1/1/gpx.xsd" version="1.1" creator="VisuGPX - https://www.visugpx.com">
  <metadata>
    <name>vichel scoularoux issoire 16 11 12</name>
    <desc><![CDATA[circuit 50km]]></desc>
  </metadata>
  <trk>
    <name><![CDATA[2012-11-16 09:12]]></name>
    <desc><![CDATA[<h1>OruxMaps</h1><br /><hr align="center" width="480" style="height: 2px; width: 517px"/><h2>Nom: 2012-11-16 09:12</h2><br /><p>Temps de départ: 11/16/2012 09:12</p><p>Temps d'arrivée: 11/16/2012 12:15</p><p>Distance: 47,8 km (02:54)</p><p>Temps déplacement: 02:32</p><p>Vitesse moyenne: 16,5 km/h</p><p>Vitesse moyenne: 18,8 km/h</p><p>Vitess Max.: 47,7 km/h</p><p>Altitude minimale: 371 m</p><p>Altitude maximale: 593 m</p><p>Vitesse d'élévation: 554,2 m/h</p><p>Vitesse de descente: -802 m/h</p><p>Gain Altitude: 727 m</p><p>Perte Altitude: -680 m</p><p>Temps d'élévation: 01:18</p><p>Temps de descente: 00:50</p><hr align="center" width="480" style="height: 2px; width: 517px"/>]]></desc>
    <trkseg>
      <trkpt lat="45.50685" lon="3.22255">
        <ele>548</ele>
        <time>2012-11-16T08:21:05Z</time>
      </trkpt>
      <trkpt lat="45.50671" lon="3.22272">
        <ele>548</ele>
        <time>2012-11-16T08:26:27Z</time>
      </trkpt>
      <trkpt lat="45.50658" lon="3.2229">
        <ele>543</ele>
        <time>2012-11-16T08:26:36Z</time>
      </trkpt>
      <trkpt lat="45.50654" lon="3.22318">
        <ele>543</ele>
        <time>2012-11-16T08:26:43Z</time>
      </trkpt>
      <trkpt lat="45.50646" lon="3.22341">
        <ele>542</ele>
        <time>2012-11-16T08:26:48Z</time>
      </trkpt>
      <trkpt lat="45.50627" lon="3.22352">
        <ele>540</ele>
        <time>2012-11-16T08:26:55Z</time>
      </trkpt>
      <trkpt lat="45.50609" lon="3.22346">
        <ele>539</ele>
        <time>2012-11-16T08:27:04Z</time>
      </trkpt>
      <trkpt lat="45.50603" lon="3.22371">
        <ele>539</ele>
        <time>2012-11-16T08:27:10Z</time>
      </trkpt>
      <trkpt lat="45.50602" lon="3.224">
        <ele>538</ele>
        <time>2012-11-16T08:27:15Z</time>
      </trkpt>
      <trkpt lat="45.50603" lon="3.2243">
        <ele>537</ele>
        <time>2012-11-16T08:27:20Z</time>
      </trkpt>
      <trkpt lat="45.50605" lon="3.2246">
        <ele>537</ele>
        <time>2012-11-16T08:27:25Z</time>
      </trkpt>
      <trkpt lat="45.50607" lon="3.22489">
        <ele>536</ele>
        <time>2012-11-16T08:27:30Z</time>
      </trkpt>
      <trkpt lat="45.50609" lon="3.22517">
        <ele>537</ele>
        <time>2012-11-16T08:27:35Z</time>
      </trkpt>
      <trkpt lat="45.5061" lon="3.22547">
        <ele>537</ele>
        <time>2012-11-16T08:27:40Z</time>
      </trkpt>
      <trkpt lat="45.50607" lon="3.22574">
        <ele>537</ele>
        <time>2012-11-16T08:27:44Z</time>
      </trkpt>
      <trkpt lat="45.50608" lon="3.22605">
        <ele>537</ele>
        <time>2012-11-16T08:27:49Z</time>
      </trkpt>
      <trkpt lat="45.50606" lon="3.22634">
        <ele>538</ele>
        <time>2012-11-16T08:27:54Z</time>
      </trkpt>
      <trkpt lat="45.50603" lon="3.22661">
        <ele>537</ele>
        <time>2012-11-16T08:27:59Z</time>
      </trkpt>
      <trkpt lat="45.50602" lon="3.2269">
        <ele>539</ele>
        <time>2012-11-16T08:28:05Z</time>
      </trkpt>
      <trkpt lat="45.50598" lon="3.22716">
        <ele>541</ele>
        <time>2012-11-16T08:28:10Z</time>
      </trkpt>
      <trkpt lat="45.50594" lon="3.22744">
        <ele>541</ele>
        <time>2012-11-16T08:28:16Z</time>
      </trkpt>
      <trkpt lat="45.50588" lon="3.22772">
        <ele>545</ele>
        <time>2012-11-16T08:28:23Z</time>
      </trkpt>
      <trkpt lat="45.50578" lon="3.22794">
        <ele>545</ele>
        <time>2012-11-16T08:28:31Z</time>
      </trkpt>
      <trkpt lat="45.50567" lon="3.22817">
        <ele>547</ele>
        <time>2012-11-16T08:28:40Z</time>
      </trkpt>
      <trkpt lat="45.50548" lon="3.22822">
        <ele>547</ele>
        <time>2012-11-16T08:28:50Z</time>
      </trkpt>
      <trkpt lat="45.50531" lon="3.22804">
        <ele>546</ele>
        <time>2012-11-16T08:28:55Z</time>
      </trkpt>
      <trkpt lat="45.5051" lon="3.22789">
        <ele>545</ele>
        <time>2012-11-16T08:28:59Z</time>
      </trkpt>
      <trkpt lat="45.50496" lon="3.2277">
        <ele>544</ele>
        <time>2012-11-16T08:29:04Z</time>
      </trkpt>
      <trkpt lat="45.5048" lon="3.22741">
        <ele>538</ele>
        <time>2012-11-16T08:29:09Z</time>
      </trkpt>
      <trkpt lat="45.50464" lon="3.22718">
        <ele>537</ele>
        <time>2012-11-16T08:29:12Z</time>
      </trkpt>
      <trkpt lat="45.5045" lon="3.22702">
        <ele>537</ele>
        <time>2012-11-16T08:29:15Z</time>
      </trkpt>
      <trkpt lat="45.5043" lon="3.2268">
        <ele>535</ele>
        <time>2012-11-16T08:29:18Z</time>
      </trkpt>
      <trkpt lat="45.50415" lon="3.22651">
        <ele>531</ele>
        <time>2012-11-16T08:29:22Z</time>
      </trkpt>
      <trkpt lat="45.50402" lon="3.22629">
        <ele>529</ele>
        <time>2012-11-16T08:29:25Z</time>
      </trkpt>
      <trkpt lat="45.50392" lon="3.22603">
        <ele>528</ele>
        <time>2012-11-16T08:29:28Z</time>
      </trkpt>
      <trkpt lat="45.50378" lon="3.2258">
        <ele>523</ele>
        <time>2012-11-16T08:29:31Z</time>
      </trkpt>
      <trkpt lat="45.50365" lon="3.22554">
        <ele>523</ele>
        <time>2012-11-16T08:29:35Z</time>
      </trkpt>
      <trkpt lat="45.5035" lon="3.22534">
        <ele>522</ele>
        <time>2012-11-16T08:29:40Z</time>
      </trkpt>
      <trkpt lat="45.50334" lon="3.22514">
        <ele>521</ele>
        <time>2012-11-16T08:29:44Z</time>
      </trkpt>
      <trkpt lat="45.50317" lon="3.22503">
        <ele>522</ele>
        <time>2012-11-16T08:29:48Z</time>
      </trkpt>
      <trkpt lat="45.50298" lon="3.22489">
        <ele>517</ele>
        <time>2012-11-16T08:29:53Z</time>
      </trkpt>
      <trkpt lat="45.50275" lon="3.22477">
        <ele>517</ele>
        <time>2012-11-16T08:29:56Z</time>
      </trkpt>
      <trkpt lat="45.50255" lon="3.22464">
        <ele>516</ele>
        <time>2012-11-16T08:29:59Z</time>
      </trkpt>
      <trkpt lat="45.5024" lon="3.22451">
        <ele>513</ele>
        <time>2012-11-16T08:30:01Z</time>
      </trkpt>
      <trkpt lat="45.50222" lon="3.22431">
        <ele>512</ele>
        <time>2012-11-16T08:30:06Z</time>
      </trkpt>
      <trkpt lat="45.5021" lon="3.22405">
        <ele>507</ele>
        <time>2012-11-16T08:30:09Z</time>
      </trkpt>
      <trkpt lat="45.50201" lon="3.22378">
        <ele>507</ele>
        <time>2012-11-16T08:30:12Z</time>
      </trkpt>
      <trkpt lat="45.50196" lon="3.22352">
        <ele>505</ele>
        <time>2012-11-16T08:30:17Z</time>
      </trkpt>
      <trkpt lat="45.50178" lon="3.22336">
        <ele>504</ele>
        <time>2012-11-16T08:30:22Z</time>
      </trkpt>
      <trkpt lat="45.5016" lon="3.22325">
        <ele>500</ele>
        <time>2012-11-16T08:30:25Z</time>
      </trkpt>
      <trkpt lat="45.50141" lon="3.22315">
        <ele>499</ele>
        <time>2012-11-16T08:30:28Z</time>
      </trkpt>
      <trkpt lat="45.50119" lon="3.22301">
        <ele>498</ele>
        <time>2012-11-16T08:30:31Z</time>
      </trkpt>
      <trkpt lat="45.50102" lon="3.22273">
        <ele>496</ele>
        <time>2012-11-16T08:30:34Z</time>
      </trkpt>
      <trkpt lat="45.50096" lon="3.22246">
        <ele>492</ele>
        <time>2012-11-16T08:30:35Z</time>
      </trkpt>
      <trkpt lat="45.50087" lon="3.22219">
        <ele>492</ele>
        <time>2012-11-16T08:30:38Z</time>
      </trkpt>
      <trkpt lat="45.50075" lon="3.22188">
        <ele>487</ele>
        <time>2012-11-16T08:30:41Z</time>
      </trkpt>
      <trkpt lat="45.50058" lon="3.22173">
        <ele>487</ele>
        <time>2012-11-16T08:30:46Z</time>
      </trkpt>
      <trkpt lat="45.50041" lon="3.22192">
        <ele>487</ele>
        <time>2012-11-16T08:30:53Z</time>
      </trkpt>
      <trkpt lat="45.50021" lon="3.22192">
        <ele>486</ele>
        <time>2012-11-16T08:30:58Z</time>
      </trkpt>
      <trkpt lat="45.50003" lon="3.22188">
        <ele>485</ele>
        <time>2012-11-16T08:31:02Z</time>
      </trkpt>
      <trkpt lat="45.4998" lon="3.22185">
        <ele>483</ele>
        <time>2012-11-16T08:31:06Z</time>
      </trkpt>
      <trkpt lat="45.49958" lon="3.22183">
        <ele>482</ele>
        <time>2012-11-16T08:31:10Z</time>
      </trkpt>
      <trkpt lat="45.49935" lon="3.22184">
        <ele>482</ele>
        <time>2012-11-16T08:31:13Z</time>
      </trkpt>
      <trkpt lat="45.49917" lon="3.22184">
        <ele>480</ele>
        <time>2012-11-16T08:31:17Z</time>
      </trkpt>
      <trkpt lat="45.49896" lon="3.22182">
        <ele>480</ele>
        <time>2012-11-16T08:31:20Z</time>
      </trkpt>
      <trkpt lat="45.49876" lon="3.22179">
        <ele>480</ele>
        <time>2012-11-16T08:31:23Z</time>
      </trkpt>
      <trkpt lat="45.49857" lon="3.22176">
        <ele>479</ele>
        <time>2012-11-16T08:31:26Z</time>
      </trkpt>
      <trkpt lat="45.49838" lon="3.22177">
        <ele>478</ele>
        <time>2012-11-16T08:31:29Z</time>
      </trkpt>
      <trkpt lat="45.4982" lon="3.22181">
        <ele>478</ele>
        <time>2012-11-16T08:31:32Z</time>
      </trkpt>
      <trkpt lat="45.49797" lon="3.2219">
        <ele>478</ele>
        <time>2012-11-16T08:31:36Z</time>
      </trkpt>
      <trkpt lat="45.49776" lon="3.22199">
        <ele>478</ele>
        <time>2012-11-16T08:31:40Z</time>
      </trkpt>
      <trkpt lat="45.49755" lon="3.22201">
        <ele>478</ele>
        <time>2012-11-16T08:31:44Z</time>
      </trkpt>
      <trkpt lat="45.49734" lon="3.222">
        <ele>477</ele>
        <time>2012-11-16T08:31:48Z</time>
      </trkpt>
      <trkpt lat="45.4971" lon="3.22196">
        <ele>477</ele>
        <time>2012-11-16T08:31:52Z</time>
      </trkpt>
      <trkpt lat="45.49687" lon="3.22195">
        <ele>477</ele>
        <time>2012-11-16T08:31:56Z</time>
      </trkpt>
      <trkpt lat="45.49665" lon="3.22191">
        <ele>476</ele>
        <time>2012-11-16T08:31:59Z</time>
      </trkpt>
      <trkpt lat="45.49642" lon="3.22189">
        <ele>476</ele>
        <time>2012-11-16T08:32:04Z</time>
      </trkpt>
      <trkpt lat="45.49619" lon="3.22185">
        <ele>476</ele>
        <time>2012-11-16T08:32:08Z</time>
      </trkpt>
      <trkpt lat="45.49596" lon="3.22185">
        <ele>476</ele>
        <time>2012-11-16T08:32:12Z</time>
      </trkpt>
      <trkpt lat="45.49573" lon="3.22188">
        <ele>475</ele>
        <time>2012-11-16T08:32:16Z</time>
      </trkpt>
      <trkpt lat="45.4955" lon="3.22191">
        <ele>475</ele>
        <time>2012-11-16T08:32:20Z</time>
      </trkpt>
      <trkpt lat="45.49527" lon="3.22197">
        <ele>475</ele>
        <time>2012-11-16T08:32:24Z</time>
      </trkpt>
      <trkpt lat="45.49504" lon="3.22202">
        <ele>475</ele>
        <time>2012-11-16T08:32:28Z</time>
      </trkpt>
      <trkpt lat="45.49481" lon="3.22205">
        <ele>474</ele>
        <time>2012-11-16T08:32:32Z</time>
      </trkpt>
      <trkpt lat="45.49458" lon="3.22204">
        <ele>473</ele>
        <time>2012-11-16T08:32:36Z</time>
      </trkpt>
      <trkpt lat="45.49435" lon="3.22208">
        <ele>473</ele>
        <time>2012-11-16T08:32:40Z</time>
      </trkpt>
      <trkpt lat="45.49417" lon="3.22213">
        <ele>473</ele>
        <time>2012-11-16T08:32:43Z</time>
      </trkpt>
      <trkpt lat="45.49393" lon="3.22218">
        <ele>472</ele>
        <time>2012-11-16T08:32:47Z</time>
      </trkpt>
      <trkpt lat="45.49374" lon="3.22226">
        <ele>473</ele>
        <time>2012-11-16T08:32:51Z</time>
      </trkpt>
      <trkpt lat="45.49355" lon="3.22236">
        <ele>473</ele>
        <time>2012-11-16T08:32:55Z</time>
      </trkpt>
      <trkpt lat="45.49335" lon="3.22243">
        <ele>474</ele>
        <time>2012-11-16T08:32:59Z</time>
      </trkpt>
      <trkpt lat="45.49317" lon="3.22247">
        <ele>473</ele>
        <time>2012-11-16T08:33:03Z</time>
      </trkpt>
      <trkpt lat="45.49298" lon="3.22254">
        <ele>476</ele>
        <time>2012-11-16T08:33:07Z</time>
      </trkpt>
      <trkpt lat="45.49292" lon="3.2228">
        <ele>477</ele>
        <time>2012-11-16T08:33:12Z</time>
      </trkpt>
      <trkpt lat="45.49294" lon="3.22307">
        <ele>477</ele>
        <time>2012-11-16T08:33:18Z</time>
      </trkpt>
      <trkpt lat="45.4929" lon="3.22334">
        <ele>483</ele>
        <time>2012-11-16T08:33:25Z</time>
      </trkpt>
      <trkpt lat="45.49268" lon="3.22337">
        <ele>482</ele>
        <time>2012-11-16T08:33:31Z</time>
      </trkpt>
      <trkpt lat="45.49247" lon="3.2234">
        <ele>480</ele>
        <time>2012-11-16T08:33:36Z</time>
      </trkpt>
      <trkpt lat="45.49228" lon="3.22341">
        <ele>480</ele>
        <time>2012-11-16T08:33:40Z</time>
      </trkpt>
      <trkpt lat="45.49209" lon="3.22343">
        <ele>480</ele>
        <time>2012-11-16T08:33:44Z</time>
      </trkpt>
      <trkpt lat="45.49191" lon="3.22348">
        <ele>480</ele>
        <time>2012-11-16T08:33:48Z</time>
      </trkpt>
      <trkpt lat="45.49169" lon="3.22352">
        <ele>479</ele>
        <time>2012-11-16T08:33:52Z</time>
      </trkpt>
      <trkpt lat="45.4915" lon="3.2236">
        <ele>478</ele>
        <time>2012-11-16T08:33:56Z</time>
      </trkpt>
      <trkpt lat="45.49131" lon="3.22363">
        <ele>477</ele>
        <time>2012-11-16T08:34:00Z</time>
      </trkpt>
      <trkpt lat="45.4911" lon="3.22366">
        <ele>477</ele>
        <time>2012-11-16T08:34:04Z</time>
      </trkpt>
      <trkpt lat="45.49092" lon="3.22367">
        <ele>476</ele>
        <time>2012-11-16T08:34:07Z</time>
      </trkpt>
      <trkpt lat="45.49074" lon="3.22368">
        <ele>474</ele>
        <time>2012-11-16T08:34:10Z</time>
      </trkpt>
      <trkpt lat="45.49053" lon="3.22368">
        <ele>473</ele>
        <time>2012-11-16T08:34:13Z</time>
      </trkpt>
      <trkpt lat="45.49029" lon="3.22372">
        <ele>473</ele>
        <time>2012-11-16T08:34:16Z</time>
      </trkpt>
      <trkpt lat="45.49007" lon="3.22379">
        <ele>473</ele>
        <time>2012-11-16T08:34:19Z</time>
      </trkpt>
      <trkpt lat="45.48984" lon="3.22386">
        <ele>471</ele>
        <time>2012-11-16T08:34:22Z</time>
      </trkpt>
      <trkpt lat="45.48962" lon="3.22392">
        <ele>471</ele>
        <time>2012-11-16T08:34:25Z</time>
      </trkpt>
      <trkpt lat="45.4894" lon="3.22394">
        <ele>471</ele>
        <time>2012-11-16T08:34:28Z</time>
      </trkpt>
      <trkpt lat="45.48917" lon="3.22383">
        <ele>470</ele>
        <time>2012-11-16T08:34:31Z</time>
      </trkpt>
      <trkpt lat="45.48893" lon="3.22372">
        <ele>468</ele>
        <time>2012-11-16T08:34:34Z</time>
      </trkpt>
      <trkpt lat="45.48867" lon="3.22367">
        <ele>467</ele>
        <time>2012-11-16T08:34:37Z</time>
      </trkpt>
      <trkpt lat="45.48841" lon="3.22362">
        <ele>466</ele>
        <time>2012-11-16T08:34:40Z</time>
      </trkpt>
      <trkpt lat="45.48823" lon="3.22354">
        <ele>464</ele>
        <time>2012-11-16T08:34:42Z</time>
      </trkpt>
      <trkpt lat="45.48804" lon="3.22345">
        <ele>463</ele>
        <time>2012-11-16T08:34:44Z</time>
      </trkpt>
      <trkpt lat="45.48785" lon="3.22339">
        <ele>463</ele>
        <time>2012-11-16T08:34:46Z</time>
      </trkpt>
      <trkpt lat="45.48766" lon="3.22335">
        <ele>461</ele>
        <time>2012-11-16T08:34:48Z</time>
      </trkpt>
      <trkpt lat="45.48748" lon="3.22331">
        <ele>457</ele>
        <time>2012-11-16T08:34:50Z</time>
      </trkpt>
      <trkpt lat="45.4873" lon="3.22328">
        <ele>455</ele>
        <time>2012-11-16T08:34:52Z</time>
      </trkpt>
      <trkpt lat="45.48704" lon="3.22323">
        <ele>454</ele>
        <time>2012-11-16T08:34:55Z</time>
      </trkpt>
      <trkpt lat="45.48678" lon="3.22319">
        <ele>453</ele>
        <time>2012-11-16T08:34:58Z</time>
      </trkpt>
      <trkpt lat="45.48654" lon="3.22317">
        <ele>451</ele>
        <time>2012-11-16T08:35:01Z</time>
      </trkpt>
      <trkpt lat="45.48632" lon="3.22313">
        <ele>450</ele>
        <time>2012-11-16T08:35:04Z</time>
      </trkpt>
      <trkpt lat="45.48609" lon="3.22306">
        <ele>450</ele>
        <time>2012-11-16T08:35:07Z</time>
      </trkpt>
      <trkpt lat="45.48587" lon="3.22294">
        <ele>449</ele>
        <time>2012-11-16T08:35:10Z</time>
      </trkpt>
      <trkpt lat="45.48564" lon="3.22282">
        <ele>447</ele>
        <time>2012-11-16T08:35:13Z</time>
      </trkpt>
      <trkpt lat="45.48543" lon="3.22269">
        <ele>446</ele>
        <time>2012-11-16T08:35:16Z</time>
      </trkpt>
      <trkpt lat="45.48529" lon="3.22247">
        <ele>442</ele>
        <time>2012-11-16T08:35:19Z</time>
      </trkpt>
      <trkpt lat="45.48527" lon="3.22212">
        <ele>442</ele>
        <time>2012-11-16T08:35:22Z</time>
      </trkpt>
      <trkpt lat="45.48525" lon="3.22177">
        <ele>440</ele>
        <time>2012-11-16T08:35:25Z</time>
      </trkpt>
      <trkpt lat="45.48521" lon="3.22143">
        <ele>439</ele>
        <time>2012-11-16T08:35:28Z</time>
      </trkpt>
      <trkpt lat="45.48519" lon="3.22109">
        <ele>439</ele>
        <time>2012-11-16T08:35:31Z</time>
      </trkpt>
      <trkpt lat="45.48517" lon="3.22079">
        <ele>438</ele>
        <time>2012-11-16T08:35:34Z</time>
      </trkpt>
      <trkpt lat="45.4851" lon="3.2205">
        <ele>438</ele>
        <time>2012-11-16T08:35:38Z</time>
      </trkpt>
      <trkpt lat="45.4849" lon="3.22052">
        <ele>434</ele>
        <time>2012-11-16T08:35:42Z</time>
      </trkpt>
      <trkpt lat="45.48467" lon="3.22059">
        <ele>434</ele>
        <time>2012-11-16T08:35:46Z</time>
      </trkpt>
      <trkpt lat="45.48447" lon="3.22066">
        <ele>433</ele>
        <time>2012-11-16T08:35:49Z</time>
      </trkpt>
      <trkpt lat="45.48428" lon="3.22072">
        <ele>433</ele>
        <time>2012-11-16T08:35:52Z</time>
      </trkpt>
      <trkpt lat="45.48407" lon="3.2208">
        <ele>431</ele>
        <time>2012-11-16T08:35:55Z</time>
      </trkpt>
      <trkpt lat="45.48385" lon="3.22086">
        <ele>432</ele>
        <time>2012-11-16T08:35:58Z</time>
      </trkpt>
      <trkpt lat="45.48364" lon="3.22093">
        <ele>432</ele>
        <time>2012-11-16T08:36:01Z</time>
      </trkpt>
      <trkpt lat="45.48345" lon="3.221">
        <ele>432</ele>
        <time>2012-11-16T08:36:04Z</time>
      </trkpt>
      <trkpt lat="45.48326" lon="3.22105">
        <ele>432</ele>
        <time>2012-11-16T08:36:07Z</time>
      </trkpt>
      <trkpt lat="45.48307" lon="3.22105">
        <ele>432</ele>
        <time>2012-11-16T08:36:10Z</time>
      </trkpt>
      <trkpt lat="45.48289" lon="3.22102">
        <ele>432</ele>
        <time>2012-11-16T08:36:13Z</time>
      </trkpt>
      <trkpt lat="45.48271" lon="3.22097">
        <ele>432</ele>
        <time>2012-11-16T08:36:16Z</time>
      </trkpt>
      <trkpt lat="45.48249" lon="3.22091">
        <ele>431</ele>
        <time>2012-11-16T08:36:20Z</time>
      </trkpt>
      <trkpt lat="45.48231" lon="3.22086">
        <ele>432</ele>
        <time>2012-11-16T08:36:23Z</time>
      </trkpt>
      <trkpt lat="45.48211" lon="3.22085">
        <ele>432</ele>
        <time>2012-11-16T08:36:26Z</time>
      </trkpt>
      <trkpt lat="45.48192" lon="3.22085">
        <ele>431</ele>
        <time>2012-11-16T08:36:29Z</time>
      </trkpt>
      <trkpt lat="45.48172" lon="3.22086">
        <ele>430</ele>
        <time>2012-11-16T08:36:32Z</time>
      </trkpt>
      <trkpt lat="45.48154" lon="3.2209">
        <ele>430</ele>
        <time>2012-11-16T08:36:35Z</time>
      </trkpt>
      <trkpt lat="45.48132" lon="3.22091">
        <ele>431</ele>
        <time>2012-11-16T08:36:37Z</time>
      </trkpt>
      <trkpt lat="45.4811" lon="3.22094">
        <ele>430</ele>
        <time>2012-11-16T08:36:41Z</time>
      </trkpt>
      <trkpt lat="45.48091" lon="3.2209">
        <ele>429</ele>
        <time>2012-11-16T08:36:44Z</time>
      </trkpt>
      <trkpt lat="45.48069" lon="3.22088">
        <ele>429</ele>
        <time>2012-11-16T08:36:47Z</time>
      </trkpt>
      <trkpt lat="45.4805" lon="3.22071">
        <ele>426</ele>
        <time>2012-11-16T08:36:51Z</time>
      </trkpt>
      <trkpt lat="45.48028" lon="3.22068">
        <ele>426</ele>
        <time>2012-11-16T08:36:55Z</time>
      </trkpt>
      <trkpt lat="45.48007" lon="3.22075">
        <ele>427</ele>
        <time>2012-11-16T08:36:59Z</time>
      </trkpt>
      <trkpt lat="45.47986" lon="3.22078">
        <ele>427</ele>
        <time>2012-11-16T08:37:03Z</time>
      </trkpt>
      <trkpt lat="45.47966" lon="3.22078">
        <ele>426</ele>
        <time>2012-11-16T08:37:07Z</time>
      </trkpt>
      <trkpt lat="45.47943" lon="3.22078">
        <ele>426</ele>
        <time>2012-11-16T08:37:11Z</time>
      </trkpt>
      <trkpt lat="45.47924" lon="3.22071">
        <ele>426</ele>
        <time>2012-11-16T08:37:14Z</time>
      </trkpt>
      <trkpt lat="45.47905" lon="3.22058">
        <ele>425</ele>
        <time>2012-11-16T08:37:18Z</time>
      </trkpt>
      <trkpt lat="45.4788" lon="3.22055">
        <ele>424</ele>
        <time>2012-11-16T08:37:20Z</time>
      </trkpt>
      <trkpt lat="45.47855" lon="3.22051">
        <ele>424</ele>
        <time>2012-11-16T08:37:24Z</time>
      </trkpt>
      <trkpt lat="45.47833" lon="3.22042">
        <ele>423</ele>
        <time>2012-11-16T08:37:28Z</time>
      </trkpt>
      <trkpt lat="45.47811" lon="3.22041">
        <ele>422</ele>
        <time>2012-11-16T08:37:31Z</time>
      </trkpt>
      <trkpt lat="45.47792" lon="3.22035">
        <ele>422</ele>
        <time>2012-11-16T08:37:34Z</time>
      </trkpt>
      <trkpt lat="45.47774" lon="3.22033">
        <ele>422</ele>
        <time>2012-11-16T08:37:37Z</time>
      </trkpt>
      <trkpt lat="45.47754" lon="3.22035">
        <ele>422</ele>
        <time>2012-11-16T08:37:40Z</time>
      </trkpt>
      <trkpt lat="45.47732" lon="3.22032">
        <ele>421</ele>
        <time>2012-11-16T08:37:43Z</time>
      </trkpt>
      <trkpt lat="45.47711" lon="3.22031">
        <ele>421</ele>
        <time>2012-11-16T08:37:46Z</time>
      </trkpt>
      <trkpt lat="45.47692" lon="3.2203">
        <ele>420</ele>
        <time>2012-11-16T08:37:49Z</time>
      </trkpt>
      <trkpt lat="45.47672" lon="3.22028">
        <ele>420</ele>
        <time>2012-11-16T08:37:52Z</time>
      </trkpt>
      <trkpt lat="45.47653" lon="3.22028">
        <ele>418</ele>
        <time>2012-11-16T08:37:55Z</time>
      </trkpt>
      <trkpt lat="45.47634" lon="3.2203">
        <ele>418</ele>
        <time>2012-11-16T08:37:58Z</time>
      </trkpt>
      <trkpt lat="45.47616" lon="3.22032">
        <ele>418</ele>
        <time>2012-11-16T08:38:01Z</time>
      </trkpt>
      <trkpt lat="45.47593" lon="3.22034">
        <ele>418</ele>
        <time>2012-11-16T08:38:05Z</time>
      </trkpt>
      <trkpt lat="45.47573" lon="3.22037">
        <ele>416</ele>
        <time>2012-11-16T08:38:08Z</time>
      </trkpt>
      <trkpt lat="45.47552" lon="3.2204">
        <ele>416</ele>
        <time>2012-11-16T08:38:11Z</time>
      </trkpt>
      <trkpt lat="45.47532" lon="3.22047">
        <ele>416</ele>
        <time>2012-11-16T08:38:14Z</time>
      </trkpt>
      <trkpt lat="45.47513" lon="3.22055">
        <ele>416</ele>
        <time>2012-11-16T08:38:17Z</time>
      </trkpt>
      <trkpt lat="45.47492" lon="3.22062">
        <ele>414</ele>
        <time>2012-11-16T08:38:20Z</time>
      </trkpt>
      <trkpt lat="45.47474" lon="3.22071">
        <ele>414</ele>
        <time>2012-11-16T08:38:23Z</time>
      </trkpt>
      <trkpt lat="45.47455" lon="3.22078">
        <ele>414</ele>
        <time>2012-11-16T08:38:26Z</time>
      </trkpt>
      <trkpt lat="45.47436" lon="3.22086">
        <ele>416</ele>
        <time>2012-11-16T08:38:29Z</time>
      </trkpt>
      <trkpt lat="45.47413" lon="3.22095">
        <ele>413</ele>
        <time>2012-11-16T08:38:33Z</time>
      </trkpt>
      <trkpt lat="45.47395" lon="3.22099">
        <ele>414</ele>
        <time>2012-11-16T08:38:36Z</time>
      </trkpt>
      <trkpt lat="45.47375" lon="3.22111">
        <ele>414</ele>
        <time>2012-11-16T08:38:39Z</time>
      </trkpt>
      <trkpt lat="45.47357" lon="3.22121">
        <ele>413</ele>
        <time>2012-11-16T08:38:42Z</time>
      </trkpt>
      <trkpt lat="45.47342" lon="3.22138">
        <ele>414</ele>
        <time>2012-11-16T08:38:45Z</time>
      </trkpt>
      <trkpt lat="45.47324" lon="3.2215">
        <ele>412</ele>
        <time>2012-11-16T08:38:48Z</time>
      </trkpt>
      <trkpt lat="45.47306" lon="3.22166">
        <ele>412</ele>
        <time>2012-11-16T08:38:51Z</time>
      </trkpt>
      <trkpt lat="45.47289" lon="3.22181">
        <ele>413</ele>
        <time>2012-11-16T08:38:54Z</time>
      </trkpt>
      <trkpt lat="45.47273" lon="3.22195">
        <ele>413</ele>
        <time>2012-11-16T08:38:57Z</time>
      </trkpt>
      <trkpt lat="45.47257" lon="3.2221">
        <ele>412</ele>
        <time>2012-11-16T08:39:00Z</time>
      </trkpt>
      <trkpt lat="45.4724" lon="3.22224">
        <ele>410</ele>
        <time>2012-11-16T08:39:03Z</time>
      </trkpt>
      <trkpt lat="45.47222" lon="3.22238">
        <ele>410</ele>
        <time>2012-11-16T08:39:06Z</time>
      </trkpt>
      <trkpt lat="45.47205" lon="3.22255">
        <ele>410</ele>
        <time>2012-11-16T08:39:09Z</time>
      </trkpt>
      <trkpt lat="45.47188" lon="3.22271">
        <ele>410</ele>
        <time>2012-11-16T08:39:12Z</time>
      </trkpt>
      <trkpt lat="45.47171" lon="3.22285">
        <ele>410</ele>
        <time>2012-11-16T08:39:15Z</time>
      </trkpt>
      <trkpt lat="45.47158" lon="3.22307">
        <ele>408</ele>
        <time>2012-11-16T08:39:18Z</time>
      </trkpt>
      <trkpt lat="45.47151" lon="3.22333">
        <ele>408</ele>
        <time>2012-11-16T08:39:21Z</time>
      </trkpt>
      <trkpt lat="45.47142" lon="3.22357">
        <ele>407</ele>
        <time>2012-11-16T08:39:24Z</time>
      </trkpt>
      <trkpt lat="45.47134" lon="3.22383">
        <ele>407</ele>
        <time>2012-11-16T08:39:27Z</time>
      </trkpt>
      <trkpt lat="45.47126" lon="3.22408">
        <ele>407</ele>
        <time>2012-11-16T08:39:30Z</time>
      </trkpt>
      <trkpt lat="45.47118" lon="3.22433">
        <ele>408</ele>
        <time>2012-11-16T08:39:33Z</time>
      </trkpt>
      <trkpt lat="45.47109" lon="3.22458">
        <ele>408</ele>
        <time>2012-11-16T08:39:36Z</time>
      </trkpt>
      <trkpt lat="45.47102" lon="3.22482">
        <ele>407</ele>
        <time>2012-11-16T08:39:39Z</time>
      </trkpt>
      <trkpt lat="45.47095" lon="3.22506">
        <ele>408</ele>
        <time>2012-11-16T08:39:42Z</time>
      </trkpt>
      <trkpt lat="45.47086" lon="3.22537">
        <ele>409</ele>
        <time>2012-11-16T08:39:46Z</time>
      </trkpt>
      <trkpt lat="45.4708" lon="3.2257">
        <ele>407</ele>
        <time>2012-11-16T08:39:50Z</time>
      </trkpt>
      <trkpt lat="45.47079" lon="3.22604">
        <ele>407</ele>
        <time>2012-11-16T08:39:54Z</time>
      </trkpt>
      <trkpt lat="45.47079" lon="3.22632">
        <ele>407</ele>
        <time>2012-11-16T08:39:57Z</time>
      </trkpt>
      <trkpt lat="45.47078" lon="3.22659">
        <ele>407</ele>
        <time>2012-11-16T08:40:00Z</time>
      </trkpt>
      <trkpt lat="45.47078" lon="3.22687">
        <ele>406</ele>
        <time>2012-11-16T08:40:03Z</time>
      </trkpt>
      <trkpt lat="45.47078" lon="3.22713">
        <ele>406</ele>
        <time>2012-11-16T08:40:06Z</time>
      </trkpt>
      <trkpt lat="45.47077" lon="3.22739">
        <ele>405</ele>
        <time>2012-11-16T08:40:09Z</time>
      </trkpt>
      <trkpt lat="45.47078" lon="3.22764">
        <ele>405</ele>
        <time>2012-11-16T08:40:12Z</time>
      </trkpt>
      <trkpt lat="45.47077" lon="3.22796">
        <ele>404</ele>
        <time>2012-11-16T08:40:16Z</time>
      </trkpt>
      <trkpt lat="45.47079" lon="3.22831">
        <ele>404</ele>
        <time>2012-11-16T08:40:20Z</time>
      </trkpt>
      <trkpt lat="45.47084" lon="3.22856">
        <ele>406</ele>
        <time>2012-11-16T08:40:23Z</time>
      </trkpt>
      <trkpt lat="45.4709" lon="3.22881">
        <ele>406</ele>
        <time>2012-11-16T08:40:26Z</time>
      </trkpt>
      <trkpt lat="45.47102" lon="3.22909">
        <ele>405</ele>
        <time>2012-11-16T08:40:30Z</time>
      </trkpt>
      <trkpt lat="45.47111" lon="3.22931">
        <ele>405</ele>
        <time>2012-11-16T08:40:33Z</time>
      </trkpt>
      <trkpt lat="45.47122" lon="3.2296">
        <ele>405</ele>
        <time>2012-11-16T08:40:37Z</time>
      </trkpt>
      <trkpt lat="45.47133" lon="3.2299">
        <ele>405</ele>
        <time>2012-11-16T08:40:41Z</time>
      </trkpt>
      <trkpt lat="45.47142" lon="3.23019">
        <ele>405</ele>
        <time>2012-11-16T08:40:45Z</time>
      </trkpt>
      <trkpt lat="45.47149" lon="3.23047">
        <ele>404</ele>
        <time>2012-11-16T08:40:49Z</time>
      </trkpt>
      <trkpt lat="45.47136" lon="3.23068">
        <ele>404</ele>
        <time>2012-11-16T08:40:53Z</time>
      </trkpt>
      <trkpt lat="45.47116" lon="3.23087">
        <ele>403</ele>
        <time>2012-11-16T08:40:57Z</time>
      </trkpt>
      <trkpt lat="45.47102" lon="3.23103">
        <ele>403</ele>
        <time>2012-11-16T08:41:00Z</time>
      </trkpt>
      <trkpt lat="45.47084" lon="3.23122">
        <ele>403</ele>
        <time>2012-11-16T08:41:04Z</time>
      </trkpt>
      <trkpt lat="45.47069" lon="3.23139">
        <ele>403</ele>
        <time>2012-11-16T08:41:08Z</time>
      </trkpt>
      <trkpt lat="45.47054" lon="3.23157">
        <ele>403</ele>
        <time>2012-11-16T08:41:12Z</time>
      </trkpt>
      <trkpt lat="45.47038" lon="3.23182">
        <ele>403</ele>
        <time>2012-11-16T08:41:16Z</time>
      </trkpt>
      <trkpt lat="45.47018" lon="3.23198">
        <ele>403</ele>
        <time>2012-11-16T08:41:20Z</time>
      </trkpt>
      <trkpt lat="45.47001" lon="3.23217">
        <ele>403</ele>
        <time>2012-11-16T08:41:24Z</time>
      </trkpt>
      <trkpt lat="45.46984" lon="3.23237">
        <ele>403</ele>
        <time>2012-11-16T08:41:28Z</time>
      </trkpt>
      <trkpt lat="45.46967" lon="3.23255">
        <ele>405</ele>
        <time>2012-11-16T08:41:33Z</time>
      </trkpt>
      <trkpt lat="45.4695" lon="3.23271">
        <ele>406</ele>
        <time>2012-11-16T08:41:38Z</time>
      </trkpt>
      <trkpt lat="45.46934" lon="3.23289">
        <ele>406</ele>
        <time>2012-11-16T08:41:43Z</time>
      </trkpt>
      <trkpt lat="45.46918" lon="3.23304">
        <ele>407</ele>
        <time>2012-11-16T08:41:48Z</time>
      </trkpt>
      <trkpt lat="45.46901" lon="3.23317">
        <ele>409</ele>
        <time>2012-11-16T08:41:53Z</time>
      </trkpt>
      <trkpt lat="45.46882" lon="3.23329">
        <ele>409</ele>
        <time>2012-11-16T08:41:58Z</time>
      </trkpt>
      <trkpt lat="45.46865" lon="3.23336">
        <ele>412</ele>
        <time>2012-11-16T08:42:02Z</time>
      </trkpt>
      <trkpt lat="45.46846" lon="3.23343">
        <ele>412</ele>
        <time>2012-11-16T08:42:07Z</time>
      </trkpt>
      <trkpt lat="45.46825" lon="3.23351">
        <ele>412</ele>
        <time>2012-11-16T08:42:12Z</time>
      </trkpt>
      <trkpt lat="45.46808" lon="3.23361">
        <ele>412</ele>
        <time>2012-11-16T08:42:16Z</time>
      </trkpt>
      <trkpt lat="45.4679" lon="3.23372">
        <ele>413</ele>
        <time>2012-11-16T08:42:20Z</time>
      </trkpt>
      <trkpt lat="45.46773" lon="3.23384">
        <ele>413</ele>
        <time>2012-11-16T08:42:24Z</time>
      </trkpt>
      <trkpt lat="45.46754" lon="3.23396">
        <ele>413</ele>
        <time>2012-11-16T08:42:28Z</time>
      </trkpt>
      <trkpt lat="45.46735" lon="3.23407">
        <ele>413</ele>
        <time>2012-11-16T08:42:32Z</time>
      </trkpt>
      <trkpt lat="45.46716" lon="3.23418">
        <ele>414</ele>
        <time>2012-11-16T08:42:36Z</time>
      </trkpt>
      <trkpt lat="45.46696" lon="3.23429">
        <ele>414</ele>
        <time>2012-11-16T08:42:40Z</time>
      </trkpt>
      <trkpt lat="45.46675" lon="3.23435">
        <ele>414</ele>
        <time>2012-11-16T08:42:43Z</time>
      </trkpt>
      <trkpt lat="45.46653" lon="3.23445">
        <ele>413</ele>
        <time>2012-11-16T08:42:48Z</time>
      </trkpt>
      <trkpt lat="45.46632" lon="3.23454">
        <ele>413</ele>
        <time>2012-11-16T08:42:52Z</time>
      </trkpt>
      <trkpt lat="45.46614" lon="3.23462">
        <ele>413</ele>
        <time>2012-11-16T08:42:55Z</time>
      </trkpt>
      <trkpt lat="45.46596" lon="3.23473">
        <ele>413</ele>
        <time>2012-11-16T08:42:58Z</time>
      </trkpt>
      <trkpt lat="45.46581" lon="3.23491">
        <ele>412</ele>
        <time>2012-11-16T08:43:01Z</time>
      </trkpt>
      <trkpt lat="45.46568" lon="3.23513">
        <ele>412</ele>
        <time>2012-11-16T08:43:04Z</time>
      </trkpt>
      <trkpt lat="45.46555" lon="3.23535">
        <ele>412</ele>
        <time>2012-11-16T08:43:07Z</time>
      </trkpt>
      <trkpt lat="45.4654" lon="3.23556">
        <ele>411</ele>
        <time>2012-11-16T08:43:10Z</time>
      </trkpt>
      <trkpt lat="45.46523" lon="3.23577">
        <ele>411</ele>
        <time>2012-11-16T08:43:13Z</time>
      </trkpt>
      <trkpt lat="45.46505" lon="3.23597">
        <ele>411</ele>
        <time>2012-11-16T08:43:16Z</time>
      </trkpt>
      <trkpt lat="45.46487" lon="3.23619">
        <ele>408</ele>
        <time>2012-11-16T08:43:19Z</time>
      </trkpt>
      <trkpt lat="45.4647" lon="3.23636">
        <ele>408</ele>
        <time>2012-11-16T08:43:22Z</time>
      </trkpt>
      <trkpt lat="45.46455" lon="3.23655">
        <ele>408</ele>
        <time>2012-11-16T08:43:25Z</time>
      </trkpt>
      <trkpt lat="45.46439" lon="3.23669">
        <ele>407</ele>
        <time>2012-11-16T08:43:28Z</time>
      </trkpt>
      <trkpt lat="45.46424" lon="3.23685">
        <ele>407</ele>
        <time>2012-11-16T08:43:31Z</time>
      </trkpt>
      <trkpt lat="45.46406" lon="3.23697">
        <ele>405</ele>
        <time>2012-11-16T08:43:34Z</time>
      </trkpt>
      <trkpt lat="45.46388" lon="3.2371">
        <ele>405</ele>
        <time>2012-11-16T08:43:37Z</time>
      </trkpt>
      <trkpt lat="45.4637" lon="3.23718">
        <ele>405</ele>
        <time>2012-11-16T08:43:40Z</time>
      </trkpt>
      <trkpt lat="45.46348" lon="3.23734">
        <ele>405</ele>
        <time>2012-11-16T08:43:44Z</time>
      </trkpt>
      <trkpt lat="45.46332" lon="3.23749">
        <ele>405</ele>
        <time>2012-11-16T08:43:47Z</time>
      </trkpt>
      <trkpt lat="45.46316" lon="3.23762">
        <ele>405</ele>
        <time>2012-11-16T08:43:50Z</time>
      </trkpt>
      <trkpt lat="45.46295" lon="3.23776">
        <ele>404</ele>
        <time>2012-11-16T08:43:54Z</time>
      </trkpt>
      <trkpt lat="45.46278" lon="3.23787">
        <ele>404</ele>
        <time>2012-11-16T08:43:57Z</time>
      </trkpt>
      <trkpt lat="45.46261" lon="3.23798">
        <ele>404</ele>
        <time>2012-11-16T08:44:00Z</time>
      </trkpt>
      <trkpt lat="45.46244" lon="3.23809">
        <ele>404</ele>
        <time>2012-11-16T08:44:03Z</time>
      </trkpt>
      <trkpt lat="45.46226" lon="3.23823">
        <ele>404</ele>
        <time>2012-11-16T08:44:06Z</time>
      </trkpt>
      <trkpt lat="45.46206" lon="3.23835">
        <ele>404</ele>
        <time>2012-11-16T08:44:09Z</time>
      </trkpt>
      <trkpt lat="45.46184" lon="3.2385">
        <ele>404</ele>
        <time>2012-11-16T08:44:13Z</time>
      </trkpt>
      <trkpt lat="45.46166" lon="3.23858">
        <ele>405</ele>
        <time>2012-11-16T08:44:16Z</time>
      </trkpt>
      <trkpt lat="45.46145" lon="3.23867">
        <ele>406</ele>
        <time>2012-11-16T08:44:19Z</time>
      </trkpt>
      <trkpt lat="45.46126" lon="3.23872">
        <ele>406</ele>
        <time>2012-11-16T08:44:22Z</time>
      </trkpt>
      <trkpt lat="45.46105" lon="3.23883">
        <ele>406</ele>
        <time>2012-11-16T08:44:26Z</time>
      </trkpt>
      <trkpt lat="45.46083" lon="3.23889">
        <ele>408</ele>
        <time>2012-11-16T08:44:30Z</time>
      </trkpt>
      <trkpt lat="45.46057" lon="3.23889">
        <ele>408</ele>
        <time>2012-11-16T08:44:33Z</time>
      </trkpt>
      <trkpt lat="45.4603" lon="3.23896">
        <ele>408</ele>
        <time>2012-11-16T08:44:37Z</time>
      </trkpt>
      <trkpt lat="45.46026" lon="3.23865">
        <ele>408</ele>
        <time>2012-11-16T08:44:49Z</time>
      </trkpt>
      <trkpt lat="45.46029" lon="3.23834">
        <ele>408</ele>
        <time>2012-11-16T08:44:52Z</time>
      </trkpt>
      <trkpt lat="45.46023" lon="3.23803">
        <ele>407</ele>
        <time>2012-11-16T08:44:57Z</time>
      </trkpt>
      <trkpt lat="45.46027" lon="3.23776">
        <ele>407</ele>
        <time>2012-11-16T08:45:01Z</time>
      </trkpt>
      <trkpt lat="45.46043" lon="3.23762">
        <ele>407</ele>
        <time>2012-11-16T08:45:05Z</time>
      </trkpt>
      <trkpt lat="45.46056" lon="3.23742">
        <ele>406</ele>
        <time>2012-11-16T08:45:08Z</time>
      </trkpt>
      <trkpt lat="45.46059" lon="3.23715">
        <ele>406</ele>
        <time>2012-11-16T08:45:13Z</time>
      </trkpt>
      <trkpt lat="45.46065" lon="3.23683">
        <ele>406</ele>
        <time>2012-11-16T08:45:18Z</time>
      </trkpt>
      <trkpt lat="45.4607" lon="3.23653">
        <ele>406</ele>
        <time>2012-11-16T08:45:22Z</time>
      </trkpt>
      <trkpt lat="45.46077" lon="3.23626">
        <ele>407</ele>
        <time>2012-11-16T08:45:26Z</time>
      </trkpt>
      <trkpt lat="45.46082" lon="3.23598">
        <ele>407</ele>
        <time>2012-11-16T08:45:29Z</time>
      </trkpt>
      <trkpt lat="45.46086" lon="3.23572">
        <ele>407</ele>
        <time>2012-11-16T08:45:32Z</time>
      </trkpt>
      <trkpt lat="45.46089" lon="3.23543">
        <ele>406</ele>
        <time>2012-11-16T08:45:36Z</time>
      </trkpt>
      <trkpt lat="45.46101" lon="3.23519">
        <ele>406</ele>
        <time>2012-11-16T08:45:40Z</time>
      </trkpt>
      <trkpt lat="45.46114" lon="3.23494">
        <ele>406</ele>
        <time>2012-11-16T08:45:44Z</time>
      </trkpt>
      <trkpt lat="45.46118" lon="3.23468">
        <ele>406</ele>
        <time>2012-11-16T08:45:47Z</time>
      </trkpt>
      <trkpt lat="45.46119" lon="3.23439">
        <ele>406</ele>
        <time>2012-11-16T08:45:51Z</time>
      </trkpt>
      <trkpt lat="45.46115" lon="3.2341">
        <ele>407</ele>
        <time>2012-11-16T08:45:55Z</time>
      </trkpt>
      <trkpt lat="45.46109" lon="3.23384">
        <ele>407</ele>
        <time>2012-11-16T08:45:59Z</time>
      </trkpt>
      <trkpt lat="45.46102" lon="3.23356">
        <ele>407</ele>
        <time>2012-11-16T08:46:03Z</time>
      </trkpt>
      <trkpt lat="45.4609" lon="3.23333">
        <ele>407</ele>
        <time>2012-11-16T08:46:07Z</time>
      </trkpt>
      <trkpt lat="45.46076" lon="3.23311">
        <ele>407</ele>
        <time>2012-11-16T08:46:11Z</time>
      </trkpt>
      <trkpt lat="45.4606" lon="3.23291">
        <ele>406</ele>
        <time>2012-11-16T08:46:15Z</time>
      </trkpt>
      <trkpt lat="45.46047" lon="3.23272">
        <ele>406</ele>
        <time>2012-11-16T08:46:19Z</time>
      </trkpt>
      <trkpt lat="45.46033" lon="3.23246">
        <ele>406</ele>
        <time>2012-11-16T08:46:24Z</time>
      </trkpt>
      <trkpt lat="45.46019" lon="3.23224">
        <ele>406</ele>
        <time>2012-11-16T08:46:29Z</time>
      </trkpt>
      <trkpt lat="45.46002" lon="3.23236">
        <ele>407</ele>
        <time>2012-11-16T08:46:34Z</time>
      </trkpt>
      <trkpt lat="45.45988" lon="3.23258">
        <ele>407</ele>
        <time>2012-11-16T08:46:38Z</time>
      </trkpt>
      <trkpt lat="45.45975" lon="3.23282">
        <ele>407</ele>
        <time>2012-11-16T08:46:42Z</time>
      </trkpt>
      <trkpt lat="45.45961" lon="3.23309">
        <ele>407</ele>
        <time>2012-11-16T08:46:46Z</time>
      </trkpt>
      <trkpt lat="45.45951" lon="3.23336">
        <ele>407</ele>
        <time>2012-11-16T08:46:50Z</time>
      </trkpt>
      <trkpt lat="45.45941" lon="3.23361">
        <ele>407</ele>
        <time>2012-11-16T08:46:54Z</time>
      </trkpt>
      <trkpt lat="45.45936" lon="3.23392">
        <ele>407</ele>
        <time>2012-11-16T08:46:58Z</time>
      </trkpt>
      <trkpt lat="45.4593" lon="3.23422">
        <ele>408</ele>
        <time>2012-11-16T08:47:02Z</time>
      </trkpt>
      <trkpt lat="45.45922" lon="3.2345">
        <ele>408</ele>
        <time>2012-11-16T08:47:06Z</time>
      </trkpt>
      <trkpt lat="45.45912" lon="3.23478">
        <ele>409</ele>
        <time>2012-11-16T08:47:10Z</time>
      </trkpt>
      <trkpt lat="45.45906" lon="3.23508">
        <ele>409</ele>
        <time>2012-11-16T08:47:14Z</time>
      </trkpt>
      <trkpt lat="45.459" lon="3.23537">
        <ele>409</ele>
        <time>2012-11-16T08:47:18Z</time>
      </trkpt>
      <trkpt lat="45.4589" lon="3.23564">
        <ele>409</ele>
        <time>2012-11-16T08:47:22Z</time>
      </trkpt>
      <trkpt lat="45.45873" lon="3.23581">
        <ele>409</ele>
        <time>2012-11-16T08:47:26Z</time>
      </trkpt>
      <trkpt lat="45.45853" lon="3.23594">
        <ele>410</ele>
        <time>2012-11-16T08:47:30Z</time>
      </trkpt>
      <trkpt lat="45.45836" lon="3.23586">
        <ele>411</ele>
        <time>2012-11-16T08:47:37Z</time>
      </trkpt>
      <trkpt lat="45.45831" lon="3.23555">
        <ele>411</ele>
        <time>2012-11-16T08:47:42Z</time>
      </trkpt>
      <trkpt lat="45.45825" lon="3.23527">
        <ele>411</ele>
        <time>2012-11-16T08:47:46Z</time>
      </trkpt>
      <trkpt lat="45.4582" lon="3.23499">
        <ele>411</ele>
        <time>2012-11-16T08:47:50Z</time>
      </trkpt>
      <trkpt lat="45.45814" lon="3.23471">
        <ele>411</ele>
        <time>2012-11-16T08:47:54Z</time>
      </trkpt>
      <trkpt lat="45.45808" lon="3.23444">
        <ele>412</ele>
        <time>2012-11-16T08:47:58Z</time>
      </trkpt>
      <trkpt lat="45.45802" lon="3.23419">
        <ele>412</ele>
        <time>2012-11-16T08:48:02Z</time>
      </trkpt>
      <trkpt lat="45.45795" lon="3.23393">
        <ele>412</ele>
        <time>2012-11-16T08:48:06Z</time>
      </trkpt>
      <trkpt lat="45.4579" lon="3.23366">
        <ele>411</ele>
        <time>2012-11-16T08:48:10Z</time>
      </trkpt>
      <trkpt lat="45.45786" lon="3.23337">
        <ele>412</ele>
        <time>2012-11-16T08:48:14Z</time>
      </trkpt>
      <trkpt lat="45.45782" lon="3.23307">
        <ele>412</ele>
        <time>2012-11-16T08:48:18Z</time>
      </trkpt>
      <trkpt lat="45.45773" lon="3.23279">
        <ele>412</ele>
        <time>2012-11-16T08:48:22Z</time>
      </trkpt>
      <trkpt lat="45.45768" lon="3.2325">
        <ele>412</ele>
        <time>2012-11-16T08:48:27Z</time>
      </trkpt>
      <trkpt lat="45.45764" lon="3.23223">
        <ele>412</ele>
        <time>2012-11-16T08:48:31Z</time>
      </trkpt>
      <trkpt lat="45.45761" lon="3.23193">
        <ele>412</ele>
        <time>2012-11-16T08:48:35Z</time>
      </trkpt>
      <trkpt lat="45.45758" lon="3.23166">
        <ele>412</ele>
        <time>2012-11-16T08:48:39Z</time>
      </trkpt>
      <trkpt lat="45.45755" lon="3.23137">
        <ele>412</ele>
        <time>2012-11-16T08:48:43Z</time>
      </trkpt>
      <trkpt lat="45.45743" lon="3.23114">
        <ele>413</ele>
        <time>2012-11-16T08:48:48Z</time>
      </trkpt>
      <trkpt lat="45.45732" lon="3.23091">
        <ele>413</ele>
        <time>2012-11-16T08:48:53Z</time>
      </trkpt>
      <trkpt lat="45.45726" lon="3.23064">
        <ele>413</ele>
        <time>2012-11-16T08:48:57Z</time>
      </trkpt>
      <trkpt lat="45.45719" lon="3.23035">
        <ele>413</ele>
        <time>2012-11-16T08:49:01Z</time>
      </trkpt>
      <trkpt lat="45.45713" lon="3.23009">
        <ele>413</ele>
        <time>2012-11-16T08:49:04Z</time>
      </trkpt>
      <trkpt lat="45.45708" lon="3.22983">
        <ele>413</ele>
        <time>2012-11-16T08:49:08Z</time>
      </trkpt>
      <trkpt lat="45.45704" lon="3.22955">
        <ele>413</ele>
        <time>2012-11-16T08:49:12Z</time>
      </trkpt>
      <trkpt lat="45.45698" lon="3.22925">
        <ele>414</ele>
        <time>2012-11-16T08:49:16Z</time>
      </trkpt>
      <trkpt lat="45.45694" lon="3.22895">
        <ele>414</ele>
        <time>2012-11-16T08:49:20Z</time>
      </trkpt>
      <trkpt lat="45.4569" lon="3.22867">
        <ele>414</ele>
        <time>2012-11-16T08:49:24Z</time>
      </trkpt>
      <trkpt lat="45.45686" lon="3.22839">
        <ele>414</ele>
        <time>2012-11-16T08:49:28Z</time>
      </trkpt>
      <trkpt lat="45.45681" lon="3.22809">
        <ele>414</ele>
        <time>2012-11-16T08:49:32Z</time>
      </trkpt>
      <trkpt lat="45.45675" lon="3.22781">
        <ele>413</ele>
        <time>2012-11-16T08:49:36Z</time>
      </trkpt>
      <trkpt lat="45.45671" lon="3.22752">
        <ele>413</ele>
        <time>2012-11-16T08:49:40Z</time>
      </trkpt>
      <trkpt lat="45.45665" lon="3.22727">
        <ele>413</ele>
        <time>2012-11-16T08:49:44Z</time>
      </trkpt>
      <trkpt lat="45.45661" lon="3.22697">
        <ele>414</ele>
        <time>2012-11-16T08:49:48Z</time>
      </trkpt>
      <trkpt lat="45.45658" lon="3.22666">
        <ele>414</ele>
        <time>2012-11-16T08:49:52Z</time>
      </trkpt>
      <trkpt lat="45.45654" lon="3.22635">
        <ele>414</ele>
        <time>2012-11-16T08:49:56Z</time>
      </trkpt>
      <trkpt lat="45.45647" lon="3.22605">
        <ele>415</ele>
        <time>2012-11-16T08:50:01Z</time>
      </trkpt>
      <trkpt lat="45.45638" lon="3.22582">
        <ele>415</ele>
        <time>2012-11-16T08:50:04Z</time>
      </trkpt>
      <trkpt lat="45.45627" lon="3.22557">
        <ele>415</ele>
        <time>2012-11-16T08:50:08Z</time>
      </trkpt>
      <trkpt lat="45.45612" lon="3.22533">
        <ele>416</ele>
        <time>2012-11-16T08:50:12Z</time>
      </trkpt>
      <trkpt lat="45.45598" lon="3.22508">
        <ele>416</ele>
        <time>2012-11-16T08:50:16Z</time>
      </trkpt>
      <trkpt lat="45.45585" lon="3.22481">
        <ele>416</ele>
        <time>2012-11-16T08:50:20Z</time>
      </trkpt>
      <trkpt lat="45.45571" lon="3.22456">
        <ele>416</ele>
        <time>2012-11-16T08:50:24Z</time>
      </trkpt>
      <trkpt lat="45.45554" lon="3.22441">
        <ele>416</ele>
        <time>2012-11-16T08:50:28Z</time>
      </trkpt>
      <trkpt lat="45.45537" lon="3.22448">
        <ele>416</ele>
        <time>2012-11-16T08:50:31Z</time>
      </trkpt>
      <trkpt lat="45.45519" lon="3.22457">
        <ele>416</ele>
        <time>2012-11-16T08:50:34Z</time>
      </trkpt>
      <trkpt lat="45.45499" lon="3.22466">
        <ele>416</ele>
        <time>2012-11-16T08:50:38Z</time>
      </trkpt>
      <trkpt lat="45.4548" lon="3.22476">
        <ele>417</ele>
        <time>2012-11-16T08:50:42Z</time>
      </trkpt>
      <trkpt lat="45.45459" lon="3.22486">
        <ele>417</ele>
        <time>2012-11-16T08:50:46Z</time>
      </trkpt>
      <trkpt lat="45.45439" lon="3.22497">
        <ele>417</ele>
        <time>2012-11-16T08:50:50Z</time>
      </trkpt>
      <trkpt lat="45.45419" lon="3.22509">
        <ele>418</ele>
        <time>2012-11-16T08:50:54Z</time>
      </trkpt>
      <trkpt lat="45.45399" lon="3.2252">
        <ele>418</ele>
        <time>2012-11-16T08:50:58Z</time>
      </trkpt>
      <trkpt lat="45.4538" lon="3.22531">
        <ele>418</ele>
        <time>2012-11-16T08:51:02Z</time>
      </trkpt>
      <trkpt lat="45.45362" lon="3.22543">
        <ele>418</ele>
        <time>2012-11-16T08:51:06Z</time>
      </trkpt>
      <trkpt lat="45.45342" lon="3.22556">
        <ele>418</ele>
        <time>2012-11-16T08:51:10Z</time>
      </trkpt>
      <trkpt lat="45.45323" lon="3.2257">
        <ele>418</ele>
        <time>2012-11-16T08:51:14Z</time>
      </trkpt>
      <trkpt lat="45.45307" lon="3.22586">
        <ele>418</ele>
        <time>2012-11-16T08:51:18Z</time>
      </trkpt>
      <trkpt lat="45.45291" lon="3.22605">
        <ele>418</ele>
        <time>2012-11-16T08:51:22Z</time>
      </trkpt>
      <trkpt lat="45.45275" lon="3.22627">
        <ele>418</ele>
        <time>2012-11-16T08:51:26Z</time>
      </trkpt>
      <trkpt lat="45.45259" lon="3.22651">
        <ele>418</ele>
        <time>2012-11-16T08:51:30Z</time>
      </trkpt>
      <trkpt lat="45.45245" lon="3.22673">
        <ele>418</ele>
        <time>2012-11-16T08:51:34Z</time>
      </trkpt>
      <trkpt lat="45.45232" lon="3.22696">
        <ele>419</ele>
        <time>2012-11-16T08:51:38Z</time>
      </trkpt>
      <trkpt lat="45.45219" lon="3.22716">
        <ele>419</ele>
        <time>2012-11-16T08:51:42Z</time>
      </trkpt>
      <trkpt lat="45.45211" lon="3.22739">
        <ele>419</ele>
        <time>2012-11-16T08:51:50Z</time>
      </trkpt>
      <trkpt lat="45.45201" lon="3.22761">
        <ele>419</ele>
        <time>2012-11-16T08:51:55Z</time>
      </trkpt>
      <trkpt lat="45.45184" lon="3.22777">
        <ele>420</ele>
        <time>2012-11-16T08:52:00Z</time>
      </trkpt>
      <trkpt lat="45.45168" lon="3.22793">
        <ele>420</ele>
        <time>2012-11-16T08:52:04Z</time>
      </trkpt>
      <trkpt lat="45.45151" lon="3.22809">
        <ele>423</ele>
        <time>2012-11-16T08:52:09Z</time>
      </trkpt>
      <trkpt lat="45.45131" lon="3.22822">
        <ele>424</ele>
        <time>2012-11-16T08:52:14Z</time>
      </trkpt>
      <trkpt lat="45.45112" lon="3.22825">
        <ele>425</ele>
        <time>2012-11-16T08:52:19Z</time>
      </trkpt>
      <trkpt lat="45.45091" lon="3.22821">
        <ele>426</ele>
        <time>2012-11-16T08:52:25Z</time>
      </trkpt>
      <trkpt lat="45.45071" lon="3.2282">
        <ele>430</ele>
        <time>2012-11-16T08:52:31Z</time>
      </trkpt>
      <trkpt lat="45.45052" lon="3.22829">
        <ele>431</ele>
        <time>2012-11-16T08:52:37Z</time>
      </trkpt>
      <trkpt lat="45.45034" lon="3.22825">
        <ele>432</ele>
        <time>2012-11-16T08:52:47Z</time>
      </trkpt>
      <trkpt lat="45.45015" lon="3.2283">
        <ele>434</ele>
        <time>2012-11-16T08:52:55Z</time>
      </trkpt>
      <trkpt lat="45.44997" lon="3.22841">
        <ele>438</ele>
        <time>2012-11-16T08:53:02Z</time>
      </trkpt>
      <trkpt lat="45.44982" lon="3.22857">
        <ele>438</ele>
        <time>2012-11-16T08:53:08Z</time>
      </trkpt>
      <trkpt lat="45.44972" lon="3.22882">
        <ele>439</ele>
        <time>2012-11-16T08:53:15Z</time>
      </trkpt>
      <trkpt lat="45.44964" lon="3.22908">
        <ele>439</ele>
        <time>2012-11-16T08:53:21Z</time>
      </trkpt>
      <trkpt lat="45.44957" lon="3.22936">
        <ele>440</ele>
        <time>2012-11-16T08:53:27Z</time>
      </trkpt>
      <trkpt lat="45.44946" lon="3.22958">
        <ele>440</ele>
        <time>2012-11-16T08:53:32Z</time>
      </trkpt>
      <trkpt lat="45.4493" lon="3.22976">
        <ele>440</ele>
        <time>2012-11-16T08:53:38Z</time>
      </trkpt>
      <trkpt lat="45.44915" lon="3.22994">
        <ele>442</ele>
        <time>2012-11-16T08:53:43Z</time>
      </trkpt>
      <trkpt lat="45.44899" lon="3.23007">
        <ele>442</ele>
        <time>2012-11-16T08:53:49Z</time>
      </trkpt>
      <trkpt lat="45.44883" lon="3.23019">
        <ele>443</ele>
        <time>2012-11-16T08:53:55Z</time>
      </trkpt>
      <trkpt lat="45.44866" lon="3.23036">
        <ele>443</ele>
        <time>2012-11-16T08:54:02Z</time>
      </trkpt>
      <trkpt lat="45.44848" lon="3.23054">
        <ele>443</ele>
        <time>2012-11-16T08:54:08Z</time>
      </trkpt>
      <trkpt lat="45.44832" lon="3.23076">
        <ele>444</ele>
        <time>2012-11-16T08:54:13Z</time>
      </trkpt>
      <trkpt lat="45.44816" lon="3.23097">
        <ele>443</ele>
        <time>2012-11-16T08:54:17Z</time>
      </trkpt>
      <trkpt lat="45.448" lon="3.2312">
        <ele>442</ele>
        <time>2012-11-16T08:54:21Z</time>
      </trkpt>
      <trkpt lat="45.44785" lon="3.23146">
        <ele>442</ele>
        <time>2012-11-16T08:54:25Z</time>
      </trkpt>
      <trkpt lat="45.44771" lon="3.23168">
        <ele>440</ele>
        <time>2012-11-16T08:54:28Z</time>
      </trkpt>
      <trkpt lat="45.44757" lon="3.23186">
        <ele>440</ele>
        <time>2012-11-16T08:54:31Z</time>
      </trkpt>
      <trkpt lat="45.44743" lon="3.23204">
        <ele>441</ele>
        <time>2012-11-16T08:54:34Z</time>
      </trkpt>
      <trkpt lat="45.44731" lon="3.23224">
        <ele>440</ele>
        <time>2012-11-16T08:54:37Z</time>
      </trkpt>
      <trkpt lat="45.44718" lon="3.23245">
        <ele>440</ele>
        <time>2012-11-16T08:54:40Z</time>
      </trkpt>
      <trkpt lat="45.44702" lon="3.23272">
        <ele>441</ele>
        <time>2012-11-16T08:54:44Z</time>
      </trkpt>
      <trkpt lat="45.44691" lon="3.23292">
        <ele>441</ele>
        <time>2012-11-16T08:54:47Z</time>
      </trkpt>
      <trkpt lat="45.44675" lon="3.23316">
        <ele>441</ele>
        <time>2012-11-16T08:54:51Z</time>
      </trkpt>
      <trkpt lat="45.44661" lon="3.23341">
        <ele>442</ele>
        <time>2012-11-16T08:54:55Z</time>
      </trkpt>
      <trkpt lat="45.4465" lon="3.23366">
        <ele>442</ele>
        <time>2012-11-16T08:54:59Z</time>
      </trkpt>
      <trkpt lat="45.44637" lon="3.23388">
        <ele>442</ele>
        <time>2012-11-16T08:55:03Z</time>
      </trkpt>
      <trkpt lat="45.44623" lon="3.23408">
        <ele>443</ele>
        <time>2012-11-16T08:55:07Z</time>
      </trkpt>
      <trkpt lat="45.4461" lon="3.23428">
        <ele>443</ele>
        <time>2012-11-16T08:55:11Z</time>
      </trkpt>
      <trkpt lat="45.44599" lon="3.2345">
        <ele>443</ele>
        <time>2012-11-16T08:55:15Z</time>
      </trkpt>
      <trkpt lat="45.44587" lon="3.23471">
        <ele>442</ele>
        <time>2012-11-16T08:55:19Z</time>
      </trkpt>
      <trkpt lat="45.44576" lon="3.23492">
        <ele>444</ele>
        <time>2012-11-16T08:55:23Z</time>
      </trkpt>
      <trkpt lat="45.44564" lon="3.23514">
        <ele>443</ele>
        <time>2012-11-16T08:55:27Z</time>
      </trkpt>
      <trkpt lat="45.44551" lon="3.23534">
        <ele>443</ele>
        <time>2012-11-16T08:55:31Z</time>
      </trkpt>
      <trkpt lat="45.44539" lon="3.23555">
        <ele>443</ele>
        <time>2012-11-16T08:55:35Z</time>
      </trkpt>
      <trkpt lat="45.44526" lon="3.23577">
        <ele>443</ele>
        <time>2012-11-16T08:55:39Z</time>
      </trkpt>
      <trkpt lat="45.44512" lon="3.236">
        <ele>442</ele>
        <time>2012-11-16T08:55:43Z</time>
      </trkpt>
      <trkpt lat="45.445" lon="3.23623">
        <ele>443</ele>
        <time>2012-11-16T08:55:47Z</time>
      </trkpt>
      <trkpt lat="45.44487" lon="3.23646">
        <ele>443</ele>
        <time>2012-11-16T08:55:51Z</time>
      </trkpt>
      <trkpt lat="45.44473" lon="3.23672">
        <ele>444</ele>
        <time>2012-11-16T08:55:55Z</time>
      </trkpt>
      <trkpt lat="45.44464" lon="3.23696">
        <ele>444</ele>
        <time>2012-11-16T08:55:58Z</time>
      </trkpt>
      <trkpt lat="45.4445" lon="3.2372">
        <ele>444</ele>
        <time>2012-11-16T08:56:02Z</time>
      </trkpt>
      <trkpt lat="45.44433" lon="3.23736">
        <ele>445</ele>
        <time>2012-11-16T08:56:06Z</time>
      </trkpt>
      <trkpt lat="45.44415" lon="3.23744">
        <ele>446</ele>
        <time>2012-11-16T08:56:10Z</time>
      </trkpt>
      <trkpt lat="45.44395" lon="3.23752">
        <ele>447</ele>
        <time>2012-11-16T08:56:14Z</time>
      </trkpt>
      <trkpt lat="45.44377" lon="3.23758">
        <ele>447</ele>
        <time>2012-11-16T08:56:18Z</time>
      </trkpt>
      <trkpt lat="45.4436" lon="3.23765">
        <ele>447</ele>
        <time>2012-11-16T08:56:22Z</time>
      </trkpt>
      <trkpt lat="45.44339" lon="3.23769">
        <ele>447</ele>
        <time>2012-11-16T08:56:26Z</time>
      </trkpt>
      <trkpt lat="45.44322" lon="3.23772">
        <ele>449</ele>
        <time>2012-11-16T08:56:31Z</time>
      </trkpt>
      <trkpt lat="45.44299" lon="3.23777">
        <ele>449</ele>
        <time>2012-11-16T08:56:36Z</time>
      </trkpt>
      <trkpt lat="45.44277" lon="3.23785">
        <ele>450</ele>
        <time>2012-11-16T08:56:41Z</time>
      </trkpt>
      <trkpt lat="45.44258" lon="3.23789">
        <ele>450</ele>
        <time>2012-11-16T08:56:46Z</time>
      </trkpt>
      <trkpt lat="45.44239" lon="3.23788">
        <ele>452</ele>
        <time>2012-11-16T08:56:51Z</time>
      </trkpt>
      <trkpt lat="45.4422" lon="3.23783">
        <ele>453</ele>
        <time>2012-11-16T08:56:56Z</time>
      </trkpt>
      <trkpt lat="45.44202" lon="3.2378">
        <ele>453</ele>
        <time>2012-11-16T08:57:01Z</time>
      </trkpt>
      <trkpt lat="45.44181" lon="3.23775">
        <ele>454</ele>
        <time>2012-11-16T08:57:07Z</time>
      </trkpt>
      <trkpt lat="45.44162" lon="3.23771">
        <ele>456</ele>
        <time>2012-11-16T08:57:12Z</time>
      </trkpt>
      <trkpt lat="45.44141" lon="3.23767">
        <ele>457</ele>
        <time>2012-11-16T08:57:18Z</time>
      </trkpt>
      <trkpt lat="45.44122" lon="3.23761">
        <ele>457</ele>
        <time>2012-11-16T08:57:24Z</time>
      </trkpt>
      <trkpt lat="45.44102" lon="3.23755">
        <ele>458</ele>
        <time>2012-11-16T08:57:30Z</time>
      </trkpt>
      <trkpt lat="45.44083" lon="3.23752">
        <ele>458</ele>
        <time>2012-11-16T08:57:36Z</time>
      </trkpt>
      <trkpt lat="45.44064" lon="3.23746">
        <ele>459</ele>
        <time>2012-11-16T08:57:42Z</time>
      </trkpt>
      <trkpt lat="45.44045" lon="3.2374">
        <ele>460</ele>
        <time>2012-11-16T08:57:48Z</time>
      </trkpt>
      <trkpt lat="45.44026" lon="3.23737">
        <ele>461</ele>
        <time>2012-11-16T08:57:54Z</time>
      </trkpt>
      <trkpt lat="45.44007" lon="3.23733">
        <ele>462</ele>
        <time>2012-11-16T08:58:00Z</time>
      </trkpt>
      <trkpt lat="45.43988" lon="3.23728">
        <ele>465</ele>
        <time>2012-11-16T08:58:06Z</time>
      </trkpt>
      <trkpt lat="45.4397" lon="3.23723">
        <ele>466</ele>
        <time>2012-11-16T08:58:12Z</time>
      </trkpt>
      <trkpt lat="45.43951" lon="3.23716">
        <ele>466</ele>
        <time>2012-11-16T08:58:19Z</time>
      </trkpt>
      <trkpt lat="45.43932" lon="3.23707">
        <ele>467</ele>
        <time>2012-11-16T08:58:24Z</time>
      </trkpt>
      <trkpt lat="45.43915" lon="3.23695">
        <ele>472</ele>
        <time>2012-11-16T08:58:31Z</time>
      </trkpt>
      <trkpt lat="45.43896" lon="3.23688">
        <ele>472</ele>
        <time>2012-11-16T08:58:37Z</time>
      </trkpt>
      <trkpt lat="45.43878" lon="3.23681">
        <ele>473</ele>
        <time>2012-11-16T08:58:44Z</time>
      </trkpt>
      <trkpt lat="45.43861" lon="3.23672">
        <ele>475</ele>
        <time>2012-11-16T08:58:51Z</time>
      </trkpt>
      <trkpt lat="45.43844" lon="3.23657">
        <ele>476</ele>
        <time>2012-11-16T08:58:59Z</time>
      </trkpt>
      <trkpt lat="45.43832" lon="3.23677">
        <ele>480</ele>
        <time>2012-11-16T08:59:07Z</time>
      </trkpt>
      <trkpt lat="45.43821" lon="3.237">
        <ele>481</ele>
        <time>2012-11-16T08:59:14Z</time>
      </trkpt>
      <trkpt lat="45.43801" lon="3.23709">
        <ele>482</ele>
        <time>2012-11-16T08:59:20Z</time>
      </trkpt>
      <trkpt lat="45.43783" lon="3.23717">
        <ele>483</ele>
        <time>2012-11-16T08:59:27Z</time>
      </trkpt>
      <trkpt lat="45.43765" lon="3.23731">
        <ele>484</ele>
        <time>2012-11-16T08:59:35Z</time>
      </trkpt>
      <trkpt lat="45.43748" lon="3.23743">
        <ele>489</ele>
        <time>2012-11-16T08:59:44Z</time>
      </trkpt>
      <trkpt lat="45.43731" lon="3.23751">
        <ele>490</ele>
        <time>2012-11-16T08:59:52Z</time>
      </trkpt>
      <trkpt lat="45.43714" lon="3.23766">
        <ele>492</ele>
        <time>2012-11-16T09:00:00Z</time>
      </trkpt>
      <trkpt lat="45.43703" lon="3.23787">
        <ele>493</ele>
        <time>2012-11-16T09:00:08Z</time>
      </trkpt>
      <trkpt lat="45.43688" lon="3.23802">
        <ele>494</ele>
        <time>2012-11-16T09:00:14Z</time>
      </trkpt>
      <trkpt lat="45.43672" lon="3.23817">
        <ele>495</ele>
        <time>2012-11-16T09:00:21Z</time>
      </trkpt>
      <trkpt lat="45.43658" lon="3.23835">
        <ele>497</ele>
        <time>2012-11-16T09:02:14Z</time>
      </trkpt>
      <trkpt lat="45.43643" lon="3.23851">
        <ele>498</ele>
        <time>2012-11-16T09:02:23Z</time>
      </trkpt>
      <trkpt lat="45.4363" lon="3.23868">
        <ele>498</ele>
        <time>2012-11-16T09:02:31Z</time>
      </trkpt>
      <trkpt lat="45.43618" lon="3.23889">
        <ele>498</ele>
        <time>2012-11-16T09:02:37Z</time>
      </trkpt>
      <trkpt lat="45.43609" lon="3.23918">
        <ele>497</ele>
        <time>2012-11-16T09:02:44Z</time>
      </trkpt>
      <trkpt lat="45.43605" lon="3.23943">
        <ele>497</ele>
        <time>2012-11-16T09:02:50Z</time>
      </trkpt>
      <trkpt lat="45.43605" lon="3.23976">
        <ele>496</ele>
        <time>2012-11-16T09:02:56Z</time>
      </trkpt>
      <trkpt lat="45.43608" lon="3.24002">
        <ele>497</ele>
        <time>2012-11-16T09:03:01Z</time>
      </trkpt>
      <trkpt lat="45.43609" lon="3.24032">
        <ele>496</ele>
        <time>2012-11-16T09:03:06Z</time>
      </trkpt>
      <trkpt lat="45.43596" lon="3.24055">
        <ele>497</ele>
        <time>2012-11-16T09:03:12Z</time>
      </trkpt>
      <trkpt lat="45.43577" lon="3.24066">
        <ele>502</ele>
        <time>2012-11-16T09:03:18Z</time>
      </trkpt>
      <trkpt lat="45.43558" lon="3.24068">
        <ele>503</ele>
        <time>2012-11-16T09:03:22Z</time>
      </trkpt>
      <trkpt lat="45.43539" lon="3.24072">
        <ele>504</ele>
        <time>2012-11-16T09:03:29Z</time>
      </trkpt>
      <trkpt lat="45.43519" lon="3.24077">
        <ele>505</ele>
        <time>2012-11-16T09:03:35Z</time>
      </trkpt>
      <trkpt lat="45.43501" lon="3.24086">
        <ele>506</ele>
        <time>2012-11-16T09:03:42Z</time>
      </trkpt>
      <trkpt lat="45.43483" lon="3.24096">
        <ele>508</ele>
        <time>2012-11-16T09:03:49Z</time>
      </trkpt>
      <trkpt lat="45.43466" lon="3.2411">
        <ele>509</ele>
        <time>2012-11-16T09:03:57Z</time>
      </trkpt>
      <trkpt lat="45.43447" lon="3.24125">
        <ele>510</ele>
        <time>2012-11-16T09:04:05Z</time>
      </trkpt>
      <trkpt lat="45.43434" lon="3.24147">
        <ele>510</ele>
        <time>2012-11-16T09:04:12Z</time>
      </trkpt>
      <trkpt lat="45.43417" lon="3.24167">
        <ele>511</ele>
        <time>2012-11-16T09:04:18Z</time>
      </trkpt>
      <trkpt lat="45.43402" lon="3.24187">
        <ele>513</ele>
        <time>2012-11-16T09:04:24Z</time>
      </trkpt>
      <trkpt lat="45.43387" lon="3.24207">
        <ele>513</ele>
        <time>2012-11-16T09:04:30Z</time>
      </trkpt>
      <trkpt lat="45.43369" lon="3.24222">
        <ele>514</ele>
        <time>2012-11-16T09:04:36Z</time>
      </trkpt>
      <trkpt lat="45.43351" lon="3.24234">
        <ele>514</ele>
        <time>2012-11-16T09:04:42Z</time>
      </trkpt>
      <trkpt lat="45.43332" lon="3.24244">
        <ele>516</ele>
        <time>2012-11-16T09:04:49Z</time>
      </trkpt>
      <trkpt lat="45.4331" lon="3.24247">
        <ele>519</ele>
        <time>2012-11-16T09:04:56Z</time>
      </trkpt>
      <trkpt lat="45.43291" lon="3.24257">
        <ele>519</ele>
        <time>2012-11-16T09:05:03Z</time>
      </trkpt>
      <trkpt lat="45.43273" lon="3.24267">
        <ele>520</ele>
        <time>2012-11-16T09:05:10Z</time>
      </trkpt>
      <trkpt lat="45.43255" lon="3.24279">
        <ele>520</ele>
        <time>2012-11-16T09:05:18Z</time>
      </trkpt>
      <trkpt lat="45.43237" lon="3.24292">
        <ele>525</ele>
        <time>2012-11-16T09:05:28Z</time>
      </trkpt>
      <trkpt lat="45.43219" lon="3.24303">
        <ele>525</ele>
        <time>2012-11-16T09:05:35Z</time>
      </trkpt>
      <trkpt lat="45.43201" lon="3.24311">
        <ele>526</ele>
        <time>2012-11-16T09:05:42Z</time>
      </trkpt>
      <trkpt lat="45.43184" lon="3.24322">
        <ele>527</ele>
        <time>2012-11-16T09:05:49Z</time>
      </trkpt>
      <trkpt lat="45.43167" lon="3.24333">
        <ele>528</ele>
        <time>2012-11-16T09:05:56Z</time>
      </trkpt>
      <trkpt lat="45.4315" lon="3.2434">
        <ele>529</ele>
        <time>2012-11-16T09:06:03Z</time>
      </trkpt>
      <trkpt lat="45.43133" lon="3.2435">
        <ele>531</ele>
        <time>2012-11-16T09:06:10Z</time>
      </trkpt>
      <trkpt lat="45.43115" lon="3.2436">
        <ele>532</ele>
        <time>2012-11-16T09:06:17Z</time>
      </trkpt>
      <trkpt lat="45.43098" lon="3.24369">
        <ele>532</ele>
        <time>2012-11-16T09:06:25Z</time>
      </trkpt>
      <trkpt lat="45.43079" lon="3.24377">
        <ele>539</ele>
        <time>2012-11-16T09:06:35Z</time>
      </trkpt>
      <trkpt lat="45.4306" lon="3.24378">
        <ele>539</ele>
        <time>2012-11-16T09:06:44Z</time>
      </trkpt>
      <trkpt lat="45.43042" lon="3.24381">
        <ele>540</ele>
        <time>2012-11-16T09:06:52Z</time>
      </trkpt>
      <trkpt lat="45.43024" lon="3.24375">
        <ele>542</ele>
        <time>2012-11-16T09:07:03Z</time>
      </trkpt>
      <trkpt lat="45.43005" lon="3.24371">
        <ele>542</ele>
        <time>2012-11-16T09:07:12Z</time>
      </trkpt>
      <trkpt lat="45.42987" lon="3.24361">
        <ele>547</ele>
        <time>2012-11-16T09:07:21Z</time>
      </trkpt>
      <trkpt lat="45.42969" lon="3.24355">
        <ele>548</ele>
        <time>2012-11-16T09:07:30Z</time>
      </trkpt>
      <trkpt lat="45.4295" lon="3.24347">
        <ele>548</ele>
        <time>2012-11-16T09:07:39Z</time>
      </trkpt>
      <trkpt lat="45.42933" lon="3.24335">
        <ele>549</ele>
        <time>2012-11-16T09:07:46Z</time>
      </trkpt>
      <trkpt lat="45.42915" lon="3.24326">
        <ele>552</ele>
        <time>2012-11-16T09:07:53Z</time>
      </trkpt>
      <trkpt lat="45.42899" lon="3.24314">
        <ele>554</ele>
        <time>2012-11-16T09:08:01Z</time>
      </trkpt>
      <trkpt lat="45.42879" lon="3.24309">
        <ele>554</ele>
        <time>2012-11-16T09:08:07Z</time>
      </trkpt>
      <trkpt lat="45.42863" lon="3.24295">
        <ele>555</ele>
        <time>2012-11-16T09:08:14Z</time>
      </trkpt>
      <trkpt lat="45.42847" lon="3.24281">
        <ele>555</ele>
        <time>2012-11-16T09:08:21Z</time>
      </trkpt>
      <trkpt lat="45.42834" lon="3.24259">
        <ele>557</ele>
        <time>2012-11-16T09:08:30Z</time>
      </trkpt>
      <trkpt lat="45.42817" lon="3.24248">
        <ele>559</ele>
        <time>2012-11-16T09:08:37Z</time>
      </trkpt>
      <trkpt lat="45.42805" lon="3.24226">
        <ele>560</ele>
        <time>2012-11-16T09:08:47Z</time>
      </trkpt>
      <trkpt lat="45.42785" lon="3.24219">
        <ele>561</ele>
        <time>2012-11-16T09:08:53Z</time>
      </trkpt>
      <trkpt lat="45.42767" lon="3.24212">
        <ele>561</ele>
        <time>2012-11-16T09:09:02Z</time>
      </trkpt>
      <trkpt lat="45.42748" lon="3.24221">
        <ele>564</ele>
        <time>2012-11-16T09:09:12Z</time>
      </trkpt>
      <trkpt lat="45.42726" lon="3.24231">
        <ele>564</ele>
        <time>2012-11-16T09:09:17Z</time>
      </trkpt>
      <trkpt lat="45.42717" lon="3.24258">
        <ele>558</ele>
        <time>2012-11-16T09:09:20Z</time>
      </trkpt>
      <trkpt lat="45.42702" lon="3.24285">
        <ele>557</ele>
        <time>2012-11-16T09:09:23Z</time>
      </trkpt>
      <trkpt lat="45.42691" lon="3.24308">
        <ele>556</ele>
        <time>2012-11-16T09:09:25Z</time>
      </trkpt>
      <trkpt lat="45.4268" lon="3.2433">
        <ele>554</ele>
        <time>2012-11-16T09:09:27Z</time>
      </trkpt>
      <trkpt lat="45.42669" lon="3.24354">
        <ele>550</ele>
        <time>2012-11-16T09:09:29Z</time>
      </trkpt>
      <trkpt lat="45.42656" lon="3.24382">
        <ele>548</ele>
        <time>2012-11-16T09:09:31Z</time>
      </trkpt>
      <trkpt lat="45.42642" lon="3.24408">
        <ele>546</ele>
        <time>2012-11-16T09:09:33Z</time>
      </trkpt>
      <trkpt lat="45.42625" lon="3.24434">
        <ele>540</ele>
        <time>2012-11-16T09:09:35Z</time>
      </trkpt>
      <trkpt lat="45.4261" lon="3.24457">
        <ele>539</ele>
        <time>2012-11-16T09:09:37Z</time>
      </trkpt>
      <trkpt lat="45.42593" lon="3.2448">
        <ele>537</ele>
        <time>2012-11-16T09:09:39Z</time>
      </trkpt>
      <trkpt lat="45.42581" lon="3.24502">
        <ele>534</ele>
        <time>2012-11-16T09:09:41Z</time>
      </trkpt>
      <trkpt lat="45.42565" lon="3.24525">
        <ele>532</ele>
        <time>2012-11-16T09:09:44Z</time>
      </trkpt>
      <trkpt lat="45.42548" lon="3.2454">
        <ele>531</ele>
        <time>2012-11-16T09:09:47Z</time>
      </trkpt>
      <trkpt lat="45.42529" lon="3.24562">
        <ele>531</ele>
        <time>2012-11-16T09:09:51Z</time>
      </trkpt>
      <trkpt lat="45.4251" lon="3.24569">
        <ele>530</ele>
        <time>2012-11-16T09:09:54Z</time>
      </trkpt>
      <trkpt lat="45.42492" lon="3.24579">
        <ele>529</ele>
        <time>2012-11-16T09:09:57Z</time>
      </trkpt>
      <trkpt lat="45.42472" lon="3.24584">
        <ele>525</ele>
        <time>2012-11-16T09:10:00Z</time>
      </trkpt>
      <trkpt lat="45.42449" lon="3.24592">
        <ele>524</ele>
        <time>2012-11-16T09:10:03Z</time>
      </trkpt>
      <trkpt lat="45.42426" lon="3.24596">
        <ele>524</ele>
        <time>2012-11-16T09:10:06Z</time>
      </trkpt>
      <trkpt lat="45.42402" lon="3.24602">
        <ele>523</ele>
        <time>2012-11-16T09:10:09Z</time>
      </trkpt>
      <trkpt lat="45.42379" lon="3.24611">
        <ele>523</ele>
        <time>2012-11-16T09:10:12Z</time>
      </trkpt>
      <trkpt lat="45.42358" lon="3.24625">
        <ele>522</ele>
        <time>2012-11-16T09:10:15Z</time>
      </trkpt>
      <trkpt lat="45.4234" lon="3.24648">
        <ele>520</ele>
        <time>2012-11-16T09:10:18Z</time>
      </trkpt>
      <trkpt lat="45.42324" lon="3.24673">
        <ele>517</ele>
        <time>2012-11-16T09:10:21Z</time>
      </trkpt>
      <trkpt lat="45.42303" lon="3.24698">
        <ele>515</ele>
        <time>2012-11-16T09:10:24Z</time>
      </trkpt>
      <trkpt lat="45.42289" lon="3.24715">
        <ele>514</ele>
        <time>2012-11-16T09:10:26Z</time>
      </trkpt>
      <trkpt lat="45.42272" lon="3.24726">
        <ele>513</ele>
        <time>2012-11-16T09:10:28Z</time>
      </trkpt>
      <trkpt lat="45.42247" lon="3.24735">
        <ele>510</ele>
        <time>2012-11-16T09:10:31Z</time>
      </trkpt>
      <trkpt lat="45.42222" lon="3.24747">
        <ele>510</ele>
        <time>2012-11-16T09:10:34Z</time>
      </trkpt>
      <trkpt lat="45.42205" lon="3.2476">
        <ele>503</ele>
        <time>2012-11-16T09:10:36Z</time>
      </trkpt>
      <trkpt lat="45.42189" lon="3.24776">
        <ele>502</ele>
        <time>2012-11-16T09:10:38Z</time>
      </trkpt>
      <trkpt lat="45.42172" lon="3.24795">
        <ele>500</ele>
        <time>2012-11-16T09:10:40Z</time>
      </trkpt>
      <trkpt lat="45.42156" lon="3.24813">
        <ele>497</ele>
        <time>2012-11-16T09:10:42Z</time>
      </trkpt>
      <trkpt lat="45.4214" lon="3.24828">
        <ele>496</ele>
        <time>2012-11-16T09:10:43Z</time>
      </trkpt>
      <trkpt lat="45.42124" lon="3.24845">
        <ele>493</ele>
        <time>2012-11-16T09:10:46Z</time>
      </trkpt>
      <trkpt lat="45.42104" lon="3.24867">
        <ele>492</ele>
        <time>2012-11-16T09:10:49Z</time>
      </trkpt>
      <trkpt lat="45.42083" lon="3.24886">
        <ele>491</ele>
        <time>2012-11-16T09:10:52Z</time>
      </trkpt>
      <trkpt lat="45.42062" lon="3.24897">
        <ele>491</ele>
        <time>2012-11-16T09:10:55Z</time>
      </trkpt>
      <trkpt lat="45.42041" lon="3.24906">
        <ele>491</ele>
        <time>2012-11-16T09:10:58Z</time>
      </trkpt>
      <trkpt lat="45.42024" lon="3.24916">
        <ele>491</ele>
        <time>2012-11-16T09:11:00Z</time>
      </trkpt>
      <trkpt lat="45.42005" lon="3.24929">
        <ele>490</ele>
        <time>2012-11-16T09:11:04Z</time>
      </trkpt>
      <trkpt lat="45.41982" lon="3.2494">
        <ele>490</ele>
        <time>2012-11-16T09:11:08Z</time>
      </trkpt>
      <trkpt lat="45.4196" lon="3.24951">
        <ele>490</ele>
        <time>2012-11-16T09:11:12Z</time>
      </trkpt>
      <trkpt lat="45.41941" lon="3.24963">
        <ele>490</ele>
        <time>2012-11-16T09:11:16Z</time>
      </trkpt>
      <trkpt lat="45.41924" lon="3.24971">
        <ele>489</ele>
        <time>2012-11-16T09:11:22Z</time>
      </trkpt>
      <trkpt lat="45.41908" lon="3.24987">
        <ele>491</ele>
        <time>2012-11-16T09:11:27Z</time>
      </trkpt>
      <trkpt lat="45.41893" lon="3.25004">
        <ele>491</ele>
        <time>2012-11-16T09:11:32Z</time>
      </trkpt>
      <trkpt lat="45.41873" lon="3.25018">
        <ele>492</ele>
        <time>2012-11-16T09:11:37Z</time>
      </trkpt>
      <trkpt lat="45.41855" lon="3.25032">
        <ele>493</ele>
        <time>2012-11-16T09:11:43Z</time>
      </trkpt>
      <trkpt lat="45.41842" lon="3.25049">
        <ele>493</ele>
        <time>2012-11-16T09:11:47Z</time>
      </trkpt>
      <trkpt lat="45.41828" lon="3.25069">
        <ele>496</ele>
        <time>2012-11-16T09:11:53Z</time>
      </trkpt>
      <trkpt lat="45.41817" lon="3.2509">
        <ele>496</ele>
        <time>2012-11-16T09:11:58Z</time>
      </trkpt>
      <trkpt lat="45.41804" lon="3.2511">
        <ele>497</ele>
        <time>2012-11-16T09:12:03Z</time>
      </trkpt>
      <trkpt lat="45.41793" lon="3.2513">
        <ele>497</ele>
        <time>2012-11-16T09:12:08Z</time>
      </trkpt>
      <trkpt lat="45.41782" lon="3.25152">
        <ele>498</ele>
        <time>2012-11-16T09:12:14Z</time>
      </trkpt>
      <trkpt lat="45.41768" lon="3.25133">
        <ele>498</ele>
        <time>2012-11-16T09:12:22Z</time>
      </trkpt>
      <trkpt lat="45.41759" lon="3.25111">
        <ele>498</ele>
        <time>2012-11-16T09:12:28Z</time>
      </trkpt>
      <trkpt lat="45.41749" lon="3.25086">
        <ele>500</ele>
        <time>2012-11-16T09:12:35Z</time>
      </trkpt>
      <trkpt lat="45.4174" lon="3.25061">
        <ele>501</ele>
        <time>2012-11-16T09:12:42Z</time>
      </trkpt>
      <trkpt lat="45.4173" lon="3.25036">
        <ele>502</ele>
        <time>2012-11-16T09:12:49Z</time>
      </trkpt>
      <trkpt lat="45.41721" lon="3.25014">
        <ele>502</ele>
        <time>2012-11-16T09:12:55Z</time>
      </trkpt>
      <trkpt lat="45.41711" lon="3.24992">
        <ele>503</ele>
        <time>2012-11-16T09:13:01Z</time>
      </trkpt>
      <trkpt lat="45.41701" lon="3.24969">
        <ele>503</ele>
        <time>2012-11-16T09:13:07Z</time>
      </trkpt>
      <trkpt lat="45.41692" lon="3.24947">
        <ele>504</ele>
        <time>2012-11-16T09:13:13Z</time>
      </trkpt>
      <trkpt lat="45.41679" lon="3.24924">
        <ele>505</ele>
        <time>2012-11-16T09:13:19Z</time>
      </trkpt>
      <trkpt lat="45.41667" lon="3.24902">
        <ele>506</ele>
        <time>2012-11-16T09:13:26Z</time>
      </trkpt>
      <trkpt lat="45.41655" lon="3.24879">
        <ele>508</ele>
        <time>2012-11-16T09:13:33Z</time>
      </trkpt>
      <trkpt lat="45.41643" lon="3.24859">
        <ele>508</ele>
        <time>2012-11-16T09:13:39Z</time>
      </trkpt>
      <trkpt lat="45.41632" lon="3.24838">
        <ele>509</ele>
        <time>2012-11-16T09:13:45Z</time>
      </trkpt>
      <trkpt lat="45.41621" lon="3.24817">
        <ele>510</ele>
        <time>2012-11-16T09:13:51Z</time>
      </trkpt>
      <trkpt lat="45.41609" lon="3.24793">
        <ele>511</ele>
        <time>2012-11-16T09:13:58Z</time>
      </trkpt>
      <trkpt lat="45.41597" lon="3.24769">
        <ele>511</ele>
        <time>2012-11-16T09:14:05Z</time>
      </trkpt>
      <trkpt lat="45.41586" lon="3.24744">
        <ele>512</ele>
        <time>2012-11-16T09:14:12Z</time>
      </trkpt>
      <trkpt lat="45.41576" lon="3.24721">
        <ele>513</ele>
        <time>2012-11-16T09:14:18Z</time>
      </trkpt>
      <trkpt lat="45.41564" lon="3.24697">
        <ele>514</ele>
        <time>2012-11-16T09:14:25Z</time>
      </trkpt>
      <trkpt lat="45.41555" lon="3.24671">
        <ele>514</ele>
        <time>2012-11-16T09:14:32Z</time>
      </trkpt>
      <trkpt lat="45.41551" lon="3.24643">
        <ele>516</ele>
        <time>2012-11-16T09:14:38Z</time>
      </trkpt>
      <trkpt lat="45.41547" lon="3.24617">
        <ele>516</ele>
        <time>2012-11-16T09:14:44Z</time>
      </trkpt>
      <trkpt lat="45.41526" lon="3.24617">
        <ele>516</ele>
        <time>2012-11-16T09:14:51Z</time>
      </trkpt>
      <trkpt lat="45.41507" lon="3.24622">
        <ele>516</ele>
        <time>2012-11-16T09:14:57Z</time>
      </trkpt>
      <trkpt lat="45.41488" lon="3.24625">
        <ele>517</ele>
        <time>2012-11-16T09:15:03Z</time>
      </trkpt>
      <trkpt lat="45.41469" lon="3.24629">
        <ele>517</ele>
        <time>2012-11-16T09:15:09Z</time>
      </trkpt>
      <trkpt lat="45.4145" lon="3.24635">
        <ele>517</ele>
        <time>2012-11-16T09:15:15Z</time>
      </trkpt>
      <trkpt lat="45.4143" lon="3.2464">
        <ele>517</ele>
        <time>2012-11-16T09:15:20Z</time>
      </trkpt>
      <trkpt lat="45.41409" lon="3.24641">
        <ele>517</ele>
        <time>2012-11-16T09:15:27Z</time>
      </trkpt>
      <trkpt lat="45.41389" lon="3.24641">
        <ele>517</ele>
        <time>2012-11-16T09:15:31Z</time>
      </trkpt>
      <trkpt lat="45.41367" lon="3.24641">
        <ele>517</ele>
        <time>2012-11-16T09:15:37Z</time>
      </trkpt>
      <trkpt lat="45.41349" lon="3.24642">
        <ele>517</ele>
        <time>2012-11-16T09:15:41Z</time>
      </trkpt>
      <trkpt lat="45.41331" lon="3.2464">
        <ele>516</ele>
        <time>2012-11-16T09:15:45Z</time>
      </trkpt>
      <trkpt lat="45.41309" lon="3.24636">
        <ele>516</ele>
        <time>2012-11-16T09:15:50Z</time>
      </trkpt>
      <trkpt lat="45.4129" lon="3.24633">
        <ele>516</ele>
        <time>2012-11-16T09:15:55Z</time>
      </trkpt>
      <trkpt lat="45.41269" lon="3.2463">
        <ele>516</ele>
        <time>2012-11-16T09:16:00Z</time>
      </trkpt>
      <trkpt lat="45.41248" lon="3.24626">
        <ele>515</ele>
        <time>2012-11-16T09:16:05Z</time>
      </trkpt>
      <trkpt lat="45.41232" lon="3.24609">
        <ele>515</ele>
        <time>2012-11-16T09:16:10Z</time>
      </trkpt>
      <trkpt lat="45.41224" lon="3.24584">
        <ele>515</ele>
        <time>2012-11-16T09:16:15Z</time>
      </trkpt>
      <trkpt lat="45.41217" lon="3.24559">
        <ele>517</ele>
        <time>2012-11-16T09:16:20Z</time>
      </trkpt>
      <trkpt lat="45.41206" lon="3.24536">
        <ele>518</ele>
        <time>2012-11-16T09:16:25Z</time>
      </trkpt>
      <trkpt lat="45.41187" lon="3.24534">
        <ele>518</ele>
        <time>2012-11-16T09:16:29Z</time>
      </trkpt>
      <trkpt lat="45.41166" lon="3.24536">
        <ele>516</ele>
        <time>2012-11-16T09:16:33Z</time>
      </trkpt>
      <trkpt lat="45.41145" lon="3.24532">
        <ele>516</ele>
        <time>2012-11-16T09:16:38Z</time>
      </trkpt>
      <trkpt lat="45.41129" lon="3.24548">
        <ele>515</ele>
        <time>2012-11-16T09:16:42Z</time>
      </trkpt>
      <trkpt lat="45.41115" lon="3.24574">
        <ele>514</ele>
        <time>2012-11-16T09:16:46Z</time>
      </trkpt>
      <trkpt lat="45.41097" lon="3.24608">
        <ele>512</ele>
        <time>2012-11-16T09:16:49Z</time>
      </trkpt>
      <trkpt lat="45.41084" lon="3.24634">
        <ele>512</ele>
        <time>2012-11-16T09:16:53Z</time>
      </trkpt>
      <trkpt lat="45.41069" lon="3.24653">
        <ele>513</ele>
        <time>2012-11-16T09:16:55Z</time>
      </trkpt>
      <trkpt lat="45.41055" lon="3.24669">
        <ele>514</ele>
        <time>2012-11-16T09:16:59Z</time>
      </trkpt>
      <trkpt lat="45.41039" lon="3.2469">
        <ele>515</ele>
        <time>2012-11-16T09:17:03Z</time>
      </trkpt>
      <trkpt lat="45.41025" lon="3.24711">
        <ele>516</ele>
        <time>2012-11-16T09:17:08Z</time>
      </trkpt>
      <trkpt lat="45.41012" lon="3.2473">
        <ele>517</ele>
        <time>2012-11-16T09:17:13Z</time>
      </trkpt>
      <trkpt lat="45.40998" lon="3.24747">
        <ele>519</ele>
        <time>2012-11-16T09:17:18Z</time>
      </trkpt>
      <trkpt lat="45.40984" lon="3.2477">
        <ele>521</ele>
        <time>2012-11-16T09:17:24Z</time>
      </trkpt>
      <trkpt lat="45.40946" lon="3.24847">
        <ele>522</ele>
        <time>2012-11-16T09:17:42Z</time>
      </trkpt>
      <trkpt lat="45.40932" lon="3.24866">
        <ele>522</ele>
        <time>2012-11-16T09:17:49Z</time>
      </trkpt>
      <trkpt lat="45.40914" lon="3.2488">
        <ele>525</ele>
        <time>2012-11-16T09:17:55Z</time>
      </trkpt>
      <trkpt lat="45.40897" lon="3.24892">
        <ele>525</ele>
        <time>2012-11-16T09:18:01Z</time>
      </trkpt>
      <trkpt lat="45.40882" lon="3.24907">
        <ele>525</ele>
        <time>2012-11-16T09:18:06Z</time>
      </trkpt>
      <trkpt lat="45.40862" lon="3.24915">
        <ele>526</ele>
        <time>2012-11-16T09:18:12Z</time>
      </trkpt>
      <trkpt lat="45.40848" lon="3.24932">
        <ele>526</ele>
        <time>2012-11-16T09:18:17Z</time>
      </trkpt>
      <trkpt lat="45.40835" lon="3.24955">
        <ele>526</ele>
        <time>2012-11-16T09:18:22Z</time>
      </trkpt>
      <trkpt lat="45.40826" lon="3.24979">
        <ele>529</ele>
        <time>2012-11-16T09:18:27Z</time>
      </trkpt>
      <trkpt lat="45.40817" lon="3.25001">
        <ele>529</ele>
        <time>2012-11-16T09:18:32Z</time>
      </trkpt>
      <trkpt lat="45.40806" lon="3.25027">
        <ele>529</ele>
        <time>2012-11-16T09:18:38Z</time>
      </trkpt>
      <trkpt lat="45.40791" lon="3.25042">
        <ele>529</ele>
        <time>2012-11-16T09:18:44Z</time>
      </trkpt>
      <trkpt lat="45.40783" lon="3.25016">
        <ele>530</ele>
        <time>2012-11-16T09:18:50Z</time>
      </trkpt>
      <trkpt lat="45.40776" lon="3.24991">
        <ele>531</ele>
        <time>2012-11-16T09:18:56Z</time>
      </trkpt>
      <trkpt lat="45.40769" lon="3.24967">
        <ele>531</ele>
        <time>2012-11-16T09:19:01Z</time>
      </trkpt>
      <trkpt lat="45.40763" lon="3.24939">
        <ele>532</ele>
        <time>2012-11-16T09:19:07Z</time>
      </trkpt>
      <trkpt lat="45.40758" lon="3.24911">
        <ele>533</ele>
        <time>2012-11-16T09:19:13Z</time>
      </trkpt>
      <trkpt lat="45.40754" lon="3.24885">
        <ele>533</ele>
        <time>2012-11-16T09:19:19Z</time>
      </trkpt>
      <trkpt lat="45.40751" lon="3.24859">
        <ele>533</ele>
        <time>2012-11-16T09:19:25Z</time>
      </trkpt>
      <trkpt lat="45.40748" lon="3.24831">
        <ele>537</ele>
        <time>2012-11-16T09:19:32Z</time>
      </trkpt>
      <trkpt lat="45.40745" lon="3.24805">
        <ele>542</ele>
        <time>2012-11-16T09:19:39Z</time>
      </trkpt>
      <trkpt lat="45.4074" lon="3.24779">
        <ele>543</ele>
        <time>2012-11-16T09:19:46Z</time>
      </trkpt>
      <trkpt lat="45.40739" lon="3.24751">
        <ele>543</ele>
        <time>2012-11-16T09:19:54Z</time>
      </trkpt>
      <trkpt lat="45.40735" lon="3.24726">
        <ele>547</ele>
        <time>2012-11-16T09:20:00Z</time>
      </trkpt>
      <trkpt lat="45.40731" lon="3.24699">
        <ele>548</ele>
        <time>2012-11-16T09:20:09Z</time>
      </trkpt>
      <trkpt lat="45.40726" lon="3.24673">
        <ele>548</ele>
        <time>2012-11-16T09:20:17Z</time>
      </trkpt>
      <trkpt lat="45.40721" lon="3.24647">
        <ele>550</ele>
        <time>2012-11-16T09:20:24Z</time>
      </trkpt>
      <trkpt lat="45.40718" lon="3.24622">
        <ele>551</ele>
        <time>2012-11-16T09:20:32Z</time>
      </trkpt>
      <trkpt lat="45.40711" lon="3.24597">
        <ele>551</ele>
        <time>2012-11-16T09:20:39Z</time>
      </trkpt>
      <trkpt lat="45.40703" lon="3.24572">
        <ele>552</ele>
        <time>2012-11-16T09:20:46Z</time>
      </trkpt>
      <trkpt lat="45.40694" lon="3.24546">
        <ele>552</ele>
        <time>2012-11-16T09:20:54Z</time>
      </trkpt>
      <trkpt lat="45.40685" lon="3.24522">
        <ele>552</ele>
        <time>2012-11-16T09:21:01Z</time>
      </trkpt>
      <trkpt lat="45.40673" lon="3.24503">
        <ele>555</ele>
        <time>2012-11-16T09:21:08Z</time>
      </trkpt>
      <trkpt lat="45.40656" lon="3.24491">
        <ele>557</ele>
        <time>2012-11-16T09:21:15Z</time>
      </trkpt>
      <trkpt lat="45.4064" lon="3.24477">
        <ele>559</ele>
        <time>2012-11-16T09:21:22Z</time>
      </trkpt>
      <trkpt lat="45.40622" lon="3.24465">
        <ele>559</ele>
        <time>2012-11-16T09:21:29Z</time>
      </trkpt>
      <trkpt lat="45.40604" lon="3.24451">
        <ele>560</ele>
        <time>2012-11-16T09:21:36Z</time>
      </trkpt>
      <trkpt lat="45.40586" lon="3.2444">
        <ele>560</ele>
        <time>2012-11-16T09:21:43Z</time>
      </trkpt>
      <trkpt lat="45.40568" lon="3.24426">
        <ele>565</ele>
        <time>2012-11-16T09:21:50Z</time>
      </trkpt>
      <trkpt lat="45.40548" lon="3.24415">
        <ele>561</ele>
        <time>2012-11-16T09:21:57Z</time>
      </trkpt>
      <trkpt lat="45.40529" lon="3.24407">
        <ele>562</ele>
        <time>2012-11-16T09:22:03Z</time>
      </trkpt>
      <trkpt lat="45.40511" lon="3.24397">
        <ele>563</ele>
        <time>2012-11-16T09:22:09Z</time>
      </trkpt>
      <trkpt lat="45.40492" lon="3.24388">
        <ele>565</ele>
        <time>2012-11-16T09:22:15Z</time>
      </trkpt>
      <trkpt lat="45.40472" lon="3.24382">
        <ele>565</ele>
        <time>2012-11-16T09:22:21Z</time>
      </trkpt>
      <trkpt lat="45.40454" lon="3.2438">
        <ele>565</ele>
        <time>2012-11-16T09:22:26Z</time>
      </trkpt>
      <trkpt lat="45.40433" lon="3.24377">
        <ele>566</ele>
        <time>2012-11-16T09:22:32Z</time>
      </trkpt>
      <trkpt lat="45.40414" lon="3.24373">
        <ele>567</ele>
        <time>2012-11-16T09:22:37Z</time>
      </trkpt>
      <trkpt lat="45.40392" lon="3.24371">
        <ele>567</ele>
        <time>2012-11-16T09:22:42Z</time>
      </trkpt>
      <trkpt lat="45.40372" lon="3.24369">
        <ele>566</ele>
        <time>2012-11-16T09:22:46Z</time>
      </trkpt>
      <trkpt lat="45.4035" lon="3.24369">
        <ele>566</ele>
        <time>2012-11-16T09:22:50Z</time>
      </trkpt>
      <trkpt lat="45.40326" lon="3.24371">
        <ele>565</ele>
        <time>2012-11-16T09:22:54Z</time>
      </trkpt>
      <trkpt lat="45.40303" lon="3.24371">
        <ele>565</ele>
        <time>2012-11-16T09:22:58Z</time>
      </trkpt>
      <trkpt lat="45.40282" lon="3.24375">
        <ele>565</ele>
        <time>2012-11-16T09:23:02Z</time>
      </trkpt>
      <trkpt lat="45.4026" lon="3.24382">
        <ele>566</ele>
        <time>2012-11-16T09:23:06Z</time>
      </trkpt>
      <trkpt lat="45.40238" lon="3.24392">
        <ele>565</ele>
        <time>2012-11-16T09:23:10Z</time>
      </trkpt>
      <trkpt lat="45.40218" lon="3.24399">
        <ele>565</ele>
        <time>2012-11-16T09:23:15Z</time>
      </trkpt>
      <trkpt lat="45.40198" lon="3.24405">
        <ele>564</ele>
        <time>2012-11-16T09:23:20Z</time>
      </trkpt>
      <trkpt lat="45.4018" lon="3.24408">
        <ele>565</ele>
        <time>2012-11-16T09:23:24Z</time>
      </trkpt>
      <trkpt lat="45.40158" lon="3.24408">
        <ele>564</ele>
        <time>2012-11-16T09:23:28Z</time>
      </trkpt>
      <trkpt lat="45.4014" lon="3.24405">
        <ele>562</ele>
        <time>2012-11-16T09:23:31Z</time>
      </trkpt>
      <trkpt lat="45.40121" lon="3.24405">
        <ele>562</ele>
        <time>2012-11-16T09:23:34Z</time>
      </trkpt>
      <trkpt lat="45.40102" lon="3.24403">
        <ele>562</ele>
        <time>2012-11-16T09:23:37Z</time>
      </trkpt>
      <trkpt lat="45.40079" lon="3.24402">
        <ele>562</ele>
        <time>2012-11-16T09:23:41Z</time>
      </trkpt>
      <trkpt lat="45.4006" lon="3.24401">
        <ele>561</ele>
        <time>2012-11-16T09:23:45Z</time>
      </trkpt>
      <trkpt lat="45.40041" lon="3.24395">
        <ele>561</ele>
        <time>2012-11-16T09:23:49Z</time>
      </trkpt>
      <trkpt lat="45.40022" lon="3.24394">
        <ele>561</ele>
        <time>2012-11-16T09:23:53Z</time>
      </trkpt>
      <trkpt lat="45.40004" lon="3.24392">
        <ele>562</ele>
        <time>2012-11-16T09:23:57Z</time>
      </trkpt>
      <trkpt lat="45.39982" lon="3.24395">
        <ele>563</ele>
        <time>2012-11-16T09:24:02Z</time>
      </trkpt>
      <trkpt lat="45.39963" lon="3.24397">
        <ele>563</ele>
        <time>2012-11-16T09:24:06Z</time>
      </trkpt>
      <trkpt lat="45.39945" lon="3.24397">
        <ele>564</ele>
        <time>2012-11-16T09:24:10Z</time>
      </trkpt>
      <trkpt lat="45.39923" lon="3.24398">
        <ele>565</ele>
        <time>2012-11-16T09:24:15Z</time>
      </trkpt>
      <trkpt lat="45.39904" lon="3.24401">
        <ele>567</ele>
        <time>2012-11-16T09:24:20Z</time>
      </trkpt>
      <trkpt lat="45.39884" lon="3.24405">
        <ele>567</ele>
        <time>2012-11-16T09:24:26Z</time>
      </trkpt>
      <trkpt lat="45.39866" lon="3.24412">
        <ele>568</ele>
        <time>2012-11-16T09:24:31Z</time>
      </trkpt>
      <trkpt lat="45.39848" lon="3.24418">
        <ele>575</ele>
        <time>2012-11-16T09:24:37Z</time>
      </trkpt>
      <trkpt lat="45.39828" lon="3.24424">
        <ele>575</ele>
        <time>2012-11-16T09:24:44Z</time>
      </trkpt>
      <trkpt lat="45.3981" lon="3.24429">
        <ele>577</ele>
        <time>2012-11-16T09:24:50Z</time>
      </trkpt>
      <trkpt lat="45.39792" lon="3.24435">
        <ele>578</ele>
        <time>2012-11-16T09:24:56Z</time>
      </trkpt>
      <trkpt lat="45.39775" lon="3.24444">
        <ele>579</ele>
        <time>2012-11-16T09:25:03Z</time>
      </trkpt>
      <trkpt lat="45.39756" lon="3.24451">
        <ele>579</ele>
        <time>2012-11-16T09:25:11Z</time>
      </trkpt>
      <trkpt lat="45.39748" lon="3.24426">
        <ele>577</ele>
        <time>2012-11-16T09:25:20Z</time>
      </trkpt>
      <trkpt lat="45.39748" lon="3.24395">
        <ele>574</ele>
        <time>2012-11-16T09:25:24Z</time>
      </trkpt>
      <trkpt lat="45.39752" lon="3.24363">
        <ele>570</ele>
        <time>2012-11-16T09:25:27Z</time>
      </trkpt>
      <trkpt lat="45.39758" lon="3.24334">
        <ele>568</ele>
        <time>2012-11-16T09:25:31Z</time>
      </trkpt>
      <trkpt lat="45.39747" lon="3.24307">
        <ele>568</ele>
        <time>2012-11-16T09:25:35Z</time>
      </trkpt>
      <trkpt lat="45.39743" lon="3.24282">
        <ele>567</ele>
        <time>2012-11-16T09:25:38Z</time>
      </trkpt>
      <trkpt lat="45.39745" lon="3.24252">
        <ele>565</ele>
        <time>2012-11-16T09:25:42Z</time>
      </trkpt>
      <trkpt lat="45.39733" lon="3.24234">
        <ele>567</ele>
        <time>2012-11-16T09:25:50Z</time>
      </trkpt>
      <trkpt lat="45.39715" lon="3.24245">
        <ele>568</ele>
        <time>2012-11-16T09:25:57Z</time>
      </trkpt>
      <trkpt lat="45.39699" lon="3.24263">
        <ele>569</ele>
        <time>2012-11-16T09:26:04Z</time>
      </trkpt>
      <trkpt lat="45.3968" lon="3.24265">
        <ele>569</ele>
        <time>2012-11-16T09:26:12Z</time>
      </trkpt>
      <trkpt lat="45.39669" lon="3.24241">
        <ele>570</ele>
        <time>2012-11-16T09:26:19Z</time>
      </trkpt>
      <trkpt lat="45.3966" lon="3.24218">
        <ele>575</ele>
        <time>2012-11-16T09:26:25Z</time>
      </trkpt>
      <trkpt lat="45.3965" lon="3.24194">
        <ele>576</ele>
        <time>2012-11-16T09:26:32Z</time>
      </trkpt>
      <trkpt lat="45.39641" lon="3.2417">
        <ele>576</ele>
        <time>2012-11-16T09:26:39Z</time>
      </trkpt>
      <trkpt lat="45.39627" lon="3.2415">
        <ele>577</ele>
        <time>2012-11-16T09:26:46Z</time>
      </trkpt>
      <trkpt lat="45.39613" lon="3.24132">
        <ele>577</ele>
        <time>2012-11-16T09:26:53Z</time>
      </trkpt>
      <trkpt lat="45.39595" lon="3.24116">
        <ele>578</ele>
        <time>2012-11-16T09:27:00Z</time>
      </trkpt>
      <trkpt lat="45.39575" lon="3.24108">
        <ele>583</ele>
        <time>2012-11-16T09:27:08Z</time>
      </trkpt>
      <trkpt lat="45.39556" lon="3.241">
        <ele>584</ele>
        <time>2012-11-16T09:27:15Z</time>
      </trkpt>
      <trkpt lat="45.39537" lon="3.24093">
        <ele>585</ele>
        <time>2012-11-16T09:27:23Z</time>
      </trkpt>
      <trkpt lat="45.39517" lon="3.24088">
        <ele>586</ele>
        <time>2012-11-16T09:27:31Z</time>
      </trkpt>
      <trkpt lat="45.39497" lon="3.24082">
        <ele>587</ele>
        <time>2012-11-16T09:27:39Z</time>
      </trkpt>
      <trkpt lat="45.39479" lon="3.24076">
        <ele>589</ele>
        <time>2012-11-16T09:27:49Z</time>
      </trkpt>
      <trkpt lat="45.3946" lon="3.24073">
        <ele>591</ele>
        <time>2012-11-16T09:28:00Z</time>
      </trkpt>
      <trkpt lat="45.39441" lon="3.24071">
        <ele>592</ele>
        <time>2012-11-16T09:28:10Z</time>
      </trkpt>
      <trkpt lat="45.39421" lon="3.24066">
        <ele>592</ele>
        <time>2012-11-16T09:28:20Z</time>
      </trkpt>
      <trkpt lat="45.39403" lon="3.2406">
        <ele>594</ele>
        <time>2012-11-16T09:28:28Z</time>
      </trkpt>
      <trkpt lat="45.39384" lon="3.2406">
        <ele>594</ele>
        <time>2012-11-16T09:28:37Z</time>
      </trkpt>
      <trkpt lat="45.39365" lon="3.24063">
        <ele>593</ele>
        <time>2012-11-16T09:28:46Z</time>
      </trkpt>
      <trkpt lat="45.39346" lon="3.24071">
        <ele>593</ele>
        <time>2012-11-16T09:28:55Z</time>
      </trkpt>
      <trkpt lat="45.39328" lon="3.24077">
        <ele>592</ele>
        <time>2012-11-16T09:29:02Z</time>
      </trkpt>
      <trkpt lat="45.39309" lon="3.24083">
        <ele>591</ele>
        <time>2012-11-16T09:29:07Z</time>
      </trkpt>
      <trkpt lat="45.39288" lon="3.24083">
        <ele>590</ele>
        <time>2012-11-16T09:29:11Z</time>
      </trkpt>
      <trkpt lat="45.3927" lon="3.24085">
        <ele>590</ele>
        <time>2012-11-16T09:29:14Z</time>
      </trkpt>
      <trkpt lat="45.3925" lon="3.24091">
        <ele>586</ele>
        <time>2012-11-16T09:29:17Z</time>
      </trkpt>
      <trkpt lat="45.3923" lon="3.241">
        <ele>586</ele>
        <time>2012-11-16T09:29:20Z</time>
      </trkpt>
      <trkpt lat="45.39211" lon="3.24106">
        <ele>586</ele>
        <time>2012-11-16T09:29:23Z</time>
      </trkpt>
      <trkpt lat="45.39191" lon="3.24109">
        <ele>585</ele>
        <time>2012-11-16T09:29:26Z</time>
      </trkpt>
      <trkpt lat="45.39169" lon="3.24115">
        <ele>584</ele>
        <time>2012-11-16T09:29:29Z</time>
      </trkpt>
      <trkpt lat="45.3915" lon="3.24124">
        <ele>579</ele>
        <time>2012-11-16T09:29:32Z</time>
      </trkpt>
      <trkpt lat="45.39131" lon="3.2413">
        <ele>578</ele>
        <time>2012-11-16T09:29:35Z</time>
      </trkpt>
      <trkpt lat="45.39109" lon="3.24142">
        <ele>576</ele>
        <time>2012-11-16T09:29:38Z</time>
      </trkpt>
      <trkpt lat="45.39088" lon="3.24158">
        <ele>572</ele>
        <time>2012-11-16T09:29:41Z</time>
      </trkpt>
      <trkpt lat="45.39079" lon="3.24186">
        <ele>567</ele>
        <time>2012-11-16T09:29:44Z</time>
      </trkpt>
      <trkpt lat="45.39073" lon="3.24219">
        <ele>567</ele>
        <time>2012-11-16T09:29:47Z</time>
      </trkpt>
      <trkpt lat="45.39072" lon="3.24246">
        <ele>567</ele>
        <time>2012-11-16T09:29:50Z</time>
      </trkpt>
      <trkpt lat="45.39068" lon="3.24273">
        <ele>566</ele>
        <time>2012-11-16T09:29:53Z</time>
      </trkpt>
      <trkpt lat="45.39048" lon="3.24291">
        <ele>565</ele>
        <time>2012-11-16T09:29:58Z</time>
      </trkpt>
      <trkpt lat="45.39028" lon="3.24306">
        <ele>563</ele>
        <time>2012-11-16T09:30:02Z</time>
      </trkpt>
      <trkpt lat="45.39012" lon="3.24325">
        <ele>561</ele>
        <time>2012-11-16T09:30:06Z</time>
      </trkpt>
      <trkpt lat="45.38994" lon="3.24344">
        <ele>560</ele>
        <time>2012-11-16T09:30:09Z</time>
      </trkpt>
      <trkpt lat="45.38981" lon="3.24363">
        <ele>562</ele>
        <time>2012-11-16T09:30:12Z</time>
      </trkpt>
      <trkpt lat="45.38976" lon="3.24389">
        <ele>561</ele>
        <time>2012-11-16T09:30:17Z</time>
      </trkpt>
      <trkpt lat="45.38957" lon="3.24398">
        <ele>563</ele>
        <time>2012-11-16T09:30:22Z</time>
      </trkpt>
      <trkpt lat="45.38948" lon="3.24421">
        <ele>558</ele>
        <time>2012-11-16T09:30:28Z</time>
      </trkpt>
      <trkpt lat="45.38955" lon="3.24445">
        <ele>557</ele>
        <time>2012-11-16T09:30:30Z</time>
      </trkpt>
      <trkpt lat="45.38939" lon="3.24459">
        <ele>557</ele>
        <time>2012-11-16T09:30:35Z</time>
      </trkpt>
      <trkpt lat="45.38931" lon="3.24486">
        <ele>556</ele>
        <time>2012-11-16T09:30:42Z</time>
      </trkpt>
      <trkpt lat="45.38919" lon="3.24507">
        <ele>554</ele>
        <time>2012-11-16T09:30:47Z</time>
      </trkpt>
      <trkpt lat="45.38908" lon="3.24527">
        <ele>558</ele>
        <time>2012-11-16T09:30:53Z</time>
      </trkpt>
      <trkpt lat="45.38894" lon="3.24546">
        <ele>559</ele>
        <time>2012-11-16T09:30:59Z</time>
      </trkpt>
      <trkpt lat="45.3888" lon="3.24565">
        <ele>559</ele>
        <time>2012-11-16T09:31:05Z</time>
      </trkpt>
      <trkpt lat="45.38868" lon="3.24586">
        <ele>559</ele>
        <time>2012-11-16T09:31:11Z</time>
      </trkpt>
      <trkpt lat="45.3886" lon="3.24612">
        <ele>559</ele>
        <time>2012-11-16T09:31:17Z</time>
      </trkpt>
      <trkpt lat="45.38858" lon="3.2464">
        <ele>559</ele>
        <time>2012-11-16T09:31:22Z</time>
      </trkpt>
      <trkpt lat="45.38857" lon="3.24667">
        <ele>559</ele>
        <time>2012-11-16T09:31:27Z</time>
      </trkpt>
      <trkpt lat="45.38852" lon="3.24693">
        <ele>557</ele>
        <time>2012-11-16T09:31:33Z</time>
      </trkpt>
      <trkpt lat="45.38839" lon="3.24712">
        <ele>557</ele>
        <time>2012-11-16T09:31:43Z</time>
      </trkpt>
      <trkpt lat="45.38827" lon="3.24734">
        <ele>563</ele>
        <time>2012-11-16T09:31:50Z</time>
      </trkpt>
      <trkpt lat="45.38814" lon="3.24754">
        <ele>560</ele>
        <time>2012-11-16T09:31:56Z</time>
      </trkpt>
      <trkpt lat="45.388" lon="3.24774">
        <ele>560</ele>
        <time>2012-11-16T09:32:03Z</time>
      </trkpt>
      <trkpt lat="45.38787" lon="3.24793">
        <ele>560</ele>
        <time>2012-11-16T09:32:09Z</time>
      </trkpt>
      <trkpt lat="45.38772" lon="3.24813">
        <ele>560</ele>
        <time>2012-11-16T09:32:14Z</time>
      </trkpt>
      <trkpt lat="45.38759" lon="3.24831">
        <ele>560</ele>
        <time>2012-11-16T09:32:18Z</time>
      </trkpt>
      <trkpt lat="45.38745" lon="3.24847">
        <ele>559</ele>
        <time>2012-11-16T09:32:21Z</time>
      </trkpt>
      <trkpt lat="45.3873" lon="3.24865">
        <ele>557</ele>
        <time>2012-11-16T09:32:24Z</time>
      </trkpt>
      <trkpt lat="45.38712" lon="3.24882">
        <ele>557</ele>
        <time>2012-11-16T09:32:28Z</time>
      </trkpt>
      <trkpt lat="45.38696" lon="3.24895">
        <ele>556</ele>
        <time>2012-11-16T09:32:32Z</time>
      </trkpt>
      <trkpt lat="45.38689" lon="3.24923">
        <ele>549</ele>
        <time>2012-11-16T09:32:37Z</time>
      </trkpt>
      <trkpt lat="45.38686" lon="3.2495">
        <ele>547</ele>
        <time>2012-11-16T09:32:40Z</time>
      </trkpt>
      <trkpt lat="45.38683" lon="3.24982">
        <ele>545</ele>
        <time>2012-11-16T09:32:43Z</time>
      </trkpt>
      <trkpt lat="45.38672" lon="3.25016">
        <ele>540</ele>
        <time>2012-11-16T09:32:46Z</time>
      </trkpt>
      <trkpt lat="45.38663" lon="3.25042">
        <ele>540</ele>
        <time>2012-11-16T09:32:48Z</time>
      </trkpt>
      <trkpt lat="45.38654" lon="3.25067">
        <ele>538</ele>
        <time>2012-11-16T09:32:50Z</time>
      </trkpt>
      <trkpt lat="45.38644" lon="3.25093">
        <ele>533</ele>
        <time>2012-11-16T09:32:52Z</time>
      </trkpt>
      <trkpt lat="45.38634" lon="3.25118">
        <ele>532</ele>
        <time>2012-11-16T09:32:54Z</time>
      </trkpt>
      <trkpt lat="45.38623" lon="3.25142">
        <ele>532</ele>
        <time>2012-11-16T09:32:56Z</time>
      </trkpt>
      <trkpt lat="45.38611" lon="3.25163">
        <ele>531</ele>
        <time>2012-11-16T09:32:58Z</time>
      </trkpt>
      <trkpt lat="45.38599" lon="3.25185">
        <ele>528</ele>
        <time>2012-11-16T09:33:00Z</time>
      </trkpt>
      <trkpt lat="45.38587" lon="3.25206">
        <ele>528</ele>
        <time>2012-11-16T09:33:02Z</time>
      </trkpt>
      <trkpt lat="45.38572" lon="3.25235">
        <ele>527</ele>
        <time>2012-11-16T09:33:05Z</time>
      </trkpt>
      <trkpt lat="45.38562" lon="3.25258">
        <ele>524</ele>
        <time>2012-11-16T09:33:08Z</time>
      </trkpt>
      <trkpt lat="45.3856" lon="3.25287">
        <ele>523</ele>
        <time>2012-11-16T09:33:14Z</time>
      </trkpt>
      <trkpt lat="45.38577" lon="3.253">
        <ele>523</ele>
        <time>2012-11-16T09:33:19Z</time>
      </trkpt>
      <trkpt lat="45.38597" lon="3.25308">
        <ele>523</ele>
        <time>2012-11-16T09:33:25Z</time>
      </trkpt>
      <trkpt lat="45.38616" lon="3.25319">
        <ele>523</ele>
        <time>2012-11-16T09:33:30Z</time>
      </trkpt>
      <trkpt lat="45.38636" lon="3.25327">
        <ele>522</ele>
        <time>2012-11-16T09:33:35Z</time>
      </trkpt>
      <trkpt lat="45.38656" lon="3.25331">
        <ele>522</ele>
        <time>2012-11-16T09:33:39Z</time>
      </trkpt>
      <trkpt lat="45.38677" lon="3.25328">
        <ele>521</ele>
        <time>2012-11-16T09:33:44Z</time>
      </trkpt>
      <trkpt lat="45.38696" lon="3.25324">
        <ele>521</ele>
        <time>2012-11-16T09:33:48Z</time>
      </trkpt>
      <trkpt lat="45.38718" lon="3.25321">
        <ele>521</ele>
        <time>2012-11-16T09:33:52Z</time>
      </trkpt>
      <trkpt lat="45.38739" lon="3.25319">
        <ele>521</ele>
        <time>2012-11-16T09:33:56Z</time>
      </trkpt>
      <trkpt lat="45.38759" lon="3.25319">
        <ele>520</ele>
        <time>2012-11-16T09:34:00Z</time>
      </trkpt>
      <trkpt lat="45.38776" lon="3.25329">
        <ele>520</ele>
        <time>2012-11-16T09:34:04Z</time>
      </trkpt>
      <trkpt lat="45.38791" lon="3.25344">
        <ele>518</ele>
        <time>2012-11-16T09:34:08Z</time>
      </trkpt>
      <trkpt lat="45.3881" lon="3.25363">
        <ele>517</ele>
        <time>2012-11-16T09:34:12Z</time>
      </trkpt>
      <trkpt lat="45.38828" lon="3.25376">
        <ele>516</ele>
        <time>2012-11-16T09:34:15Z</time>
      </trkpt>
      <trkpt lat="45.38849" lon="3.25386">
        <ele>512</ele>
        <time>2012-11-16T09:34:18Z</time>
      </trkpt>
      <trkpt lat="45.38868" lon="3.25402">
        <ele>511</ele>
        <time>2012-11-16T09:34:21Z</time>
      </trkpt>
      <trkpt lat="45.38884" lon="3.2542">
        <ele>505</ele>
        <time>2012-11-16T09:34:24Z</time>
      </trkpt>
      <trkpt lat="45.38904" lon="3.2543">
        <ele>504</ele>
        <time>2012-11-16T09:34:29Z</time>
      </trkpt>
      <trkpt lat="45.38924" lon="3.25442">
        <ele>498</ele>
        <time>2012-11-16T09:34:33Z</time>
      </trkpt>
      <trkpt lat="45.3894" lon="3.25459">
        <ele>496</ele>
        <time>2012-11-16T09:34:38Z</time>
      </trkpt>
      <trkpt lat="45.3894" lon="3.25485">
        <ele>496</ele>
        <time>2012-11-16T09:34:43Z</time>
      </trkpt>
      <trkpt lat="45.38934" lon="3.25511">
        <ele>492</ele>
        <time>2012-11-16T09:34:48Z</time>
      </trkpt>
      <trkpt lat="45.3894" lon="3.25538">
        <ele>490</ele>
        <time>2012-11-16T09:34:57Z</time>
      </trkpt>
      <trkpt lat="45.38952" lon="3.25558">
        <ele>489</ele>
        <time>2012-11-16T09:35:01Z</time>
      </trkpt>
      <trkpt lat="45.38965" lon="3.25578">
        <ele>488</ele>
        <time>2012-11-16T09:35:05Z</time>
      </trkpt>
      <trkpt lat="45.3898" lon="3.25597">
        <ele>484</ele>
        <time>2012-11-16T09:35:09Z</time>
      </trkpt>
      <trkpt lat="45.38997" lon="3.25616">
        <ele>483</ele>
        <time>2012-11-16T09:35:13Z</time>
      </trkpt>
      <trkpt lat="45.39014" lon="3.25634">
        <ele>480</ele>
        <time>2012-11-16T09:35:17Z</time>
      </trkpt>
      <trkpt lat="45.3903" lon="3.25655">
        <ele>480</ele>
        <time>2012-11-16T09:35:21Z</time>
      </trkpt>
      <trkpt lat="45.39046" lon="3.25675">
        <ele>478</ele>
        <time>2012-11-16T09:35:25Z</time>
      </trkpt>
      <trkpt lat="45.39062" lon="3.25695">
        <ele>478</ele>
        <time>2012-11-16T09:35:29Z</time>
      </trkpt>
      <trkpt lat="45.39076" lon="3.25716">
        <ele>478</ele>
        <time>2012-11-16T09:35:33Z</time>
      </trkpt>
      <trkpt lat="45.3909" lon="3.25732">
        <ele>477</ele>
        <time>2012-11-16T09:35:38Z</time>
      </trkpt>
      <trkpt lat="45.39106" lon="3.25749">
        <ele>477</ele>
        <time>2012-11-16T09:35:44Z</time>
      </trkpt>
      <trkpt lat="45.39123" lon="3.25766">
        <ele>477</ele>
        <time>2012-11-16T09:35:50Z</time>
      </trkpt>
      <trkpt lat="45.3914" lon="3.25783">
        <ele>477</ele>
        <time>2012-11-16T09:35:56Z</time>
      </trkpt>
      <trkpt lat="45.39156" lon="3.25797">
        <ele>477</ele>
        <time>2012-11-16T09:36:01Z</time>
      </trkpt>
      <trkpt lat="45.39173" lon="3.25814">
        <ele>477</ele>
        <time>2012-11-16T09:36:06Z</time>
      </trkpt>
      <trkpt lat="45.39188" lon="3.25828">
        <ele>477</ele>
        <time>2012-11-16T09:36:10Z</time>
      </trkpt>
      <trkpt lat="45.39207" lon="3.25843">
        <ele>475</ele>
        <time>2012-11-16T09:36:14Z</time>
      </trkpt>
      <trkpt lat="45.39228" lon="3.25855">
        <ele>475</ele>
        <time>2012-11-16T09:36:18Z</time>
      </trkpt>
      <trkpt lat="45.39247" lon="3.25866">
        <ele>474</ele>
        <time>2012-11-16T09:36:22Z</time>
      </trkpt>
      <trkpt lat="45.39268" lon="3.2587">
        <ele>473</ele>
        <time>2012-11-16T09:36:27Z</time>
      </trkpt>
      <trkpt lat="45.3929" lon="3.2586">
        <ele>472</ele>
        <time>2012-11-16T09:36:31Z</time>
      </trkpt>
      <trkpt lat="45.39311" lon="3.25847">
        <ele>472</ele>
        <time>2012-11-16T09:36:35Z</time>
      </trkpt>
      <trkpt lat="45.39329" lon="3.25855">
        <ele>472</ele>
        <time>2012-11-16T09:36:38Z</time>
      </trkpt>
      <trkpt lat="45.39344" lon="3.25874">
        <ele>468</ele>
        <time>2012-11-16T09:36:42Z</time>
      </trkpt>
      <trkpt lat="45.39362" lon="3.25887">
        <ele>467</ele>
        <time>2012-11-16T09:36:46Z</time>
      </trkpt>
      <trkpt lat="45.3938" lon="3.25897">
        <ele>466</ele>
        <time>2012-11-16T09:36:51Z</time>
      </trkpt>
      <trkpt lat="45.39396" lon="3.25908">
        <ele>464</ele>
        <time>2012-11-16T09:36:55Z</time>
      </trkpt>
      <trkpt lat="45.39414" lon="3.25923">
        <ele>462</ele>
        <time>2012-11-16T09:36:59Z</time>
      </trkpt>
      <trkpt lat="45.39432" lon="3.25923">
        <ele>459</ele>
        <time>2012-11-16T09:37:03Z</time>
      </trkpt>
      <trkpt lat="45.39444" lon="3.25948">
        <ele>458</ele>
        <time>2012-11-16T09:37:08Z</time>
      </trkpt>
      <trkpt lat="45.39448" lon="3.25977">
        <ele>458</ele>
        <time>2012-11-16T09:37:12Z</time>
      </trkpt>
      <trkpt lat="45.39447" lon="3.26005">
        <ele>457</ele>
        <time>2012-11-16T09:37:16Z</time>
      </trkpt>
      <trkpt lat="45.39448" lon="3.26036">
        <ele>456</ele>
        <time>2012-11-16T09:37:20Z</time>
      </trkpt>
      <trkpt lat="45.39451" lon="3.26062">
        <ele>456</ele>
        <time>2012-11-16T09:37:23Z</time>
      </trkpt>
      <trkpt lat="45.39457" lon="3.26086">
        <ele>454</ele>
        <time>2012-11-16T09:37:26Z</time>
      </trkpt>
      <trkpt lat="45.39462" lon="3.26117">
        <ele>453</ele>
        <time>2012-11-16T09:37:32Z</time>
      </trkpt>
      <trkpt lat="45.39467" lon="3.26147">
        <ele>452</ele>
        <time>2012-11-16T09:37:36Z</time>
      </trkpt>
      <trkpt lat="45.39472" lon="3.26175">
        <ele>448</ele>
        <time>2012-11-16T09:37:39Z</time>
      </trkpt>
      <trkpt lat="45.39476" lon="3.26202">
        <ele>448</ele>
        <time>2012-11-16T09:37:42Z</time>
      </trkpt>
      <trkpt lat="45.39481" lon="3.26231">
        <ele>446</ele>
        <time>2012-11-16T09:37:45Z</time>
      </trkpt>
      <trkpt lat="45.39486" lon="3.26258">
        <ele>443</ele>
        <time>2012-11-16T09:37:49Z</time>
      </trkpt>
      <trkpt lat="45.39503" lon="3.26271">
        <ele>442</ele>
        <time>2012-11-16T09:42:36Z</time>
      </trkpt>
      <trkpt lat="45.3952" lon="3.26262">
        <ele>443</ele>
        <time>2012-11-16T09:42:42Z</time>
      </trkpt>
      <trkpt lat="45.39538" lon="3.26252">
        <ele>443</ele>
        <time>2012-11-16T09:42:48Z</time>
      </trkpt>
      <trkpt lat="45.39558" lon="3.26246">
        <ele>446</ele>
        <time>2012-11-16T09:42:54Z</time>
      </trkpt>
      <trkpt lat="45.39576" lon="3.26255">
        <ele>445</ele>
        <time>2012-11-16T09:42:59Z</time>
      </trkpt>
      <trkpt lat="45.39594" lon="3.26267">
        <ele>445</ele>
        <time>2012-11-16T09:43:04Z</time>
      </trkpt>
      <trkpt lat="45.39613" lon="3.26278">
        <ele>444</ele>
        <time>2012-11-16T09:43:09Z</time>
      </trkpt>
      <trkpt lat="45.39633" lon="3.26287">
        <ele>444</ele>
        <time>2012-11-16T09:43:14Z</time>
      </trkpt>
      <trkpt lat="45.39653" lon="3.26292">
        <ele>444</ele>
        <time>2012-11-16T09:43:19Z</time>
      </trkpt>
      <trkpt lat="45.39673" lon="3.26288">
        <ele>445</ele>
        <time>2012-11-16T09:43:25Z</time>
      </trkpt>
      <trkpt lat="45.39693" lon="3.26283">
        <ele>445</ele>
        <time>2012-11-16T09:43:32Z</time>
      </trkpt>
      <trkpt lat="45.39711" lon="3.26275">
        <ele>446</ele>
        <time>2012-11-16T09:43:38Z</time>
      </trkpt>
      <trkpt lat="45.39731" lon="3.26265">
        <ele>447</ele>
        <time>2012-11-16T09:43:44Z</time>
      </trkpt>
      <trkpt lat="45.39751" lon="3.2626">
        <ele>450</ele>
        <time>2012-11-16T09:43:51Z</time>
      </trkpt>
      <trkpt lat="45.39772" lon="3.26254">
        <ele>449</ele>
        <time>2012-11-16T09:43:57Z</time>
      </trkpt>
      <trkpt lat="45.39792" lon="3.26248">
        <ele>458</ele>
        <time>2012-11-16T09:44:03Z</time>
      </trkpt>
      <trkpt lat="45.39811" lon="3.26245">
        <ele>459</ele>
        <time>2012-11-16T09:44:09Z</time>
      </trkpt>
      <trkpt lat="45.39831" lon="3.2624">
        <ele>458</ele>
        <time>2012-11-16T09:44:16Z</time>
      </trkpt>
      <trkpt lat="45.39852" lon="3.26237">
        <ele>461</ele>
        <time>2012-11-16T09:44:23Z</time>
      </trkpt>
      <trkpt lat="45.39871" lon="3.26233">
        <ele>463</ele>
        <time>2012-11-16T09:44:30Z</time>
      </trkpt>
      <trkpt lat="45.3989" lon="3.2623">
        <ele>463</ele>
        <time>2012-11-16T09:44:37Z</time>
      </trkpt>
      <trkpt lat="45.39911" lon="3.26232">
        <ele>463</ele>
        <time>2012-11-16T09:44:44Z</time>
      </trkpt>
      <trkpt lat="45.3993" lon="3.26236">
        <ele>464</ele>
        <time>2012-11-16T09:44:50Z</time>
      </trkpt>
      <trkpt lat="45.39949" lon="3.26237">
        <ele>465</ele>
        <time>2012-11-16T09:44:56Z</time>
      </trkpt>
      <trkpt lat="45.39971" lon="3.26233">
        <ele>466</ele>
        <time>2012-11-16T09:45:03Z</time>
      </trkpt>
      <trkpt lat="45.39988" lon="3.26226">
        <ele>466</ele>
        <time>2012-11-16T09:45:08Z</time>
      </trkpt>
      <trkpt lat="45.40007" lon="3.26218">
        <ele>467</ele>
        <time>2012-11-16T09:45:13Z</time>
      </trkpt>
      <trkpt lat="45.40027" lon="3.2621">
        <ele>468</ele>
        <time>2012-11-16T09:45:19Z</time>
      </trkpt>
      <trkpt lat="45.40045" lon="3.26203">
        <ele>469</ele>
        <time>2012-11-16T09:45:25Z</time>
      </trkpt>
      <trkpt lat="45.40065" lon="3.26197">
        <ele>469</ele>
        <time>2012-11-16T09:45:31Z</time>
      </trkpt>
      <trkpt lat="45.40084" lon="3.26187">
        <ele>470</ele>
        <time>2012-11-16T09:45:37Z</time>
      </trkpt>
      <trkpt lat="45.40101" lon="3.26172">
        <ele>470</ele>
        <time>2012-11-16T09:45:43Z</time>
      </trkpt>
      <trkpt lat="45.40119" lon="3.26156">
        <ele>476</ele>
        <time>2012-11-16T09:45:49Z</time>
      </trkpt>
      <trkpt lat="45.40137" lon="3.26141">
        <ele>476</ele>
        <time>2012-11-16T09:45:55Z</time>
      </trkpt>
      <trkpt lat="45.40154" lon="3.26126">
        <ele>477</ele>
        <time>2012-11-16T09:46:01Z</time>
      </trkpt>
      <trkpt lat="45.40173" lon="3.26112">
        <ele>476</ele>
        <time>2012-11-16T09:46:07Z</time>
      </trkpt>
      <trkpt lat="45.40191" lon="3.26103">
        <ele>477</ele>
        <time>2012-11-16T09:46:13Z</time>
      </trkpt>
      <trkpt lat="45.40207" lon="3.26091">
        <ele>477</ele>
        <time>2012-11-16T09:46:18Z</time>
      </trkpt>
      <trkpt lat="45.40222" lon="3.26075">
        <ele>483</ele>
        <time>2012-11-16T09:46:23Z</time>
      </trkpt>
      <trkpt lat="45.40236" lon="3.26054">
        <ele>484</ele>
        <time>2012-11-16T09:46:30Z</time>
      </trkpt>
      <trkpt lat="45.40247" lon="3.26032">
        <ele>486</ele>
        <time>2012-11-16T09:46:36Z</time>
      </trkpt>
      <trkpt lat="45.4026" lon="3.26015">
        <ele>483</ele>
        <time>2012-11-16T09:46:42Z</time>
      </trkpt>
      <trkpt lat="45.40272" lon="3.25994">
        <ele>486</ele>
        <time>2012-11-16T09:46:48Z</time>
      </trkpt>
      <trkpt lat="45.40286" lon="3.25972">
        <ele>486</ele>
        <time>2012-11-16T09:46:54Z</time>
      </trkpt>
      <trkpt lat="45.40301" lon="3.25954">
        <ele>485</ele>
        <time>2012-11-16T09:46:59Z</time>
      </trkpt>
      <trkpt lat="45.40317" lon="3.2594">
        <ele>485</ele>
        <time>2012-11-16T09:47:03Z</time>
      </trkpt>
      <trkpt lat="45.40338" lon="3.25929">
        <ele>483</ele>
        <time>2012-11-16T09:47:07Z</time>
      </trkpt>
      <trkpt lat="45.40357" lon="3.25932">
        <ele>482</ele>
        <time>2012-11-16T09:47:10Z</time>
      </trkpt>
      <trkpt lat="45.40375" lon="3.25938">
        <ele>483</ele>
        <time>2012-11-16T09:47:13Z</time>
      </trkpt>
      <trkpt lat="45.40397" lon="3.2594">
        <ele>483</ele>
        <time>2012-11-16T09:47:17Z</time>
      </trkpt>
      <trkpt lat="45.40417" lon="3.25943">
        <ele>485</ele>
        <time>2012-11-16T09:47:22Z</time>
      </trkpt>
      <trkpt lat="45.40436" lon="3.25958">
        <ele>485</ele>
        <time>2012-11-16T09:47:27Z</time>
      </trkpt>
      <trkpt lat="45.40449" lon="3.25978">
        <ele>484</ele>
        <time>2012-11-16T09:47:36Z</time>
      </trkpt>
      <trkpt lat="45.40456" lon="3.26004">
        <ele>481</ele>
        <time>2012-11-16T09:47:40Z</time>
      </trkpt>
      <trkpt lat="45.40458" lon="3.26035">
        <ele>481</ele>
        <time>2012-11-16T09:47:44Z</time>
      </trkpt>
      <trkpt lat="45.40456" lon="3.26062">
        <ele>480</ele>
        <time>2012-11-16T09:47:48Z</time>
      </trkpt>
      <trkpt lat="45.40462" lon="3.26091">
        <ele>477</ele>
        <time>2012-11-16T09:47:51Z</time>
      </trkpt>
      <trkpt lat="45.40461" lon="3.26122">
        <ele>476</ele>
        <time>2012-11-16T09:47:54Z</time>
      </trkpt>
      <trkpt lat="45.40462" lon="3.26148">
        <ele>476</ele>
        <time>2012-11-16T09:47:58Z</time>
      </trkpt>
      <trkpt lat="45.40461" lon="3.26181">
        <ele>472</ele>
        <time>2012-11-16T09:48:01Z</time>
      </trkpt>
      <trkpt lat="45.40461" lon="3.26208">
        <ele>472</ele>
        <time>2012-11-16T09:48:05Z</time>
      </trkpt>
      <trkpt lat="45.40472" lon="3.26236">
        <ele>471</ele>
        <time>2012-11-16T09:48:08Z</time>
      </trkpt>
      <trkpt lat="45.40477" lon="3.26264">
        <ele>467</ele>
        <time>2012-11-16T09:48:11Z</time>
      </trkpt>
      <trkpt lat="45.40465" lon="3.26287">
        <ele>465</ele>
        <time>2012-11-16T09:48:14Z</time>
      </trkpt>
      <trkpt lat="45.40459" lon="3.26314">
        <ele>463</ele>
        <time>2012-11-16T09:48:17Z</time>
      </trkpt>
      <trkpt lat="45.40472" lon="3.26346">
        <ele>456</ele>
        <time>2012-11-16T09:48:20Z</time>
      </trkpt>
      <trkpt lat="45.40497" lon="3.26359">
        <ele>456</ele>
        <time>2012-11-16T09:48:23Z</time>
      </trkpt>
      <trkpt lat="45.40519" lon="3.26359">
        <ele>454</ele>
        <time>2012-11-16T09:48:25Z</time>
      </trkpt>
      <trkpt lat="45.40537" lon="3.26353">
        <ele>453</ele>
        <time>2012-11-16T09:48:27Z</time>
      </trkpt>
      <trkpt lat="45.40557" lon="3.26349">
        <ele>452</ele>
        <time>2012-11-16T09:48:30Z</time>
      </trkpt>
      <trkpt lat="45.40575" lon="3.26352">
        <ele>451</ele>
        <time>2012-11-16T09:48:34Z</time>
      </trkpt>
      <trkpt lat="45.40595" lon="3.26345">
        <ele>449</ele>
        <time>2012-11-16T09:48:38Z</time>
      </trkpt>
      <trkpt lat="45.40615" lon="3.2635">
        <ele>448</ele>
        <time>2012-11-16T09:48:41Z</time>
      </trkpt>
      <trkpt lat="45.40635" lon="3.26359">
        <ele>448</ele>
        <time>2012-11-16T09:48:44Z</time>
      </trkpt>
      <trkpt lat="45.40656" lon="3.26369">
        <ele>448</ele>
        <time>2012-11-16T09:48:48Z</time>
      </trkpt>
      <trkpt lat="45.40676" lon="3.26376">
        <ele>451</ele>
        <time>2012-11-16T09:48:52Z</time>
      </trkpt>
      <trkpt lat="45.40694" lon="3.26382">
        <ele>452</ele>
        <time>2012-11-16T09:48:56Z</time>
      </trkpt>
      <trkpt lat="45.40715" lon="3.26387">
        <ele>453</ele>
        <time>2012-11-16T09:49:00Z</time>
      </trkpt>
      <trkpt lat="45.40733" lon="3.26393">
        <ele>454</ele>
        <time>2012-11-16T09:49:06Z</time>
      </trkpt>
      <trkpt lat="45.40754" lon="3.264">
        <ele>460</ele>
        <time>2012-11-16T09:49:12Z</time>
      </trkpt>
      <trkpt lat="45.40772" lon="3.26409">
        <ele>461</ele>
        <time>2012-11-16T09:49:17Z</time>
      </trkpt>
      <trkpt lat="45.40791" lon="3.26419">
        <ele>462</ele>
        <time>2012-11-16T09:49:23Z</time>
      </trkpt>
      <trkpt lat="45.4081" lon="3.26427">
        <ele>464</ele>
        <time>2012-11-16T09:49:29Z</time>
      </trkpt>
      <trkpt lat="45.40829" lon="3.26434">
        <ele>465</ele>
        <time>2012-11-16T09:49:36Z</time>
      </trkpt>
      <trkpt lat="45.40848" lon="3.26439">
        <ele>468</ele>
        <time>2012-11-16T09:49:43Z</time>
      </trkpt>
      <trkpt lat="45.40868" lon="3.26444">
        <ele>468</ele>
        <time>2012-11-16T09:49:51Z</time>
      </trkpt>
      <trkpt lat="45.40884" lon="3.26456">
        <ele>469</ele>
        <time>2012-11-16T09:49:57Z</time>
      </trkpt>
      <trkpt lat="45.40902" lon="3.26459">
        <ele>469</ele>
        <time>2012-11-16T09:50:05Z</time>
      </trkpt>
      <trkpt lat="45.40921" lon="3.26457">
        <ele>471</ele>
        <time>2012-11-16T09:50:14Z</time>
      </trkpt>
      <trkpt lat="45.40936" lon="3.26475">
        <ele>471</ele>
        <time>2012-11-16T09:50:29Z</time>
      </trkpt>
      <trkpt lat="45.40954" lon="3.26475">
        <ele>471</ele>
        <time>2012-11-16T09:50:34Z</time>
      </trkpt>
      <trkpt lat="45.40966" lon="3.26455">
        <ele>471</ele>
        <time>2012-11-16T09:50:39Z</time>
      </trkpt>
      <trkpt lat="45.40983" lon="3.2644">
        <ele>472</ele>
        <time>2012-11-16T09:50:45Z</time>
      </trkpt>
      <trkpt lat="45.40999" lon="3.26425">
        <ele>473</ele>
        <time>2012-11-16T09:50:51Z</time>
      </trkpt>
      <trkpt lat="45.41015" lon="3.26411">
        <ele>474</ele>
        <time>2012-11-16T09:50:58Z</time>
      </trkpt>
      <trkpt lat="45.41033" lon="3.26399">
        <ele>475</ele>
        <time>2012-11-16T09:51:05Z</time>
      </trkpt>
      <trkpt lat="45.41051" lon="3.26395">
        <ele>475</ele>
        <time>2012-11-16T09:51:11Z</time>
      </trkpt>
      <trkpt lat="45.41068" lon="3.2641">
        <ele>474</ele>
        <time>2012-11-16T09:51:18Z</time>
      </trkpt>
      <trkpt lat="45.41082" lon="3.26429">
        <ele>473</ele>
        <time>2012-11-16T09:51:23Z</time>
      </trkpt>
      <trkpt lat="45.41098" lon="3.26449">
        <ele>473</ele>
        <time>2012-11-16T09:51:28Z</time>
      </trkpt>
      <trkpt lat="45.41113" lon="3.26469">
        <ele>473</ele>
        <time>2012-11-16T09:51:33Z</time>
      </trkpt>
      <trkpt lat="45.41131" lon="3.26481">
        <ele>473</ele>
        <time>2012-11-16T09:51:38Z</time>
      </trkpt>
      <trkpt lat="45.4115" lon="3.26488">
        <ele>473</ele>
        <time>2012-11-16T09:51:43Z</time>
      </trkpt>
      <trkpt lat="45.41168" lon="3.26494">
        <ele>473</ele>
        <time>2012-11-16T09:51:48Z</time>
      </trkpt>
      <trkpt lat="45.41189" lon="3.26502">
        <ele>473</ele>
        <time>2012-11-16T09:51:53Z</time>
      </trkpt>
      <trkpt lat="45.41208" lon="3.26511">
        <ele>473</ele>
        <time>2012-11-16T09:51:57Z</time>
      </trkpt>
      <trkpt lat="45.41228" lon="3.26519">
        <ele>473</ele>
        <time>2012-11-16T09:52:01Z</time>
      </trkpt>
      <trkpt lat="45.41251" lon="3.26528">
        <ele>473</ele>
        <time>2012-11-16T09:52:05Z</time>
      </trkpt>
      <trkpt lat="45.41273" lon="3.26536">
        <ele>473</ele>
        <time>2012-11-16T09:52:09Z</time>
      </trkpt>
      <trkpt lat="45.41295" lon="3.26545">
        <ele>472</ele>
        <time>2012-11-16T09:52:13Z</time>
      </trkpt>
      <trkpt lat="45.41315" lon="3.26556">
        <ele>472</ele>
        <time>2012-11-16T09:52:17Z</time>
      </trkpt>
      <trkpt lat="45.41335" lon="3.26569">
        <ele>471</ele>
        <time>2012-11-16T09:52:21Z</time>
      </trkpt>
      <trkpt lat="45.41356" lon="3.26584">
        <ele>470</ele>
        <time>2012-11-16T09:52:25Z</time>
      </trkpt>
      <trkpt lat="45.41375" lon="3.266">
        <ele>469</ele>
        <time>2012-11-16T09:52:29Z</time>
      </trkpt>
      <trkpt lat="45.41396" lon="3.26617">
        <ele>469</ele>
        <time>2012-11-16T09:52:33Z</time>
      </trkpt>
      <trkpt lat="45.41413" lon="3.2663">
        <ele>468</ele>
        <time>2012-11-16T09:52:36Z</time>
      </trkpt>
      <trkpt lat="45.41435" lon="3.26636">
        <ele>465</ele>
        <time>2012-11-16T09:52:39Z</time>
      </trkpt>
      <trkpt lat="45.41458" lon="3.26635">
        <ele>465</ele>
        <time>2012-11-16T09:52:42Z</time>
      </trkpt>
      <trkpt lat="45.41481" lon="3.26623">
        <ele>465</ele>
        <time>2012-11-16T09:52:45Z</time>
      </trkpt>
      <trkpt lat="45.41506" lon="3.2661">
        <ele>462</ele>
        <time>2012-11-16T09:52:48Z</time>
      </trkpt>
      <trkpt lat="45.41531" lon="3.26597">
        <ele>462</ele>
        <time>2012-11-16T09:52:51Z</time>
      </trkpt>
      <trkpt lat="45.41548" lon="3.26589">
        <ele>461</ele>
        <time>2012-11-16T09:52:53Z</time>
      </trkpt>
      <trkpt lat="45.41573" lon="3.26579">
        <ele>461</ele>
        <time>2012-11-16T09:52:56Z</time>
      </trkpt>
      <trkpt lat="45.41597" lon="3.26576">
        <ele>461</ele>
        <time>2012-11-16T09:52:59Z</time>
      </trkpt>
      <trkpt lat="45.4162" lon="3.26573">
        <ele>463</ele>
        <time>2012-11-16T09:53:02Z</time>
      </trkpt>
      <trkpt lat="45.41642" lon="3.26572">
        <ele>463</ele>
        <time>2012-11-16T09:53:06Z</time>
      </trkpt>
      <trkpt lat="45.41661" lon="3.26582">
        <ele>464</ele>
        <time>2012-11-16T09:53:14Z</time>
      </trkpt>
      <trkpt lat="45.4168" lon="3.26586">
        <ele>465</ele>
        <time>2012-11-16T09:53:24Z</time>
      </trkpt>
      <trkpt lat="45.41699" lon="3.26596">
        <ele>467</ele>
        <time>2012-11-16T09:53:33Z</time>
      </trkpt>
      <trkpt lat="45.41717" lon="3.26598">
        <ele>468</ele>
        <time>2012-11-16T09:53:43Z</time>
      </trkpt>
      <trkpt lat="45.41734" lon="3.26605">
        <ele>469</ele>
        <time>2012-11-16T09:53:51Z</time>
      </trkpt>
      <trkpt lat="45.41754" lon="3.26613">
        <ele>473</ele>
        <time>2012-11-16T09:53:59Z</time>
      </trkpt>
      <trkpt lat="45.41774" lon="3.26621">
        <ele>473</ele>
        <time>2012-11-16T09:54:05Z</time>
      </trkpt>
      <trkpt lat="45.41792" lon="3.26627">
        <ele>472</ele>
        <time>2012-11-16T09:54:10Z</time>
      </trkpt>
      <trkpt lat="45.41812" lon="3.26632">
        <ele>472</ele>
        <time>2012-11-16T09:54:15Z</time>
      </trkpt>
      <trkpt lat="45.4183" lon="3.26636">
        <ele>472</ele>
        <time>2012-11-16T09:54:19Z</time>
      </trkpt>
      <trkpt lat="45.41849" lon="3.26642">
        <ele>471</ele>
        <time>2012-11-16T09:54:23Z</time>
      </trkpt>
      <trkpt lat="45.4187" lon="3.26648">
        <ele>471</ele>
        <time>2012-11-16T09:54:27Z</time>
      </trkpt>
      <trkpt lat="45.41888" lon="3.26656">
        <ele>470</ele>
        <time>2012-11-16T09:54:30Z</time>
      </trkpt>
      <trkpt lat="45.41908" lon="3.26666">
        <ele>469</ele>
        <time>2012-11-16T09:54:33Z</time>
      </trkpt>
      <trkpt lat="45.41927" lon="3.26678">
        <ele>466</ele>
        <time>2012-11-16T09:54:36Z</time>
      </trkpt>
      <trkpt lat="45.41948" lon="3.2669">
        <ele>465</ele>
        <time>2012-11-16T09:54:39Z</time>
      </trkpt>
      <trkpt lat="45.41968" lon="3.26703">
        <ele>464</ele>
        <time>2012-11-16T09:54:42Z</time>
      </trkpt>
      <trkpt lat="45.41987" lon="3.26719">
        <ele>463</ele>
        <time>2012-11-16T09:54:45Z</time>
      </trkpt>
      <trkpt lat="45.42007" lon="3.26732">
        <ele>461</ele>
        <time>2012-11-16T09:54:48Z</time>
      </trkpt>
      <trkpt lat="45.42026" lon="3.26747">
        <ele>460</ele>
        <time>2012-11-16T09:54:51Z</time>
      </trkpt>
      <trkpt lat="45.42047" lon="3.2676">
        <ele>459</ele>
        <time>2012-11-16T09:54:54Z</time>
      </trkpt>
      <trkpt lat="45.42068" lon="3.26775">
        <ele>458</ele>
        <time>2012-11-16T09:54:57Z</time>
      </trkpt>
      <trkpt lat="45.4209" lon="3.26791">
        <ele>457</ele>
        <time>2012-11-16T09:55:00Z</time>
      </trkpt>
      <trkpt lat="45.42112" lon="3.26806">
        <ele>457</ele>
        <time>2012-11-16T09:55:03Z</time>
      </trkpt>
      <trkpt lat="45.42133" lon="3.26817">
        <ele>457</ele>
        <time>2012-11-16T09:55:06Z</time>
      </trkpt>
      <trkpt lat="45.42153" lon="3.26809">
        <ele>456</ele>
        <time>2012-11-16T09:55:09Z</time>
      </trkpt>
      <trkpt lat="45.42175" lon="3.268">
        <ele>457</ele>
        <time>2012-11-16T09:55:13Z</time>
      </trkpt>
      <trkpt lat="45.42195" lon="3.26791">
        <ele>458</ele>
        <time>2012-11-16T09:55:17Z</time>
      </trkpt>
      <trkpt lat="45.42212" lon="3.26779">
        <ele>458</ele>
        <time>2012-11-16T09:55:21Z</time>
      </trkpt>
      <trkpt lat="45.42229" lon="3.26793">
        <ele>458</ele>
        <time>2012-11-16T09:55:27Z</time>
      </trkpt>
      <trkpt lat="45.42225" lon="3.26823">
        <ele>458</ele>
        <time>2012-11-16T09:55:33Z</time>
      </trkpt>
      <trkpt lat="45.42224" lon="3.2685">
        <ele>458</ele>
        <time>2012-11-16T09:55:37Z</time>
      </trkpt>
      <trkpt lat="45.42227" lon="3.26876">
        <ele>458</ele>
        <time>2012-11-16T09:55:41Z</time>
      </trkpt>
      <trkpt lat="45.42231" lon="3.26903">
        <ele>458</ele>
        <time>2012-11-16T09:55:45Z</time>
      </trkpt>
      <trkpt lat="45.42234" lon="3.26933">
        <ele>458</ele>
        <time>2012-11-16T09:55:49Z</time>
      </trkpt>
      <trkpt lat="45.42234" lon="3.26964">
        <ele>457</ele>
        <time>2012-11-16T09:55:53Z</time>
      </trkpt>
      <trkpt lat="45.4223" lon="3.2699">
        <ele>457</ele>
        <time>2012-11-16T09:55:56Z</time>
      </trkpt>
      <trkpt lat="45.42225" lon="3.27018">
        <ele>456</ele>
        <time>2012-11-16T09:55:59Z</time>
      </trkpt>
      <trkpt lat="45.42224" lon="3.27046">
        <ele>456</ele>
        <time>2012-11-16T09:56:04Z</time>
      </trkpt>
      <trkpt lat="45.4222" lon="3.27074">
        <ele>456</ele>
        <time>2012-11-16T09:56:14Z</time>
      </trkpt>
      <trkpt lat="45.42223" lon="3.27104">
        <ele>456</ele>
        <time>2012-11-16T09:56:19Z</time>
      </trkpt>
      <trkpt lat="45.42233" lon="3.27134">
        <ele>456</ele>
        <time>2012-11-16T09:56:24Z</time>
      </trkpt>
      <trkpt lat="45.42246" lon="3.27156">
        <ele>457</ele>
        <time>2012-11-16T09:56:28Z</time>
      </trkpt>
      <trkpt lat="45.4226" lon="3.27181">
        <ele>457</ele>
        <time>2012-11-16T09:56:32Z</time>
      </trkpt>
      <trkpt lat="45.42272" lon="3.27209">
        <ele>458</ele>
        <time>2012-11-16T09:56:36Z</time>
      </trkpt>
      <trkpt lat="45.42284" lon="3.27228">
        <ele>458</ele>
        <time>2012-11-16T09:56:39Z</time>
      </trkpt>
      <trkpt lat="45.423" lon="3.27242">
        <ele>458</ele>
        <time>2012-11-16T09:56:42Z</time>
      </trkpt>
      <trkpt lat="45.42322" lon="3.27252">
        <ele>459</ele>
        <time>2012-11-16T09:56:46Z</time>
      </trkpt>
      <trkpt lat="45.42342" lon="3.27254">
        <ele>459</ele>
        <time>2012-11-16T09:56:51Z</time>
      </trkpt>
      <trkpt lat="45.42362" lon="3.27262">
        <ele>459</ele>
        <time>2012-11-16T09:56:57Z</time>
      </trkpt>
      <trkpt lat="45.42369" lon="3.27288">
        <ele>460</ele>
        <time>2012-11-16T09:57:03Z</time>
      </trkpt>
      <trkpt lat="45.42369" lon="3.27319">
        <ele>460</ele>
        <time>2012-11-16T09:57:08Z</time>
      </trkpt>
      <trkpt lat="45.42367" lon="3.2735">
        <ele>463</ele>
        <time>2012-11-16T09:57:13Z</time>
      </trkpt>
      <trkpt lat="45.42366" lon="3.27376">
        <ele>464</ele>
        <time>2012-11-16T09:57:17Z</time>
      </trkpt>
      <trkpt lat="45.42364" lon="3.27404">
        <ele>464</ele>
        <time>2012-11-16T09:57:21Z</time>
      </trkpt>
      <trkpt lat="45.42364" lon="3.2743">
        <ele>467</ele>
        <time>2012-11-16T09:57:25Z</time>
      </trkpt>
      <trkpt lat="45.42363" lon="3.27457">
        <ele>467</ele>
        <time>2012-11-16T09:57:29Z</time>
      </trkpt>
      <trkpt lat="45.42362" lon="3.27487">
        <ele>467</ele>
        <time>2012-11-16T09:57:34Z</time>
      </trkpt>
      <trkpt lat="45.42361" lon="3.27517">
        <ele>469</ele>
        <time>2012-11-16T09:57:39Z</time>
      </trkpt>
      <trkpt lat="45.42363" lon="3.27548">
        <ele>470</ele>
        <time>2012-11-16T09:57:44Z</time>
      </trkpt>
      <trkpt lat="45.42366" lon="3.27578">
        <ele>470</ele>
        <time>2012-11-16T09:57:49Z</time>
      </trkpt>
      <trkpt lat="45.42368" lon="3.27608">
        <ele>473</ele>
        <time>2012-11-16T09:57:54Z</time>
      </trkpt>
      <trkpt lat="45.42369" lon="3.27637">
        <ele>474</ele>
        <time>2012-11-16T09:57:59Z</time>
      </trkpt>
      <trkpt lat="45.42369" lon="3.27663">
        <ele>474</ele>
        <time>2012-11-16T09:58:03Z</time>
      </trkpt>
      <trkpt lat="45.42367" lon="3.27694">
        <ele>476</ele>
        <time>2012-11-16T09:58:08Z</time>
      </trkpt>
      <trkpt lat="45.42366" lon="3.2772">
        <ele>476</ele>
        <time>2012-11-16T09:58:12Z</time>
      </trkpt>
      <trkpt lat="45.42361" lon="3.27745">
        <ele>477</ele>
        <time>2012-11-16T09:58:16Z</time>
      </trkpt>
      <trkpt lat="45.42355" lon="3.2777">
        <ele>477</ele>
        <time>2012-11-16T09:58:20Z</time>
      </trkpt>
      <trkpt lat="45.42349" lon="3.27795">
        <ele>477</ele>
        <time>2012-11-16T09:58:24Z</time>
      </trkpt>
      <trkpt lat="45.42339" lon="3.27819">
        <ele>476</ele>
        <time>2012-11-16T09:58:28Z</time>
      </trkpt>
      <trkpt lat="45.42327" lon="3.2784">
        <ele>476</ele>
        <time>2012-11-16T09:58:32Z</time>
      </trkpt>
      <trkpt lat="45.42309" lon="3.2786">
        <ele>476</ele>
        <time>2012-11-16T09:58:37Z</time>
      </trkpt>
      <trkpt lat="45.42304" lon="3.2789">
        <ele>476</ele>
        <time>2012-11-16T09:58:42Z</time>
      </trkpt>
      <trkpt lat="45.42312" lon="3.27913">
        <ele>476</ele>
        <time>2012-11-16T09:58:46Z</time>
      </trkpt>
      <trkpt lat="45.42311" lon="3.27944">
        <ele>474</ele>
        <time>2012-11-16T09:58:51Z</time>
      </trkpt>
      <trkpt lat="45.42305" lon="3.27973">
        <ele>474</ele>
        <time>2012-11-16T09:58:55Z</time>
      </trkpt>
      <trkpt lat="45.42304" lon="3.28006">
        <ele>471</ele>
        <time>2012-11-16T09:58:59Z</time>
      </trkpt>
      <trkpt lat="45.42319" lon="3.2802">
        <ele>471</ele>
        <time>2012-11-16T09:59:04Z</time>
      </trkpt>
      <trkpt lat="45.42337" lon="3.28018">
        <ele>471</ele>
        <time>2012-11-16T09:59:09Z</time>
      </trkpt>
      <trkpt lat="45.42357" lon="3.28019">
        <ele>471</ele>
        <time>2012-11-16T10:03:04Z</time>
      </trkpt>
      <trkpt lat="45.42377" lon="3.28014">
        <ele>471</ele>
        <time>2012-11-16T10:03:10Z</time>
      </trkpt>
      <trkpt lat="45.42397" lon="3.28012">
        <ele>471</ele>
        <time>2012-11-16T10:03:15Z</time>
      </trkpt>
      <trkpt lat="45.42417" lon="3.28009">
        <ele>472</ele>
        <time>2012-11-16T10:03:20Z</time>
      </trkpt>
      <trkpt lat="45.42439" lon="3.28003">
        <ele>473</ele>
        <time>2012-11-16T10:03:25Z</time>
      </trkpt>
      <trkpt lat="45.42461" lon="3.27998">
        <ele>475</ele>
        <time>2012-11-16T10:03:30Z</time>
      </trkpt>
      <trkpt lat="45.42478" lon="3.27992">
        <ele>476</ele>
        <time>2012-11-16T10:03:34Z</time>
      </trkpt>
      <trkpt lat="45.42496" lon="3.27984">
        <ele>476</ele>
        <time>2012-11-16T10:03:38Z</time>
      </trkpt>
      <trkpt lat="45.42513" lon="3.27974">
        <ele>477</ele>
        <time>2012-11-16T10:03:42Z</time>
      </trkpt>
      <trkpt lat="45.42531" lon="3.27964">
        <ele>478</ele>
        <time>2012-11-16T10:03:46Z</time>
      </trkpt>
      <trkpt lat="45.42551" lon="3.27957">
        <ele>478</ele>
        <time>2012-11-16T10:03:51Z</time>
      </trkpt>
      <trkpt lat="45.4257" lon="3.27949">
        <ele>478</ele>
        <time>2012-11-16T10:03:56Z</time>
      </trkpt>
      <trkpt lat="45.42591" lon="3.27944">
        <ele>479</ele>
        <time>2012-11-16T10:04:00Z</time>
      </trkpt>
      <trkpt lat="45.42609" lon="3.27941">
        <ele>480</ele>
        <time>2012-11-16T10:04:05Z</time>
      </trkpt>
      <trkpt lat="45.4263" lon="3.27939">
        <ele>480</ele>
        <time>2012-11-16T10:04:10Z</time>
      </trkpt>
      <trkpt lat="45.42652" lon="3.2794">
        <ele>480</ele>
        <time>2012-11-16T10:04:15Z</time>
      </trkpt>
      <trkpt lat="45.42671" lon="3.27942">
        <ele>481</ele>
        <time>2012-11-16T10:04:19Z</time>
      </trkpt>
      <trkpt lat="45.42691" lon="3.27944">
        <ele>481</ele>
        <time>2012-11-16T10:04:23Z</time>
      </trkpt>
      <trkpt lat="45.42712" lon="3.27945">
        <ele>481</ele>
        <time>2012-11-16T10:04:27Z</time>
      </trkpt>
      <trkpt lat="45.42734" lon="3.27943">
        <ele>481</ele>
        <time>2012-11-16T10:04:31Z</time>
      </trkpt>
      <trkpt lat="45.42756" lon="3.27937">
        <ele>481</ele>
        <time>2012-11-16T10:04:35Z</time>
      </trkpt>
      <trkpt lat="45.42779" lon="3.27931">
        <ele>481</ele>
        <time>2012-11-16T10:04:39Z</time>
      </trkpt>
      <trkpt lat="45.42797" lon="3.27927">
        <ele>481</ele>
        <time>2012-11-16T10:04:42Z</time>
      </trkpt>
      <trkpt lat="45.42819" lon="3.27919">
        <ele>481</ele>
        <time>2012-11-16T10:04:46Z</time>
      </trkpt>
      <trkpt lat="45.4284" lon="3.27915">
        <ele>482</ele>
        <time>2012-11-16T10:04:50Z</time>
      </trkpt>
      <trkpt lat="45.42861" lon="3.27911">
        <ele>481</ele>
        <time>2012-11-16T10:04:54Z</time>
      </trkpt>
      <trkpt lat="45.42883" lon="3.27909">
        <ele>481</ele>
        <time>2012-11-16T10:04:58Z</time>
      </trkpt>
      <trkpt lat="45.42905" lon="3.27906">
        <ele>481</ele>
        <time>2012-11-16T10:05:02Z</time>
      </trkpt>
      <trkpt lat="45.42927" lon="3.27901">
        <ele>481</ele>
        <time>2012-11-16T10:05:06Z</time>
      </trkpt>
      <trkpt lat="45.42949" lon="3.27899">
        <ele>481</ele>
        <time>2012-11-16T10:05:10Z</time>
      </trkpt>
      <trkpt lat="45.42971" lon="3.27897">
        <ele>481</ele>
        <time>2012-11-16T10:05:14Z</time>
      </trkpt>
      <trkpt lat="45.4299" lon="3.27893">
        <ele>481</ele>
        <time>2012-11-16T10:05:17Z</time>
      </trkpt>
      <trkpt lat="45.43009" lon="3.2789">
        <ele>481</ele>
        <time>2012-11-16T10:05:20Z</time>
      </trkpt>
      <trkpt lat="45.43028" lon="3.27887">
        <ele>481</ele>
        <time>2012-11-16T10:05:23Z</time>
      </trkpt>
      <trkpt lat="45.43047" lon="3.27888">
        <ele>480</ele>
        <time>2012-11-16T10:05:26Z</time>
      </trkpt>
      <trkpt lat="45.43067" lon="3.27885">
        <ele>480</ele>
        <time>2012-11-16T10:05:29Z</time>
      </trkpt>
      <trkpt lat="45.43088" lon="3.27881">
        <ele>480</ele>
        <time>2012-11-16T10:05:32Z</time>
      </trkpt>
      <trkpt lat="45.43108" lon="3.27878">
        <ele>480</ele>
        <time>2012-11-16T10:05:35Z</time>
      </trkpt>
      <trkpt lat="45.43129" lon="3.27875">
        <ele>480</ele>
        <time>2012-11-16T10:05:37Z</time>
      </trkpt>
      <trkpt lat="45.4315" lon="3.2787">
        <ele>480</ele>
        <time>2012-11-16T10:05:41Z</time>
      </trkpt>
      <trkpt lat="45.43171" lon="3.27868">
        <ele>480</ele>
        <time>2012-11-16T10:05:44Z</time>
      </trkpt>
      <trkpt lat="45.43193" lon="3.27862">
        <ele>480</ele>
        <time>2012-11-16T10:05:47Z</time>
      </trkpt>
      <trkpt lat="45.43212" lon="3.27858">
        <ele>480</ele>
        <time>2012-11-16T10:05:50Z</time>
      </trkpt>
      <trkpt lat="45.43232" lon="3.27854">
        <ele>480</ele>
        <time>2012-11-16T10:05:53Z</time>
      </trkpt>
      <trkpt lat="45.43251" lon="3.27851">
        <ele>480</ele>
        <time>2012-11-16T10:05:56Z</time>
      </trkpt>
      <trkpt lat="45.4327" lon="3.27848">
        <ele>480</ele>
        <time>2012-11-16T10:05:59Z</time>
      </trkpt>
      <trkpt lat="45.43289" lon="3.27845">
        <ele>480</ele>
        <time>2012-11-16T10:06:02Z</time>
      </trkpt>
      <trkpt lat="45.43308" lon="3.27842">
        <ele>480</ele>
        <time>2012-11-16T10:06:05Z</time>
      </trkpt>
      <trkpt lat="45.43328" lon="3.27837">
        <ele>480</ele>
        <time>2012-11-16T10:06:08Z</time>
      </trkpt>
      <trkpt lat="45.43347" lon="3.27835">
        <ele>480</ele>
        <time>2012-11-16T10:06:11Z</time>
      </trkpt>
      <trkpt lat="45.43366" lon="3.27836">
        <ele>479</ele>
        <time>2012-11-16T10:06:14Z</time>
      </trkpt>
      <trkpt lat="45.43385" lon="3.27832">
        <ele>479</ele>
        <time>2012-11-16T10:06:16Z</time>
      </trkpt>
      <trkpt lat="45.4341" lon="3.27827">
        <ele>478</ele>
        <time>2012-11-16T10:06:21Z</time>
      </trkpt>
      <trkpt lat="45.4343" lon="3.27826">
        <ele>478</ele>
        <time>2012-11-16T10:06:24Z</time>
      </trkpt>
      <trkpt lat="45.43451" lon="3.27821">
        <ele>477</ele>
        <time>2012-11-16T10:06:27Z</time>
      </trkpt>
      <trkpt lat="45.43473" lon="3.27819">
        <ele>477</ele>
        <time>2012-11-16T10:06:30Z</time>
      </trkpt>
      <trkpt lat="45.43497" lon="3.27817">
        <ele>476</ele>
        <time>2012-11-16T10:06:33Z</time>
      </trkpt>
      <trkpt lat="45.43521" lon="3.27811">
        <ele>474</ele>
        <time>2012-11-16T10:06:36Z</time>
      </trkpt>
      <trkpt lat="45.43544" lon="3.27808">
        <ele>474</ele>
        <time>2012-11-16T10:06:39Z</time>
      </trkpt>
      <trkpt lat="45.43568" lon="3.27805">
        <ele>473</ele>
        <time>2012-11-16T10:06:42Z</time>
      </trkpt>
      <trkpt lat="45.43591" lon="3.27802">
        <ele>471</ele>
        <time>2012-11-16T10:06:45Z</time>
      </trkpt>
      <trkpt lat="45.43611" lon="3.27797">
        <ele>471</ele>
        <time>2012-11-16T10:06:48Z</time>
      </trkpt>
      <trkpt lat="45.43632" lon="3.27796">
        <ele>471</ele>
        <time>2012-11-16T10:06:51Z</time>
      </trkpt>
      <trkpt lat="45.43651" lon="3.27791">
        <ele>471</ele>
        <time>2012-11-16T10:06:54Z</time>
      </trkpt>
      <trkpt lat="45.43671" lon="3.27786">
        <ele>469</ele>
        <time>2012-11-16T10:06:57Z</time>
      </trkpt>
      <trkpt lat="45.43689" lon="3.27783">
        <ele>469</ele>
        <time>2012-11-16T10:07:00Z</time>
      </trkpt>
      <trkpt lat="45.43709" lon="3.27778">
        <ele>469</ele>
        <time>2012-11-16T10:07:03Z</time>
      </trkpt>
      <trkpt lat="45.43728" lon="3.27775">
        <ele>468</ele>
        <time>2012-11-16T10:07:05Z</time>
      </trkpt>
      <trkpt lat="45.43748" lon="3.27771">
        <ele>468</ele>
        <time>2012-11-16T10:07:09Z</time>
      </trkpt>
      <trkpt lat="45.43767" lon="3.2777">
        <ele>466</ele>
        <time>2012-11-16T10:07:12Z</time>
      </trkpt>
      <trkpt lat="45.43786" lon="3.27767">
        <ele>466</ele>
        <time>2012-11-16T10:07:15Z</time>
      </trkpt>
      <trkpt lat="45.43805" lon="3.27763">
        <ele>465</ele>
        <time>2012-11-16T10:07:18Z</time>
      </trkpt>
      <trkpt lat="45.43827" lon="3.27763">
        <ele>464</ele>
        <time>2012-11-16T10:07:22Z</time>
      </trkpt>
      <trkpt lat="45.43842" lon="3.27786">
        <ele>462</ele>
        <time>2012-11-16T10:07:26Z</time>
      </trkpt>
      <trkpt lat="45.43855" lon="3.2781">
        <ele>462</ele>
        <time>2012-11-16T10:07:30Z</time>
      </trkpt>
      <trkpt lat="45.43867" lon="3.27833">
        <ele>462</ele>
        <time>2012-11-16T10:07:34Z</time>
      </trkpt>
      <trkpt lat="45.43879" lon="3.27857">
        <ele>462</ele>
        <time>2012-11-16T10:07:38Z</time>
      </trkpt>
      <trkpt lat="45.43892" lon="3.27883">
        <ele>462</ele>
        <time>2012-11-16T10:07:42Z</time>
      </trkpt>
      <trkpt lat="45.43905" lon="3.27908">
        <ele>462</ele>
        <time>2012-11-16T10:07:46Z</time>
      </trkpt>
      <trkpt lat="45.43918" lon="3.27934">
        <ele>462</ele>
        <time>2012-11-16T10:07:50Z</time>
      </trkpt>
      <trkpt lat="45.4393" lon="3.27957">
        <ele>462</ele>
        <time>2012-11-16T10:07:54Z</time>
      </trkpt>
      <trkpt lat="45.4394" lon="3.27978">
        <ele>463</ele>
        <time>2012-11-16T10:07:58Z</time>
      </trkpt>
      <trkpt lat="45.43952" lon="3.28003">
        <ele>465</ele>
        <time>2012-11-16T10:08:03Z</time>
      </trkpt>
      <trkpt lat="45.43964" lon="3.28025">
        <ele>465</ele>
        <time>2012-11-16T10:08:08Z</time>
      </trkpt>
      <trkpt lat="45.43976" lon="3.28047">
        <ele>466</ele>
        <time>2012-11-16T10:08:13Z</time>
      </trkpt>
      <trkpt lat="45.43987" lon="3.28069">
        <ele>466</ele>
        <time>2012-11-16T10:08:18Z</time>
      </trkpt>
      <trkpt lat="45.43998" lon="3.28091">
        <ele>467</ele>
        <time>2012-11-16T10:08:23Z</time>
      </trkpt>
      <trkpt lat="45.44009" lon="3.28111">
        <ele>466</ele>
        <time>2012-11-16T10:08:28Z</time>
      </trkpt>
      <trkpt lat="45.44024" lon="3.28129">
        <ele>466</ele>
        <time>2012-11-16T10:08:33Z</time>
      </trkpt>
      <trkpt lat="45.44039" lon="3.28147">
        <ele>466</ele>
        <time>2012-11-16T10:08:38Z</time>
      </trkpt>
      <trkpt lat="45.44054" lon="3.28166">
        <ele>467</ele>
        <time>2012-11-16T10:08:43Z</time>
      </trkpt>
      <trkpt lat="45.44069" lon="3.2819">
        <ele>467</ele>
        <time>2012-11-16T10:08:48Z</time>
      </trkpt>
      <trkpt lat="45.44081" lon="3.28209">
        <ele>467</ele>
        <time>2012-11-16T10:08:52Z</time>
      </trkpt>
      <trkpt lat="45.44095" lon="3.28228">
        <ele>466</ele>
        <time>2012-11-16T10:08:56Z</time>
      </trkpt>
      <trkpt lat="45.44108" lon="3.28247">
        <ele>466</ele>
        <time>2012-11-16T10:09:00Z</time>
      </trkpt>
      <trkpt lat="45.44123" lon="3.28272">
        <ele>465</ele>
        <time>2012-11-16T10:09:05Z</time>
      </trkpt>
      <trkpt lat="45.44136" lon="3.28289">
        <ele>465</ele>
        <time>2012-11-16T10:09:09Z</time>
      </trkpt>
      <trkpt lat="45.44155" lon="3.28307">
        <ele>464</ele>
        <time>2012-11-16T10:09:13Z</time>
      </trkpt>
      <trkpt lat="45.44175" lon="3.28326">
        <ele>462</ele>
        <time>2012-11-16T10:09:17Z</time>
      </trkpt>
      <trkpt lat="45.44192" lon="3.28341">
        <ele>461</ele>
        <time>2012-11-16T10:09:19Z</time>
      </trkpt>
      <trkpt lat="45.44208" lon="3.28356">
        <ele>461</ele>
        <time>2012-11-16T10:09:23Z</time>
      </trkpt>
      <trkpt lat="45.44226" lon="3.28373">
        <ele>460</ele>
        <time>2012-11-16T10:09:26Z</time>
      </trkpt>
      <trkpt lat="45.4424" lon="3.28394">
        <ele>459</ele>
        <time>2012-11-16T10:09:29Z</time>
      </trkpt>
      <trkpt lat="45.44253" lon="3.28417">
        <ele>457</ele>
        <time>2012-11-16T10:09:32Z</time>
      </trkpt>
      <trkpt lat="45.44265" lon="3.28437">
        <ele>456</ele>
        <time>2012-11-16T10:09:35Z</time>
      </trkpt>
      <trkpt lat="45.44278" lon="3.28461">
        <ele>456</ele>
        <time>2012-11-16T10:09:38Z</time>
      </trkpt>
      <trkpt lat="45.44291" lon="3.28483">
        <ele>456</ele>
        <time>2012-11-16T10:09:40Z</time>
      </trkpt>
      <trkpt lat="45.44309" lon="3.28493">
        <ele>455</ele>
        <time>2012-11-16T10:09:44Z</time>
      </trkpt>
      <trkpt lat="45.4433" lon="3.28492">
        <ele>455</ele>
        <time>2012-11-16T10:09:47Z</time>
      </trkpt>
      <trkpt lat="45.44352" lon="3.2849">
        <ele>454</ele>
        <time>2012-11-16T10:09:50Z</time>
      </trkpt>
      <trkpt lat="45.44375" lon="3.28482">
        <ele>454</ele>
        <time>2012-11-16T10:09:53Z</time>
      </trkpt>
      <trkpt lat="45.44398" lon="3.28467">
        <ele>453</ele>
        <time>2012-11-16T10:09:56Z</time>
      </trkpt>
      <trkpt lat="45.44416" lon="3.28451">
        <ele>453</ele>
        <time>2012-11-16T10:09:59Z</time>
      </trkpt>
      <trkpt lat="45.44433" lon="3.28462">
        <ele>451</ele>
        <time>2012-11-16T10:10:08Z</time>
      </trkpt>
      <trkpt lat="45.44443" lon="3.28495">
        <ele>451</ele>
        <time>2012-11-16T10:10:14Z</time>
      </trkpt>
      <trkpt lat="45.44457" lon="3.28519">
        <ele>449</ele>
        <time>2012-11-16T10:10:18Z</time>
      </trkpt>
      <trkpt lat="45.44472" lon="3.28542">
        <ele>448</ele>
        <time>2012-11-16T10:10:20Z</time>
      </trkpt>
      <trkpt lat="45.44494" lon="3.28544">
        <ele>447</ele>
        <time>2012-11-16T10:10:24Z</time>
      </trkpt>
      <trkpt lat="45.44519" lon="3.28541">
        <ele>444</ele>
        <time>2012-11-16T10:10:27Z</time>
      </trkpt>
      <trkpt lat="45.44541" lon="3.28533">
        <ele>444</ele>
        <time>2012-11-16T10:10:30Z</time>
      </trkpt>
      <trkpt lat="45.44565" lon="3.28551">
        <ele>443</ele>
        <time>2012-11-16T10:10:34Z</time>
      </trkpt>
      <trkpt lat="45.44579" lon="3.28572">
        <ele>442</ele>
        <time>2012-11-16T10:10:36Z</time>
      </trkpt>
      <trkpt lat="45.44602" lon="3.28588">
        <ele>441</ele>
        <time>2012-11-16T10:10:39Z</time>
      </trkpt>
      <trkpt lat="45.44623" lon="3.2861">
        <ele>441</ele>
        <time>2012-11-16T10:10:42Z</time>
      </trkpt>
      <trkpt lat="45.44634" lon="3.2863">
        <ele>441</ele>
        <time>2012-11-16T10:10:44Z</time>
      </trkpt>
      <trkpt lat="45.44645" lon="3.28659">
        <ele>440</ele>
        <time>2012-11-16T10:10:47Z</time>
      </trkpt>
      <trkpt lat="45.44665" lon="3.28672">
        <ele>439</ele>
        <time>2012-11-16T10:10:50Z</time>
      </trkpt>
      <trkpt lat="45.44686" lon="3.28675">
        <ele>440</ele>
        <time>2012-11-16T10:10:53Z</time>
      </trkpt>
      <trkpt lat="45.44705" lon="3.28675">
        <ele>440</ele>
        <time>2012-11-16T10:10:56Z</time>
      </trkpt>
      <trkpt lat="45.44728" lon="3.28673">
        <ele>443</ele>
        <time>2012-11-16T10:11:00Z</time>
      </trkpt>
      <trkpt lat="45.4475" lon="3.28683">
        <ele>448</ele>
        <time>2012-11-16T10:11:04Z</time>
      </trkpt>
      <trkpt lat="45.44772" lon="3.28685">
        <ele>448</ele>
        <time>2012-11-16T10:11:09Z</time>
      </trkpt>
      <trkpt lat="45.44792" lon="3.28704">
        <ele>448</ele>
        <time>2012-11-16T10:11:13Z</time>
      </trkpt>
      <trkpt lat="45.44804" lon="3.28727">
        <ele>448</ele>
        <time>2012-11-16T10:11:18Z</time>
      </trkpt>
      <trkpt lat="45.44813" lon="3.28755">
        <ele>446</ele>
        <time>2012-11-16T10:11:23Z</time>
      </trkpt>
      <trkpt lat="45.4482" lon="3.28782">
        <ele>445</ele>
        <time>2012-11-16T10:11:28Z</time>
      </trkpt>
      <trkpt lat="45.44824" lon="3.28811">
        <ele>444</ele>
        <time>2012-11-16T10:11:34Z</time>
      </trkpt>
      <trkpt lat="45.44842" lon="3.28823">
        <ele>448</ele>
        <time>2012-11-16T10:11:40Z</time>
      </trkpt>
      <trkpt lat="45.44862" lon="3.28816">
        <ele>449</ele>
        <time>2012-11-16T10:11:46Z</time>
      </trkpt>
      <trkpt lat="45.44885" lon="3.28819">
        <ele>450</ele>
        <time>2012-11-16T10:11:51Z</time>
      </trkpt>
      <trkpt lat="45.44907" lon="3.28819">
        <ele>450</ele>
        <time>2012-11-16T10:11:55Z</time>
      </trkpt>
      <trkpt lat="45.4493" lon="3.28819">
        <ele>450</ele>
        <time>2012-11-16T10:11:59Z</time>
      </trkpt>
      <trkpt lat="45.44949" lon="3.28822">
        <ele>450</ele>
        <time>2012-11-16T10:12:02Z</time>
      </trkpt>
      <trkpt lat="45.44969" lon="3.28821">
        <ele>449</ele>
        <time>2012-11-16T10:12:05Z</time>
      </trkpt>
      <trkpt lat="45.44988" lon="3.28819">
        <ele>449</ele>
        <time>2012-11-16T10:12:08Z</time>
      </trkpt>
      <trkpt lat="45.45008" lon="3.28816">
        <ele>447</ele>
        <time>2012-11-16T10:12:11Z</time>
      </trkpt>
      <trkpt lat="45.45028" lon="3.28813">
        <ele>447</ele>
        <time>2012-11-16T10:12:14Z</time>
      </trkpt>
      <trkpt lat="45.45049" lon="3.28809">
        <ele>447</ele>
        <time>2012-11-16T10:12:17Z</time>
      </trkpt>
      <trkpt lat="45.4507" lon="3.28806">
        <ele>447</ele>
        <time>2012-11-16T10:12:20Z</time>
      </trkpt>
      <trkpt lat="45.4509" lon="3.28803">
        <ele>446</ele>
        <time>2012-11-16T10:12:23Z</time>
      </trkpt>
      <trkpt lat="45.45111" lon="3.28799">
        <ele>446</ele>
        <time>2012-11-16T10:12:26Z</time>
      </trkpt>
      <trkpt lat="45.45133" lon="3.28796">
        <ele>446</ele>
        <time>2012-11-16T10:12:29Z</time>
      </trkpt>
      <trkpt lat="45.45154" lon="3.28793">
        <ele>446</ele>
        <time>2012-11-16T10:12:31Z</time>
      </trkpt>
      <trkpt lat="45.45175" lon="3.28789">
        <ele>444</ele>
        <time>2012-11-16T10:12:35Z</time>
      </trkpt>
      <trkpt lat="45.45197" lon="3.28783">
        <ele>444</ele>
        <time>2012-11-16T10:12:38Z</time>
      </trkpt>
      <trkpt lat="45.45213" lon="3.28798">
        <ele>444</ele>
        <time>2012-11-16T10:12:42Z</time>
      </trkpt>
      <trkpt lat="45.45219" lon="3.28828">
        <ele>443</ele>
        <time>2012-11-16T10:12:46Z</time>
      </trkpt>
      <trkpt lat="45.45225" lon="3.28853">
        <ele>442</ele>
        <time>2012-11-16T10:12:49Z</time>
      </trkpt>
      <trkpt lat="45.45231" lon="3.28879">
        <ele>442</ele>
        <time>2012-11-16T10:12:52Z</time>
      </trkpt>
      <trkpt lat="45.45236" lon="3.28905">
        <ele>441</ele>
        <time>2012-11-16T10:12:55Z</time>
      </trkpt>
      <trkpt lat="45.45242" lon="3.28931">
        <ele>440</ele>
        <time>2012-11-16T10:12:58Z</time>
      </trkpt>
      <trkpt lat="45.45248" lon="3.28957">
        <ele>440</ele>
        <time>2012-11-16T10:13:01Z</time>
      </trkpt>
      <trkpt lat="45.45254" lon="3.28984">
        <ele>439</ele>
        <time>2012-11-16T10:13:04Z</time>
      </trkpt>
      <trkpt lat="45.45259" lon="3.29013">
        <ele>438</ele>
        <time>2012-11-16T10:13:07Z</time>
      </trkpt>
      <trkpt lat="45.45267" lon="3.29041">
        <ele>437</ele>
        <time>2012-11-16T10:13:10Z</time>
      </trkpt>
      <trkpt lat="45.45273" lon="3.29069">
        <ele>437</ele>
        <time>2012-11-16T10:13:13Z</time>
      </trkpt>
      <trkpt lat="45.4528" lon="3.29098">
        <ele>436</ele>
        <time>2012-11-16T10:13:16Z</time>
      </trkpt>
      <trkpt lat="45.45286" lon="3.29127">
        <ele>435</ele>
        <time>2012-11-16T10:13:19Z</time>
      </trkpt>
      <trkpt lat="45.45292" lon="3.29156">
        <ele>435</ele>
        <time>2012-11-16T10:13:22Z</time>
      </trkpt>
      <trkpt lat="45.45297" lon="3.29186">
        <ele>434</ele>
        <time>2012-11-16T10:13:25Z</time>
      </trkpt>
      <trkpt lat="45.45302" lon="3.29215">
        <ele>434</ele>
        <time>2012-11-16T10:13:28Z</time>
      </trkpt>
      <trkpt lat="45.45307" lon="3.29243">
        <ele>433</ele>
        <time>2012-11-16T10:13:31Z</time>
      </trkpt>
      <trkpt lat="45.45312" lon="3.2927">
        <ele>433</ele>
        <time>2012-11-16T10:13:34Z</time>
      </trkpt>
      <trkpt lat="45.45316" lon="3.29296">
        <ele>433</ele>
        <time>2012-11-16T10:13:37Z</time>
      </trkpt>
      <trkpt lat="45.45327" lon="3.29319">
        <ele>433</ele>
        <time>2012-11-16T10:13:41Z</time>
      </trkpt>
      <trkpt lat="45.45348" lon="3.29315">
        <ele>432</ele>
        <time>2012-11-16T10:13:46Z</time>
      </trkpt>
      <trkpt lat="45.45369" lon="3.29309">
        <ele>432</ele>
        <time>2012-11-16T10:13:52Z</time>
      </trkpt>
      <trkpt lat="45.45391" lon="3.29305">
        <ele>432</ele>
        <time>2012-11-16T10:13:57Z</time>
      </trkpt>
      <trkpt lat="45.45411" lon="3.293">
        <ele>432</ele>
        <time>2012-11-16T10:14:01Z</time>
      </trkpt>
      <trkpt lat="45.4543" lon="3.29296">
        <ele>431</ele>
        <time>2012-11-16T10:14:05Z</time>
      </trkpt>
      <trkpt lat="45.45448" lon="3.29288">
        <ele>431</ele>
        <time>2012-11-16T10:14:09Z</time>
      </trkpt>
      <trkpt lat="45.45471" lon="3.29285">
        <ele>431</ele>
        <time>2012-11-16T10:14:14Z</time>
      </trkpt>
      <trkpt lat="45.45492" lon="3.29278">
        <ele>430</ele>
        <time>2012-11-16T10:14:18Z</time>
      </trkpt>
      <trkpt lat="45.45509" lon="3.29273">
        <ele>429</ele>
        <time>2012-11-16T10:14:21Z</time>
      </trkpt>
      <trkpt lat="45.45528" lon="3.29267">
        <ele>428</ele>
        <time>2012-11-16T10:14:24Z</time>
      </trkpt>
      <trkpt lat="45.45548" lon="3.29262">
        <ele>428</ele>
        <time>2012-11-16T10:14:27Z</time>
      </trkpt>
      <trkpt lat="45.45568" lon="3.29257">
        <ele>427</ele>
        <time>2012-11-16T10:14:30Z</time>
      </trkpt>
      <trkpt lat="45.45589" lon="3.29249">
        <ele>425</ele>
        <time>2012-11-16T10:14:33Z</time>
      </trkpt>
      <trkpt lat="45.45611" lon="3.29242">
        <ele>424</ele>
        <time>2012-11-16T10:14:36Z</time>
      </trkpt>
      <trkpt lat="45.45629" lon="3.29237">
        <ele>423</ele>
        <time>2012-11-16T10:14:38Z</time>
      </trkpt>
      <trkpt lat="45.45647" lon="3.29235">
        <ele>422</ele>
        <time>2012-11-16T10:14:40Z</time>
      </trkpt>
      <trkpt lat="45.45666" lon="3.29239">
        <ele>421</ele>
        <time>2012-11-16T10:14:42Z</time>
      </trkpt>
      <trkpt lat="45.45684" lon="3.29244">
        <ele>419</ele>
        <time>2012-11-16T10:14:44Z</time>
      </trkpt>
      <trkpt lat="45.45709" lon="3.29248">
        <ele>419</ele>
        <time>2012-11-16T10:14:47Z</time>
      </trkpt>
      <trkpt lat="45.45729" lon="3.2923">
        <ele>419</ele>
        <time>2012-11-16T10:14:50Z</time>
      </trkpt>
      <trkpt lat="45.45748" lon="3.29206">
        <ele>418</ele>
        <time>2012-11-16T10:14:53Z</time>
      </trkpt>
      <trkpt lat="45.4576" lon="3.29185">
        <ele>416</ele>
        <time>2012-11-16T10:14:55Z</time>
      </trkpt>
      <trkpt lat="45.45773" lon="3.29163">
        <ele>412</ele>
        <time>2012-11-16T10:14:57Z</time>
      </trkpt>
      <trkpt lat="45.45787" lon="3.29143">
        <ele>410</ele>
        <time>2012-11-16T10:14:59Z</time>
      </trkpt>
      <trkpt lat="45.45803" lon="3.29123">
        <ele>409</ele>
        <time>2012-11-16T10:15:01Z</time>
      </trkpt>
      <trkpt lat="45.4582" lon="3.29104">
        <ele>407</ele>
        <time>2012-11-16T10:15:03Z</time>
      </trkpt>
      <trkpt lat="45.45837" lon="3.29088">
        <ele>403</ele>
        <time>2012-11-16T10:15:05Z</time>
      </trkpt>
      <trkpt lat="45.45858" lon="3.29079">
        <ele>400</ele>
        <time>2012-11-16T10:15:07Z</time>
      </trkpt>
      <trkpt lat="45.45878" lon="3.29073">
        <ele>400</ele>
        <time>2012-11-16T10:15:09Z</time>
      </trkpt>
      <trkpt lat="45.45898" lon="3.29069">
        <ele>399</ele>
        <time>2012-11-16T10:15:11Z</time>
      </trkpt>
      <trkpt lat="45.45917" lon="3.29064">
        <ele>398</ele>
        <time>2012-11-16T10:15:13Z</time>
      </trkpt>
      <trkpt lat="45.45937" lon="3.29059">
        <ele>397</ele>
        <time>2012-11-16T10:15:15Z</time>
      </trkpt>
      <trkpt lat="45.45955" lon="3.29054">
        <ele>396</ele>
        <time>2012-11-16T10:15:17Z</time>
      </trkpt>
      <trkpt lat="45.45982" lon="3.29047">
        <ele>396</ele>
        <time>2012-11-16T10:15:20Z</time>
      </trkpt>
      <trkpt lat="45.46007" lon="3.29039">
        <ele>394</ele>
        <time>2012-11-16T10:15:23Z</time>
      </trkpt>
      <trkpt lat="45.46031" lon="3.29034">
        <ele>393</ele>
        <time>2012-11-16T10:15:26Z</time>
      </trkpt>
      <trkpt lat="45.46056" lon="3.29029">
        <ele>393</ele>
        <time>2012-11-16T10:15:29Z</time>
      </trkpt>
      <trkpt lat="45.46081" lon="3.29027">
        <ele>392</ele>
        <time>2012-11-16T10:15:32Z</time>
      </trkpt>
      <trkpt lat="45.46104" lon="3.29027">
        <ele>390</ele>
        <time>2012-11-16T10:15:35Z</time>
      </trkpt>
      <trkpt lat="45.46126" lon="3.29025">
        <ele>390</ele>
        <time>2012-11-16T10:15:38Z</time>
      </trkpt>
      <trkpt lat="45.46147" lon="3.29025">
        <ele>390</ele>
        <time>2012-11-16T10:15:41Z</time>
      </trkpt>
      <trkpt lat="45.46167" lon="3.29023">
        <ele>389</ele>
        <time>2012-11-16T10:15:44Z</time>
      </trkpt>
      <trkpt lat="45.46188" lon="3.29023">
        <ele>389</ele>
        <time>2012-11-16T10:15:48Z</time>
      </trkpt>
      <trkpt lat="45.46209" lon="3.29024">
        <ele>389</ele>
        <time>2012-11-16T10:15:52Z</time>
      </trkpt>
      <trkpt lat="45.46229" lon="3.29025">
        <ele>389</ele>
        <time>2012-11-16T10:15:57Z</time>
      </trkpt>
      <trkpt lat="45.46247" lon="3.29024">
        <ele>390</ele>
        <time>2012-11-16T10:16:02Z</time>
      </trkpt>
      <trkpt lat="45.46267" lon="3.29022">
        <ele>390</ele>
        <time>2012-11-16T10:16:06Z</time>
      </trkpt>
      <trkpt lat="45.46287" lon="3.29021">
        <ele>390</ele>
        <time>2012-11-16T10:16:10Z</time>
      </trkpt>
      <trkpt lat="45.46307" lon="3.29021">
        <ele>390</ele>
        <time>2012-11-16T10:16:14Z</time>
      </trkpt>
      <trkpt lat="45.46327" lon="3.29022">
        <ele>390</ele>
        <time>2012-11-16T10:16:18Z</time>
      </trkpt>
      <trkpt lat="45.46349" lon="3.29022">
        <ele>390</ele>
        <time>2012-11-16T10:16:22Z</time>
      </trkpt>
      <trkpt lat="45.4637" lon="3.29023">
        <ele>390</ele>
        <time>2012-11-16T10:16:26Z</time>
      </trkpt>
      <trkpt lat="45.46389" lon="3.29023">
        <ele>390</ele>
        <time>2012-11-16T10:16:30Z</time>
      </trkpt>
      <trkpt lat="45.46411" lon="3.29022">
        <ele>390</ele>
        <time>2012-11-16T10:16:35Z</time>
      </trkpt>
      <trkpt lat="45.46414" lon="3.28997">
        <ele>390</ele>
        <time>2012-11-16T10:16:40Z</time>
      </trkpt>
      <trkpt lat="45.46407" lon="3.28971">
        <ele>390</ele>
        <time>2012-11-16T10:16:44Z</time>
      </trkpt>
      <trkpt lat="45.46397" lon="3.28948">
        <ele>390</ele>
        <time>2012-11-16T10:16:48Z</time>
      </trkpt>
      <trkpt lat="45.46389" lon="3.28923">
        <ele>390</ele>
        <time>2012-11-16T10:16:52Z</time>
      </trkpt>
      <trkpt lat="45.46382" lon="3.28895">
        <ele>389</ele>
        <time>2012-11-16T10:16:56Z</time>
      </trkpt>
      <trkpt lat="45.46372" lon="3.2887">
        <ele>389</ele>
        <time>2012-11-16T10:17:00Z</time>
      </trkpt>
      <trkpt lat="45.4636" lon="3.28844">
        <ele>389</ele>
        <time>2012-11-16T10:17:04Z</time>
      </trkpt>
      <trkpt lat="45.46352" lon="3.28818">
        <ele>388</ele>
        <time>2012-11-16T10:17:08Z</time>
      </trkpt>
      <trkpt lat="45.46344" lon="3.28791">
        <ele>389</ele>
        <time>2012-11-16T10:17:12Z</time>
      </trkpt>
      <trkpt lat="45.46335" lon="3.28764">
        <ele>388</ele>
        <time>2012-11-16T10:17:16Z</time>
      </trkpt>
      <trkpt lat="45.46328" lon="3.28736">
        <ele>388</ele>
        <time>2012-11-16T10:17:20Z</time>
      </trkpt>
      <trkpt lat="45.46321" lon="3.28709">
        <ele>388</ele>
        <time>2012-11-16T10:17:24Z</time>
      </trkpt>
      <trkpt lat="45.46313" lon="3.28681">
        <ele>388</ele>
        <time>2012-11-16T10:17:28Z</time>
      </trkpt>
      <trkpt lat="45.46305" lon="3.28653">
        <ele>388</ele>
        <time>2012-11-16T10:17:32Z</time>
      </trkpt>
      <trkpt lat="45.46296" lon="3.28624">
        <ele>388</ele>
        <time>2012-11-16T10:17:36Z</time>
      </trkpt>
      <trkpt lat="45.46288" lon="3.28596">
        <ele>388</ele>
        <time>2012-11-16T10:17:40Z</time>
      </trkpt>
      <trkpt lat="45.46288" lon="3.28566">
        <ele>387</ele>
        <time>2012-11-16T10:17:44Z</time>
      </trkpt>
      <trkpt lat="45.46289" lon="3.28535">
        <ele>387</ele>
        <time>2012-11-16T10:17:48Z</time>
      </trkpt>
      <trkpt lat="45.46288" lon="3.28506">
        <ele>387</ele>
        <time>2012-11-16T10:17:52Z</time>
      </trkpt>
      <trkpt lat="45.46287" lon="3.28477">
        <ele>387</ele>
        <time>2012-11-16T10:17:56Z</time>
      </trkpt>
      <trkpt lat="45.46285" lon="3.28447">
        <ele>388</ele>
        <time>2012-11-16T10:18:00Z</time>
      </trkpt>
      <trkpt lat="45.46283" lon="3.28418">
        <ele>388</ele>
        <time>2012-11-16T10:18:04Z</time>
      </trkpt>
      <trkpt lat="45.46281" lon="3.28389">
        <ele>388</ele>
        <time>2012-11-16T10:18:08Z</time>
      </trkpt>
      <trkpt lat="45.46276" lon="3.28358">
        <ele>388</ele>
        <time>2012-11-16T10:18:12Z</time>
      </trkpt>
      <trkpt lat="45.46266" lon="3.2833">
        <ele>388</ele>
        <time>2012-11-16T10:18:16Z</time>
      </trkpt>
      <trkpt lat="45.46262" lon="3.28303">
        <ele>387</ele>
        <time>2012-11-16T10:18:20Z</time>
      </trkpt>
      <trkpt lat="45.46262" lon="3.28271">
        <ele>387</ele>
        <time>2012-11-16T10:18:24Z</time>
      </trkpt>
      <trkpt lat="45.46263" lon="3.28238">
        <ele>386</ele>
        <time>2012-11-16T10:18:28Z</time>
      </trkpt>
      <trkpt lat="45.46264" lon="3.28213">
        <ele>386</ele>
        <time>2012-11-16T10:18:31Z</time>
      </trkpt>
      <trkpt lat="45.46265" lon="3.28179">
        <ele>386</ele>
        <time>2012-11-16T10:18:35Z</time>
      </trkpt>
      <trkpt lat="45.46267" lon="3.28147">
        <ele>386</ele>
        <time>2012-11-16T10:18:39Z</time>
      </trkpt>
      <trkpt lat="45.4628" lon="3.28123">
        <ele>386</ele>
        <time>2012-11-16T10:18:43Z</time>
      </trkpt>
      <trkpt lat="45.463" lon="3.28119">
        <ele>386</ele>
        <time>2012-11-16T10:18:46Z</time>
      </trkpt>
      <trkpt lat="45.46319" lon="3.2812">
        <ele>386</ele>
        <time>2012-11-16T10:18:49Z</time>
      </trkpt>
      <trkpt lat="45.46338" lon="3.28121">
        <ele>385</ele>
        <time>2012-11-16T10:18:52Z</time>
      </trkpt>
      <trkpt lat="45.46361" lon="3.28123">
        <ele>385</ele>
        <time>2012-11-16T10:18:56Z</time>
      </trkpt>
      <trkpt lat="45.46381" lon="3.28122">
        <ele>385</ele>
        <time>2012-11-16T10:19:00Z</time>
      </trkpt>
      <trkpt lat="45.46386" lon="3.28095">
        <ele>385</ele>
        <time>2012-11-16T10:19:04Z</time>
      </trkpt>
      <trkpt lat="45.46385" lon="3.28065">
        <ele>385</ele>
        <time>2012-11-16T10:19:08Z</time>
      </trkpt>
      <trkpt lat="45.46385" lon="3.28037">
        <ele>385</ele>
        <time>2012-11-16T10:19:12Z</time>
      </trkpt>
      <trkpt lat="45.46385" lon="3.28008">
        <ele>385</ele>
        <time>2012-11-16T10:19:16Z</time>
      </trkpt>
      <trkpt lat="45.46385" lon="3.27983">
        <ele>385</ele>
        <time>2012-11-16T10:19:20Z</time>
      </trkpt>
      <trkpt lat="45.46385" lon="3.27956">
        <ele>385</ele>
        <time>2012-11-16T10:19:24Z</time>
      </trkpt>
      <trkpt lat="45.46386" lon="3.27928">
        <ele>385</ele>
        <time>2012-11-16T10:19:28Z</time>
      </trkpt>
      <trkpt lat="45.46386" lon="3.27902">
        <ele>386</ele>
        <time>2012-11-16T10:19:32Z</time>
      </trkpt>
      <trkpt lat="45.46386" lon="3.27876">
        <ele>386</ele>
        <time>2012-11-16T10:19:36Z</time>
      </trkpt>
      <trkpt lat="45.46386" lon="3.2785">
        <ele>386</ele>
        <time>2012-11-16T10:19:40Z</time>
      </trkpt>
      <trkpt lat="45.46388" lon="3.27819">
        <ele>386</ele>
        <time>2012-11-16T10:19:45Z</time>
      </trkpt>
      <trkpt lat="45.46388" lon="3.27787">
        <ele>386</ele>
        <time>2012-11-16T10:19:50Z</time>
      </trkpt>
      <trkpt lat="45.46389" lon="3.27762">
        <ele>386</ele>
        <time>2012-11-16T10:19:54Z</time>
      </trkpt>
      <trkpt lat="45.46389" lon="3.27734">
        <ele>386</ele>
        <time>2012-11-16T10:19:58Z</time>
      </trkpt>
      <trkpt lat="45.4639" lon="3.27707">
        <ele>386</ele>
        <time>2012-11-16T10:20:02Z</time>
      </trkpt>
      <trkpt lat="45.46391" lon="3.27678">
        <ele>386</ele>
        <time>2012-11-16T10:20:06Z</time>
      </trkpt>
      <trkpt lat="45.4639" lon="3.27649">
        <ele>385</ele>
        <time>2012-11-16T10:20:10Z</time>
      </trkpt>
      <trkpt lat="45.46383" lon="3.2762">
        <ele>386</ele>
        <time>2012-11-16T10:20:14Z</time>
      </trkpt>
      <trkpt lat="45.46374" lon="3.27593">
        <ele>385</ele>
        <time>2012-11-16T10:20:18Z</time>
      </trkpt>
      <trkpt lat="45.46364" lon="3.27569">
        <ele>386</ele>
        <time>2012-11-16T10:20:22Z</time>
      </trkpt>
      <trkpt lat="45.46349" lon="3.27548">
        <ele>386</ele>
        <time>2012-11-16T10:20:26Z</time>
      </trkpt>
      <trkpt lat="45.46333" lon="3.27531">
        <ele>386</ele>
        <time>2012-11-16T10:20:30Z</time>
      </trkpt>
      <trkpt lat="45.46316" lon="3.27515">
        <ele>386</ele>
        <time>2012-11-16T10:20:34Z</time>
      </trkpt>
      <trkpt lat="45.463" lon="3.27499">
        <ele>387</ele>
        <time>2012-11-16T10:20:38Z</time>
      </trkpt>
      <trkpt lat="45.46284" lon="3.27484">
        <ele>387</ele>
        <time>2012-11-16T10:20:42Z</time>
      </trkpt>
      <trkpt lat="45.46281" lon="3.27455">
        <ele>387</ele>
        <time>2012-11-16T10:20:47Z</time>
      </trkpt>
      <trkpt lat="45.46281" lon="3.27424">
        <ele>388</ele>
        <time>2012-11-16T10:20:51Z</time>
      </trkpt>
      <trkpt lat="45.46283" lon="3.27392">
        <ele>389</ele>
        <time>2012-11-16T10:20:55Z</time>
      </trkpt>
      <trkpt lat="45.46283" lon="3.27361">
        <ele>389</ele>
        <time>2012-11-16T10:20:59Z</time>
      </trkpt>
      <trkpt lat="45.46282" lon="3.27331">
        <ele>390</ele>
        <time>2012-11-16T10:21:03Z</time>
      </trkpt>
      <trkpt lat="45.46285" lon="3.27299">
        <ele>390</ele>
        <time>2012-11-16T10:21:07Z</time>
      </trkpt>
      <trkpt lat="45.46286" lon="3.27267">
        <ele>390</ele>
        <time>2012-11-16T10:21:11Z</time>
      </trkpt>
      <trkpt lat="45.46286" lon="3.27234">
        <ele>389</ele>
        <time>2012-11-16T10:21:15Z</time>
      </trkpt>
      <trkpt lat="45.46287" lon="3.27202">
        <ele>389</ele>
        <time>2012-11-16T10:21:19Z</time>
      </trkpt>
      <trkpt lat="45.46288" lon="3.27171">
        <ele>389</ele>
        <time>2012-11-16T10:21:23Z</time>
      </trkpt>
      <trkpt lat="45.46301" lon="3.27151">
        <ele>389</ele>
        <time>2012-11-16T10:21:29Z</time>
      </trkpt>
      <trkpt lat="45.46325" lon="3.27152">
        <ele>389</ele>
        <time>2012-11-16T10:21:33Z</time>
      </trkpt>
      <trkpt lat="45.46348" lon="3.27153">
        <ele>389</ele>
        <time>2012-11-16T10:21:37Z</time>
      </trkpt>
      <trkpt lat="45.46369" lon="3.27154">
        <ele>389</ele>
        <time>2012-11-16T10:21:41Z</time>
      </trkpt>
      <trkpt lat="45.46387" lon="3.27157">
        <ele>389</ele>
        <time>2012-11-16T10:21:45Z</time>
      </trkpt>
      <trkpt lat="45.46405" lon="3.27156">
        <ele>388</ele>
        <time>2012-11-16T10:22:03Z</time>
      </trkpt>
      <trkpt lat="45.46414" lon="3.27131">
        <ele>389</ele>
        <time>2012-11-16T10:25:25Z</time>
      </trkpt>
      <trkpt lat="45.4642" lon="3.27106">
        <ele>389</ele>
        <time>2012-11-16T10:25:31Z</time>
      </trkpt>
      <trkpt lat="45.4642" lon="3.27078">
        <ele>390</ele>
        <time>2012-11-16T10:25:36Z</time>
      </trkpt>
      <trkpt lat="45.46416" lon="3.2705">
        <ele>390</ele>
        <time>2012-11-16T10:25:41Z</time>
      </trkpt>
      <trkpt lat="45.4641" lon="3.27021">
        <ele>389</ele>
        <time>2012-11-16T10:25:46Z</time>
      </trkpt>
      <trkpt lat="45.46403" lon="3.26992">
        <ele>389</ele>
        <time>2012-11-16T10:25:51Z</time>
      </trkpt>
      <trkpt lat="45.46396" lon="3.26963">
        <ele>390</ele>
        <time>2012-11-16T10:25:56Z</time>
      </trkpt>
      <trkpt lat="45.46389" lon="3.26934">
        <ele>390</ele>
        <time>2012-11-16T10:26:01Z</time>
      </trkpt>
      <trkpt lat="45.46389" lon="3.26904">
        <ele>390</ele>
        <time>2012-11-16T10:26:06Z</time>
      </trkpt>
      <trkpt lat="45.46396" lon="3.26879">
        <ele>390</ele>
        <time>2012-11-16T10:26:10Z</time>
      </trkpt>
      <trkpt lat="45.46399" lon="3.26854">
        <ele>390</ele>
        <time>2012-11-16T10:26:14Z</time>
      </trkpt>
      <trkpt lat="45.46396" lon="3.26826">
        <ele>390</ele>
        <time>2012-11-16T10:26:18Z</time>
      </trkpt>
      <trkpt lat="45.46391" lon="3.26801">
        <ele>390</ele>
        <time>2012-11-16T10:26:22Z</time>
      </trkpt>
      <trkpt lat="45.46386" lon="3.26772">
        <ele>390</ele>
        <time>2012-11-16T10:26:26Z</time>
      </trkpt>
      <trkpt lat="45.46385" lon="3.26739">
        <ele>389</ele>
        <time>2012-11-16T10:26:31Z</time>
      </trkpt>
      <trkpt lat="45.46391" lon="3.26709">
        <ele>389</ele>
        <time>2012-11-16T10:26:36Z</time>
      </trkpt>
      <trkpt lat="45.46395" lon="3.26681">
        <ele>389</ele>
        <time>2012-11-16T10:26:40Z</time>
      </trkpt>
      <trkpt lat="45.46399" lon="3.26651">
        <ele>390</ele>
        <time>2012-11-16T10:26:44Z</time>
      </trkpt>
      <trkpt lat="45.46413" lon="3.26632">
        <ele>390</ele>
        <time>2012-11-16T10:26:48Z</time>
      </trkpt>
      <trkpt lat="45.46429" lon="3.26611">
        <ele>389</ele>
        <time>2012-11-16T10:26:52Z</time>
      </trkpt>
      <trkpt lat="45.46443" lon="3.26596">
        <ele>389</ele>
        <time>2012-11-16T10:26:56Z</time>
      </trkpt>
      <trkpt lat="45.46466" lon="3.26595">
        <ele>388</ele>
        <time>2012-11-16T10:27:01Z</time>
      </trkpt>
      <trkpt lat="45.46488" lon="3.26591">
        <ele>388</ele>
        <time>2012-11-16T10:27:05Z</time>
      </trkpt>
      <trkpt lat="45.46507" lon="3.26586">
        <ele>387</ele>
        <time>2012-11-16T10:27:09Z</time>
      </trkpt>
      <trkpt lat="45.46525" lon="3.26575">
        <ele>388</ele>
        <time>2012-11-16T10:27:13Z</time>
      </trkpt>
      <trkpt lat="45.46531" lon="3.26549">
        <ele>388</ele>
        <time>2012-11-16T10:27:17Z</time>
      </trkpt>
      <trkpt lat="45.46538" lon="3.26518">
        <ele>388</ele>
        <time>2012-11-16T10:27:23Z</time>
      </trkpt>
      <trkpt lat="45.46542" lon="3.26487">
        <ele>390</ele>
        <time>2012-11-16T10:27:28Z</time>
      </trkpt>
      <trkpt lat="45.46551" lon="3.26463">
        <ele>390</ele>
        <time>2012-11-16T10:27:36Z</time>
      </trkpt>
      <trkpt lat="45.4657" lon="3.26458">
        <ele>390</ele>
        <time>2012-11-16T10:27:41Z</time>
      </trkpt>
      <trkpt lat="45.46588" lon="3.26455">
        <ele>391</ele>
        <time>2012-11-16T10:27:45Z</time>
      </trkpt>
      <trkpt lat="45.46611" lon="3.26452">
        <ele>391</ele>
        <time>2012-11-16T10:27:49Z</time>
      </trkpt>
      <trkpt lat="45.46629" lon="3.26449">
        <ele>391</ele>
        <time>2012-11-16T10:27:52Z</time>
      </trkpt>
      <trkpt lat="45.46649" lon="3.26448">
        <ele>391</ele>
        <time>2012-11-16T10:27:55Z</time>
      </trkpt>
      <trkpt lat="45.46667" lon="3.26445">
        <ele>392</ele>
        <time>2012-11-16T10:27:58Z</time>
      </trkpt>
      <trkpt lat="45.46688" lon="3.26444">
        <ele>392</ele>
        <time>2012-11-16T10:28:01Z</time>
      </trkpt>
      <trkpt lat="45.4671" lon="3.26442">
        <ele>392</ele>
        <time>2012-11-16T10:28:04Z</time>
      </trkpt>
      <trkpt lat="45.46731" lon="3.26439">
        <ele>392</ele>
        <time>2012-11-16T10:28:07Z</time>
      </trkpt>
      <trkpt lat="45.46754" lon="3.26439">
        <ele>392</ele>
        <time>2012-11-16T10:28:10Z</time>
      </trkpt>
      <trkpt lat="45.46775" lon="3.26439">
        <ele>392</ele>
        <time>2012-11-16T10:28:13Z</time>
      </trkpt>
      <trkpt lat="45.46796" lon="3.26436">
        <ele>392</ele>
        <time>2012-11-16T10:28:16Z</time>
      </trkpt>
      <trkpt lat="45.46815" lon="3.26433">
        <ele>392</ele>
        <time>2012-11-16T10:28:19Z</time>
      </trkpt>
      <trkpt lat="45.46834" lon="3.26427">
        <ele>392</ele>
        <time>2012-11-16T10:28:22Z</time>
      </trkpt>
      <trkpt lat="45.46853" lon="3.2642">
        <ele>392</ele>
        <time>2012-11-16T10:28:25Z</time>
      </trkpt>
      <trkpt lat="45.46871" lon="3.26412">
        <ele>393</ele>
        <time>2012-11-16T10:28:28Z</time>
      </trkpt>
      <trkpt lat="45.46889" lon="3.26403">
        <ele>393</ele>
        <time>2012-11-16T10:28:31Z</time>
      </trkpt>
      <trkpt lat="45.46907" lon="3.26394">
        <ele>393</ele>
        <time>2012-11-16T10:28:34Z</time>
      </trkpt>
      <trkpt lat="45.46926" lon="3.26384">
        <ele>391</ele>
        <time>2012-11-16T10:28:37Z</time>
      </trkpt>
      <trkpt lat="45.46948" lon="3.26372">
        <ele>391</ele>
        <time>2012-11-16T10:28:41Z</time>
      </trkpt>
      <trkpt lat="45.46965" lon="3.2636">
        <ele>391</ele>
        <time>2012-11-16T10:28:44Z</time>
      </trkpt>
      <trkpt lat="45.46983" lon="3.2635">
        <ele>391</ele>
        <time>2012-11-16T10:28:47Z</time>
      </trkpt>
      <trkpt lat="45.47" lon="3.2634">
        <ele>391</ele>
        <time>2012-11-16T10:28:50Z</time>
      </trkpt>
      <trkpt lat="45.47018" lon="3.26335">
        <ele>390</ele>
        <time>2012-11-16T10:28:53Z</time>
      </trkpt>
      <trkpt lat="45.47037" lon="3.26331">
        <ele>391</ele>
        <time>2012-11-16T10:28:56Z</time>
      </trkpt>
      <trkpt lat="45.47059" lon="3.26329">
        <ele>391</ele>
        <time>2012-11-16T10:28:59Z</time>
      </trkpt>
      <trkpt lat="45.47082" lon="3.26333">
        <ele>390</ele>
        <time>2012-11-16T10:29:02Z</time>
      </trkpt>
      <trkpt lat="45.47106" lon="3.26335">
        <ele>388</ele>
        <time>2012-11-16T10:29:05Z</time>
      </trkpt>
      <trkpt lat="45.47128" lon="3.26334">
        <ele>388</ele>
        <time>2012-11-16T10:29:08Z</time>
      </trkpt>
      <trkpt lat="45.47149" lon="3.26331">
        <ele>388</ele>
        <time>2012-11-16T10:29:11Z</time>
      </trkpt>
      <trkpt lat="45.4717" lon="3.26327">
        <ele>387</ele>
        <time>2012-11-16T10:29:14Z</time>
      </trkpt>
      <trkpt lat="45.4719" lon="3.26322">
        <ele>387</ele>
        <time>2012-11-16T10:29:17Z</time>
      </trkpt>
      <trkpt lat="45.47211" lon="3.26317">
        <ele>387</ele>
        <time>2012-11-16T10:29:20Z</time>
      </trkpt>
      <trkpt lat="45.47231" lon="3.2631">
        <ele>387</ele>
        <time>2012-11-16T10:29:23Z</time>
      </trkpt>
      <trkpt lat="45.47252" lon="3.26301">
        <ele>386</ele>
        <time>2012-11-16T10:29:26Z</time>
      </trkpt>
      <trkpt lat="45.47272" lon="3.26288">
        <ele>386</ele>
        <time>2012-11-16T10:29:29Z</time>
      </trkpt>
      <trkpt lat="45.47293" lon="3.26271">
        <ele>386</ele>
        <time>2012-11-16T10:29:32Z</time>
      </trkpt>
      <trkpt lat="45.47315" lon="3.26255">
        <ele>386</ele>
        <time>2012-11-16T10:29:35Z</time>
      </trkpt>
      <trkpt lat="45.47338" lon="3.26244">
        <ele>386</ele>
        <time>2012-11-16T10:29:38Z</time>
      </trkpt>
      <trkpt lat="45.47362" lon="3.26233">
        <ele>387</ele>
        <time>2012-11-16T10:29:41Z</time>
      </trkpt>
      <trkpt lat="45.47385" lon="3.26226">
        <ele>386</ele>
        <time>2012-11-16T10:29:44Z</time>
      </trkpt>
      <trkpt lat="45.47408" lon="3.26224">
        <ele>386</ele>
        <time>2012-11-16T10:29:47Z</time>
      </trkpt>
      <trkpt lat="45.4743" lon="3.26225">
        <ele>386</ele>
        <time>2012-11-16T10:29:50Z</time>
      </trkpt>
      <trkpt lat="45.47454" lon="3.2623">
        <ele>386</ele>
        <time>2012-11-16T10:29:53Z</time>
      </trkpt>
      <trkpt lat="45.47478" lon="3.26237">
        <ele>386</ele>
        <time>2012-11-16T10:29:56Z</time>
      </trkpt>
      <trkpt lat="45.47501" lon="3.26243">
        <ele>385</ele>
        <time>2012-11-16T10:29:59Z</time>
      </trkpt>
      <trkpt lat="45.47524" lon="3.2625">
        <ele>386</ele>
        <time>2012-11-16T10:30:02Z</time>
      </trkpt>
      <trkpt lat="45.47547" lon="3.26257">
        <ele>385</ele>
        <time>2012-11-16T10:30:05Z</time>
      </trkpt>
      <trkpt lat="45.47569" lon="3.26265">
        <ele>385</ele>
        <time>2012-11-16T10:30:08Z</time>
      </trkpt>
      <trkpt lat="45.4759" lon="3.26279">
        <ele>385</ele>
        <time>2012-11-16T10:30:11Z</time>
      </trkpt>
      <trkpt lat="45.4761" lon="3.26291">
        <ele>385</ele>
        <time>2012-11-16T10:30:14Z</time>
      </trkpt>
      <trkpt lat="45.47631" lon="3.26299">
        <ele>384</ele>
        <time>2012-11-16T10:30:17Z</time>
      </trkpt>
      <trkpt lat="45.47652" lon="3.26304">
        <ele>385</ele>
        <time>2012-11-16T10:30:20Z</time>
      </trkpt>
      <trkpt lat="45.47671" lon="3.26309">
        <ele>384</ele>
        <time>2012-11-16T10:30:23Z</time>
      </trkpt>
      <trkpt lat="45.47691" lon="3.26315">
        <ele>384</ele>
        <time>2012-11-16T10:30:26Z</time>
      </trkpt>
      <trkpt lat="45.4771" lon="3.2632">
        <ele>384</ele>
        <time>2012-11-16T10:30:29Z</time>
      </trkpt>
      <trkpt lat="45.4773" lon="3.26328">
        <ele>384</ele>
        <time>2012-11-16T10:30:32Z</time>
      </trkpt>
      <trkpt lat="45.47749" lon="3.26333">
        <ele>383</ele>
        <time>2012-11-16T10:30:35Z</time>
      </trkpt>
      <trkpt lat="45.4777" lon="3.26341">
        <ele>383</ele>
        <time>2012-11-16T10:30:38Z</time>
      </trkpt>
      <trkpt lat="45.47791" lon="3.26348">
        <ele>383</ele>
        <time>2012-11-16T10:30:41Z</time>
      </trkpt>
      <trkpt lat="45.47812" lon="3.26356">
        <ele>383</ele>
        <time>2012-11-16T10:30:44Z</time>
      </trkpt>
      <trkpt lat="45.47834" lon="3.2636">
        <ele>382</ele>
        <time>2012-11-16T10:30:47Z</time>
      </trkpt>
      <trkpt lat="45.47856" lon="3.26367">
        <ele>382</ele>
        <time>2012-11-16T10:30:50Z</time>
      </trkpt>
      <trkpt lat="45.47877" lon="3.26374">
        <ele>382</ele>
        <time>2012-11-16T10:30:53Z</time>
      </trkpt>
      <trkpt lat="45.47894" lon="3.2639">
        <ele>382</ele>
        <time>2012-11-16T10:30:56Z</time>
      </trkpt>
      <trkpt lat="45.47908" lon="3.26413">
        <ele>382</ele>
        <time>2012-11-16T10:30:59Z</time>
      </trkpt>
      <trkpt lat="45.47923" lon="3.26434">
        <ele>382</ele>
        <time>2012-11-16T10:31:02Z</time>
      </trkpt>
      <trkpt lat="45.47938" lon="3.26453">
        <ele>382</ele>
        <time>2012-11-16T10:31:05Z</time>
      </trkpt>
      <trkpt lat="45.47953" lon="3.26474">
        <ele>383</ele>
        <time>2012-11-16T10:31:08Z</time>
      </trkpt>
      <trkpt lat="45.4797" lon="3.26493">
        <ele>383</ele>
        <time>2012-11-16T10:31:11Z</time>
      </trkpt>
      <trkpt lat="45.47989" lon="3.26507">
        <ele>384</ele>
        <time>2012-11-16T10:31:14Z</time>
      </trkpt>
      <trkpt lat="45.48009" lon="3.26515">
        <ele>384</ele>
        <time>2012-11-16T10:31:17Z</time>
      </trkpt>
      <trkpt lat="45.4803" lon="3.26519">
        <ele>384</ele>
        <time>2012-11-16T10:31:20Z</time>
      </trkpt>
      <trkpt lat="45.4805" lon="3.26524">
        <ele>384</ele>
        <time>2012-11-16T10:31:23Z</time>
      </trkpt>
      <trkpt lat="45.4807" lon="3.2653">
        <ele>385</ele>
        <time>2012-11-16T10:31:26Z</time>
      </trkpt>
      <trkpt lat="45.4809" lon="3.26536">
        <ele>384</ele>
        <time>2012-11-16T10:31:29Z</time>
      </trkpt>
      <trkpt lat="45.4811" lon="3.26547">
        <ele>384</ele>
        <time>2012-11-16T10:31:32Z</time>
      </trkpt>
      <trkpt lat="45.4813" lon="3.26558">
        <ele>384</ele>
        <time>2012-11-16T10:31:35Z</time>
      </trkpt>
      <trkpt lat="45.48148" lon="3.2657">
        <ele>384</ele>
        <time>2012-11-16T10:31:38Z</time>
      </trkpt>
      <trkpt lat="45.48165" lon="3.26589">
        <ele>383</ele>
        <time>2012-11-16T10:31:41Z</time>
      </trkpt>
      <trkpt lat="45.48179" lon="3.26609">
        <ele>383</ele>
        <time>2012-11-16T10:31:44Z</time>
      </trkpt>
      <trkpt lat="45.48194" lon="3.2663">
        <ele>383</ele>
        <time>2012-11-16T10:31:47Z</time>
      </trkpt>
      <trkpt lat="45.4821" lon="3.26646">
        <ele>383</ele>
        <time>2012-11-16T10:31:50Z</time>
      </trkpt>
      <trkpt lat="45.48228" lon="3.26658">
        <ele>383</ele>
        <time>2012-11-16T10:31:53Z</time>
      </trkpt>
      <trkpt lat="45.48244" lon="3.26669">
        <ele>383</ele>
        <time>2012-11-16T10:31:56Z</time>
      </trkpt>
      <trkpt lat="45.48261" lon="3.26685">
        <ele>383</ele>
        <time>2012-11-16T10:31:59Z</time>
      </trkpt>
      <trkpt lat="45.48276" lon="3.26703">
        <ele>383</ele>
        <time>2012-11-16T10:32:02Z</time>
      </trkpt>
      <trkpt lat="45.48292" lon="3.2672">
        <ele>383</ele>
        <time>2012-11-16T10:32:05Z</time>
      </trkpt>
      <trkpt lat="45.48304" lon="3.2674">
        <ele>383</ele>
        <time>2012-11-16T10:32:08Z</time>
      </trkpt>
      <trkpt lat="45.48317" lon="3.26758">
        <ele>383</ele>
        <time>2012-11-16T10:32:11Z</time>
      </trkpt>
      <trkpt lat="45.4833" lon="3.26777">
        <ele>383</ele>
        <time>2012-11-16T10:32:14Z</time>
      </trkpt>
      <trkpt lat="45.48345" lon="3.26793">
        <ele>382</ele>
        <time>2012-11-16T10:32:17Z</time>
      </trkpt>
      <trkpt lat="45.48361" lon="3.26806">
        <ele>382</ele>
        <time>2012-11-16T10:32:20Z</time>
      </trkpt>
      <trkpt lat="45.48381" lon="3.26824">
        <ele>382</ele>
        <time>2012-11-16T10:32:24Z</time>
      </trkpt>
      <trkpt lat="45.48397" lon="3.26838">
        <ele>383</ele>
        <time>2012-11-16T10:32:27Z</time>
      </trkpt>
      <trkpt lat="45.48412" lon="3.26851">
        <ele>383</ele>
        <time>2012-11-16T10:32:30Z</time>
      </trkpt>
      <trkpt lat="45.4843" lon="3.2686">
        <ele>383</ele>
        <time>2012-11-16T10:32:33Z</time>
      </trkpt>
      <trkpt lat="45.48449" lon="3.26866">
        <ele>383</ele>
        <time>2012-11-16T10:32:36Z</time>
      </trkpt>
      <trkpt lat="45.48467" lon="3.26872">
        <ele>383</ele>
        <time>2012-11-16T10:32:39Z</time>
      </trkpt>
      <trkpt lat="45.48485" lon="3.26878">
        <ele>383</ele>
        <time>2012-11-16T10:32:42Z</time>
      </trkpt>
      <trkpt lat="45.48504" lon="3.26882">
        <ele>382</ele>
        <time>2012-11-16T10:32:45Z</time>
      </trkpt>
      <trkpt lat="45.48526" lon="3.26892">
        <ele>382</ele>
        <time>2012-11-16T10:32:49Z</time>
      </trkpt>
      <trkpt lat="45.48549" lon="3.26901">
        <ele>382</ele>
        <time>2012-11-16T10:32:53Z</time>
      </trkpt>
      <trkpt lat="45.48571" lon="3.2691">
        <ele>382</ele>
        <time>2012-11-16T10:32:57Z</time>
      </trkpt>
      <trkpt lat="45.48594" lon="3.26918">
        <ele>382</ele>
        <time>2012-11-16T10:33:01Z</time>
      </trkpt>
      <trkpt lat="45.48612" lon="3.26923">
        <ele>382</ele>
        <time>2012-11-16T10:33:04Z</time>
      </trkpt>
      <trkpt lat="45.4863" lon="3.26929">
        <ele>381</ele>
        <time>2012-11-16T10:33:07Z</time>
      </trkpt>
      <trkpt lat="45.48649" lon="3.26933">
        <ele>382</ele>
        <time>2012-11-16T10:33:10Z</time>
      </trkpt>
      <trkpt lat="45.48667" lon="3.2694">
        <ele>382</ele>
        <time>2012-11-16T10:33:13Z</time>
      </trkpt>
      <trkpt lat="45.48685" lon="3.26945">
        <ele>381</ele>
        <time>2012-11-16T10:33:16Z</time>
      </trkpt>
      <trkpt lat="45.48703" lon="3.26951">
        <ele>381</ele>
        <time>2012-11-16T10:33:19Z</time>
      </trkpt>
      <trkpt lat="45.48727" lon="3.26958">
        <ele>381</ele>
        <time>2012-11-16T10:33:23Z</time>
      </trkpt>
      <trkpt lat="45.48748" lon="3.26965">
        <ele>381</ele>
        <time>2012-11-16T10:33:27Z</time>
      </trkpt>
      <trkpt lat="45.48767" lon="3.2697">
        <ele>381</ele>
        <time>2012-11-16T10:33:30Z</time>
      </trkpt>
      <trkpt lat="45.48791" lon="3.26974">
        <ele>381</ele>
        <time>2012-11-16T10:33:34Z</time>
      </trkpt>
      <trkpt lat="45.48813" lon="3.26983">
        <ele>381</ele>
        <time>2012-11-16T10:33:38Z</time>
      </trkpt>
      <trkpt lat="45.48835" lon="3.26994">
        <ele>382</ele>
        <time>2012-11-16T10:33:42Z</time>
      </trkpt>
      <trkpt lat="45.48858" lon="3.27003">
        <ele>382</ele>
        <time>2012-11-16T10:33:46Z</time>
      </trkpt>
      <trkpt lat="45.4888" lon="3.2701">
        <ele>382</ele>
        <time>2012-11-16T10:33:50Z</time>
      </trkpt>
      <trkpt lat="45.48901" lon="3.27017">
        <ele>382</ele>
        <time>2012-11-16T10:33:54Z</time>
      </trkpt>
      <trkpt lat="45.48923" lon="3.27023">
        <ele>382</ele>
        <time>2012-11-16T10:33:58Z</time>
      </trkpt>
      <trkpt lat="45.48941" lon="3.27025">
        <ele>382</ele>
        <time>2012-11-16T10:34:01Z</time>
      </trkpt>
      <trkpt lat="45.4896" lon="3.27026">
        <ele>382</ele>
        <time>2012-11-16T10:34:04Z</time>
      </trkpt>
      <trkpt lat="45.48983" lon="3.27029">
        <ele>382</ele>
        <time>2012-11-16T10:34:08Z</time>
      </trkpt>
      <trkpt lat="45.49005" lon="3.27037">
        <ele>382</ele>
        <time>2012-11-16T10:34:12Z</time>
      </trkpt>
      <trkpt lat="45.49023" lon="3.27043">
        <ele>382</ele>
        <time>2012-11-16T10:34:16Z</time>
      </trkpt>
      <trkpt lat="45.49044" lon="3.27033">
        <ele>382</ele>
        <time>2012-11-16T10:34:20Z</time>
      </trkpt>
      <trkpt lat="45.49063" lon="3.27024">
        <ele>382</ele>
        <time>2012-11-16T10:34:24Z</time>
      </trkpt>
      <trkpt lat="45.49084" lon="3.27015">
        <ele>382</ele>
        <time>2012-11-16T10:34:28Z</time>
      </trkpt>
      <trkpt lat="45.49105" lon="3.27007">
        <ele>382</ele>
        <time>2012-11-16T10:34:32Z</time>
      </trkpt>
      <trkpt lat="45.49128" lon="3.27001">
        <ele>382</ele>
        <time>2012-11-16T10:34:36Z</time>
      </trkpt>
      <trkpt lat="45.4915" lon="3.26995">
        <ele>382</ele>
        <time>2012-11-16T10:34:40Z</time>
      </trkpt>
      <trkpt lat="45.4917" lon="3.26986">
        <ele>382</ele>
        <time>2012-11-16T10:34:44Z</time>
      </trkpt>
      <trkpt lat="45.49188" lon="3.26981">
        <ele>381</ele>
        <time>2012-11-16T10:34:47Z</time>
      </trkpt>
      <trkpt lat="45.49209" lon="3.26977">
        <ele>381</ele>
        <time>2012-11-16T10:34:50Z</time>
      </trkpt>
      <trkpt lat="45.49229" lon="3.26973">
        <ele>381</ele>
        <time>2012-11-16T10:34:53Z</time>
      </trkpt>
      <trkpt lat="45.49248" lon="3.26968">
        <ele>381</ele>
        <time>2012-11-16T10:34:56Z</time>
      </trkpt>
      <trkpt lat="45.49267" lon="3.26964">
        <ele>380</ele>
        <time>2012-11-16T10:34:59Z</time>
      </trkpt>
      <trkpt lat="45.49285" lon="3.26961">
        <ele>380</ele>
        <time>2012-11-16T10:35:02Z</time>
      </trkpt>
      <trkpt lat="45.49308" lon="3.26953">
        <ele>380</ele>
        <time>2012-11-16T10:35:06Z</time>
      </trkpt>
      <trkpt lat="45.49331" lon="3.26946">
        <ele>380</ele>
        <time>2012-11-16T10:35:10Z</time>
      </trkpt>
      <trkpt lat="45.49354" lon="3.26941">
        <ele>380</ele>
        <time>2012-11-16T10:35:14Z</time>
      </trkpt>
      <trkpt lat="45.49377" lon="3.26935">
        <ele>380</ele>
        <time>2012-11-16T10:35:18Z</time>
      </trkpt>
      <trkpt lat="45.49398" lon="3.26931">
        <ele>380</ele>
        <time>2012-11-16T10:35:22Z</time>
      </trkpt>
      <trkpt lat="45.49421" lon="3.26926">
        <ele>380</ele>
        <time>2012-11-16T10:35:26Z</time>
      </trkpt>
      <trkpt lat="45.49445" lon="3.26921">
        <ele>380</ele>
        <time>2012-11-16T10:35:30Z</time>
      </trkpt>
      <trkpt lat="45.49463" lon="3.26915">
        <ele>380</ele>
        <time>2012-11-16T10:35:33Z</time>
      </trkpt>
      <trkpt lat="45.49482" lon="3.26909">
        <ele>380</ele>
        <time>2012-11-16T10:35:36Z</time>
      </trkpt>
      <trkpt lat="45.49502" lon="3.26904">
        <ele>380</ele>
        <time>2012-11-16T10:35:39Z</time>
      </trkpt>
      <trkpt lat="45.49522" lon="3.26899">
        <ele>380</ele>
        <time>2012-11-16T10:35:42Z</time>
      </trkpt>
      <trkpt lat="45.49542" lon="3.26893">
        <ele>380</ele>
        <time>2012-11-16T10:35:45Z</time>
      </trkpt>
      <trkpt lat="45.49561" lon="3.26888">
        <ele>379</ele>
        <time>2012-11-16T10:35:48Z</time>
      </trkpt>
      <trkpt lat="45.4958" lon="3.26883">
        <ele>379</ele>
        <time>2012-11-16T10:35:51Z</time>
      </trkpt>
      <trkpt lat="45.49599" lon="3.26879">
        <ele>378</ele>
        <time>2012-11-16T10:35:54Z</time>
      </trkpt>
      <trkpt lat="45.49618" lon="3.26874">
        <ele>378</ele>
        <time>2012-11-16T10:35:57Z</time>
      </trkpt>
      <trkpt lat="45.49637" lon="3.26868">
        <ele>378</ele>
        <time>2012-11-16T10:36:00Z</time>
      </trkpt>
      <trkpt lat="45.49656" lon="3.26863">
        <ele>378</ele>
        <time>2012-11-16T10:36:03Z</time>
      </trkpt>
      <trkpt lat="45.49675" lon="3.26859">
        <ele>378</ele>
        <time>2012-11-16T10:36:06Z</time>
      </trkpt>
      <trkpt lat="45.49694" lon="3.26856">
        <ele>378</ele>
        <time>2012-11-16T10:36:09Z</time>
      </trkpt>
      <trkpt lat="45.49717" lon="3.26852">
        <ele>378</ele>
        <time>2012-11-16T10:36:13Z</time>
      </trkpt>
      <trkpt lat="45.4973" lon="3.26873">
        <ele>378</ele>
        <time>2012-11-16T10:36:17Z</time>
      </trkpt>
      <trkpt lat="45.49736" lon="3.26898">
        <ele>377</ele>
        <time>2012-11-16T10:36:20Z</time>
      </trkpt>
      <trkpt lat="45.49747" lon="3.26926">
        <ele>377</ele>
        <time>2012-11-16T10:36:23Z</time>
      </trkpt>
      <trkpt lat="45.49767" lon="3.26915">
        <ele>377</ele>
        <time>2012-11-16T10:36:28Z</time>
      </trkpt>
      <trkpt lat="45.49788" lon="3.26909">
        <ele>378</ele>
        <time>2012-11-16T10:36:32Z</time>
      </trkpt>
      <trkpt lat="45.49811" lon="3.2691">
        <ele>378</ele>
        <time>2012-11-16T10:36:36Z</time>
      </trkpt>
      <trkpt lat="45.49831" lon="3.26916">
        <ele>378</ele>
        <time>2012-11-16T10:36:40Z</time>
      </trkpt>
      <trkpt lat="45.49851" lon="3.26925">
        <ele>378</ele>
        <time>2012-11-16T10:36:44Z</time>
      </trkpt>
      <trkpt lat="45.49874" lon="3.26934">
        <ele>377</ele>
        <time>2012-11-16T10:36:48Z</time>
      </trkpt>
      <trkpt lat="45.49891" lon="3.26936">
        <ele>377</ele>
        <time>2012-11-16T10:36:51Z</time>
      </trkpt>
      <trkpt lat="45.4991" lon="3.2694">
        <ele>377</ele>
        <time>2012-11-16T10:36:54Z</time>
      </trkpt>
      <trkpt lat="45.4993" lon="3.26942">
        <ele>376</ele>
        <time>2012-11-16T10:36:57Z</time>
      </trkpt>
      <trkpt lat="45.49949" lon="3.26946">
        <ele>376</ele>
        <time>2012-11-16T10:37:00Z</time>
      </trkpt>
      <trkpt lat="45.49972" lon="3.26955">
        <ele>376</ele>
        <time>2012-11-16T10:37:04Z</time>
      </trkpt>
      <trkpt lat="45.4999" lon="3.26962">
        <ele>376</ele>
        <time>2012-11-16T10:37:07Z</time>
      </trkpt>
      <trkpt lat="45.50009" lon="3.26967">
        <ele>376</ele>
        <time>2012-11-16T10:37:10Z</time>
      </trkpt>
      <trkpt lat="45.50027" lon="3.26975">
        <ele>376</ele>
        <time>2012-11-16T10:37:13Z</time>
      </trkpt>
      <trkpt lat="45.50049" lon="3.26986">
        <ele>376</ele>
        <time>2012-11-16T10:37:17Z</time>
      </trkpt>
      <trkpt lat="45.50065" lon="3.26995">
        <ele>375</ele>
        <time>2012-11-16T10:37:20Z</time>
      </trkpt>
      <trkpt lat="45.50089" lon="3.27">
        <ele>375</ele>
        <time>2012-11-16T10:37:24Z</time>
      </trkpt>
      <trkpt lat="45.50107" lon="3.2699">
        <ele>376</ele>
        <time>2012-11-16T10:37:28Z</time>
      </trkpt>
      <trkpt lat="45.50114" lon="3.26967">
        <ele>376</ele>
        <time>2012-11-16T10:37:32Z</time>
      </trkpt>
      <trkpt lat="45.50118" lon="3.26941">
        <ele>376</ele>
        <time>2012-11-16T10:37:36Z</time>
      </trkpt>
      <trkpt lat="45.50124" lon="3.26916">
        <ele>376</ele>
        <time>2012-11-16T10:37:40Z</time>
      </trkpt>
      <trkpt lat="45.50129" lon="3.26885">
        <ele>377</ele>
        <time>2012-11-16T10:37:44Z</time>
      </trkpt>
      <trkpt lat="45.50131" lon="3.26855">
        <ele>376</ele>
        <time>2012-11-16T10:37:48Z</time>
      </trkpt>
      <trkpt lat="45.50132" lon="3.26821">
        <ele>376</ele>
        <time>2012-11-16T10:37:52Z</time>
      </trkpt>
      <trkpt lat="45.50134" lon="3.26794">
        <ele>376</ele>
        <time>2012-11-16T10:37:55Z</time>
      </trkpt>
      <trkpt lat="45.50136" lon="3.26767">
        <ele>376</ele>
        <time>2012-11-16T10:37:58Z</time>
      </trkpt>
      <trkpt lat="45.50138" lon="3.26733">
        <ele>376</ele>
        <time>2012-11-16T10:38:02Z</time>
      </trkpt>
      <trkpt lat="45.50141" lon="3.26703">
        <ele>376</ele>
        <time>2012-11-16T10:38:06Z</time>
      </trkpt>
      <trkpt lat="45.50142" lon="3.26672">
        <ele>376</ele>
        <time>2012-11-16T10:38:10Z</time>
      </trkpt>
      <trkpt lat="45.50145" lon="3.2664">
        <ele>377</ele>
        <time>2012-11-16T10:38:14Z</time>
      </trkpt>
      <trkpt lat="45.50153" lon="3.26612">
        <ele>377</ele>
        <time>2012-11-16T10:38:18Z</time>
      </trkpt>
      <trkpt lat="45.50175" lon="3.26603">
        <ele>377</ele>
        <time>2012-11-16T10:38:22Z</time>
      </trkpt>
      <trkpt lat="45.50198" lon="3.26606">
        <ele>377</ele>
        <time>2012-11-16T10:38:26Z</time>
      </trkpt>
      <trkpt lat="45.50216" lon="3.26609">
        <ele>377</ele>
        <time>2012-11-16T10:38:29Z</time>
      </trkpt>
      <trkpt lat="45.50234" lon="3.26611">
        <ele>377</ele>
        <time>2012-11-16T10:38:32Z</time>
      </trkpt>
      <trkpt lat="45.50253" lon="3.26614">
        <ele>377</ele>
        <time>2012-11-16T10:38:35Z</time>
      </trkpt>
      <trkpt lat="45.50272" lon="3.26616">
        <ele>377</ele>
        <time>2012-11-16T10:38:38Z</time>
      </trkpt>
      <trkpt lat="45.50292" lon="3.26618">
        <ele>378</ele>
        <time>2012-11-16T10:38:41Z</time>
      </trkpt>
      <trkpt lat="45.50312" lon="3.26619">
        <ele>378</ele>
        <time>2012-11-16T10:38:44Z</time>
      </trkpt>
      <trkpt lat="45.50331" lon="3.26621">
        <ele>378</ele>
        <time>2012-11-16T10:38:47Z</time>
      </trkpt>
      <trkpt lat="45.5035" lon="3.26622">
        <ele>378</ele>
        <time>2012-11-16T10:38:50Z</time>
      </trkpt>
      <trkpt lat="45.50369" lon="3.26624">
        <ele>378</ele>
        <time>2012-11-16T10:38:53Z</time>
      </trkpt>
      <trkpt lat="45.50388" lon="3.26626">
        <ele>378</ele>
        <time>2012-11-16T10:38:56Z</time>
      </trkpt>
      <trkpt lat="45.50408" lon="3.26628">
        <ele>378</ele>
        <time>2012-11-16T10:38:59Z</time>
      </trkpt>
      <trkpt lat="45.50429" lon="3.26631">
        <ele>378</ele>
        <time>2012-11-16T10:39:02Z</time>
      </trkpt>
      <trkpt lat="45.50449" lon="3.26633">
        <ele>378</ele>
        <time>2012-11-16T10:39:05Z</time>
      </trkpt>
      <trkpt lat="45.50469" lon="3.26633">
        <ele>378</ele>
        <time>2012-11-16T10:39:08Z</time>
      </trkpt>
      <trkpt lat="45.50491" lon="3.26637">
        <ele>378</ele>
        <time>2012-11-16T10:39:11Z</time>
      </trkpt>
      <trkpt lat="45.50513" lon="3.26638">
        <ele>378</ele>
        <time>2012-11-16T10:39:14Z</time>
      </trkpt>
      <trkpt lat="45.50534" lon="3.26642">
        <ele>378</ele>
        <time>2012-11-16T10:39:17Z</time>
      </trkpt>
      <trkpt lat="45.50556" lon="3.26645">
        <ele>378</ele>
        <time>2012-11-16T10:39:20Z</time>
      </trkpt>
      <trkpt lat="45.5058" lon="3.26647">
        <ele>378</ele>
        <time>2012-11-16T10:39:23Z</time>
      </trkpt>
      <trkpt lat="45.50602" lon="3.26648">
        <ele>378</ele>
        <time>2012-11-16T10:39:26Z</time>
      </trkpt>
      <trkpt lat="45.50625" lon="3.2665">
        <ele>377</ele>
        <time>2012-11-16T10:39:29Z</time>
      </trkpt>
      <trkpt lat="45.50648" lon="3.26652">
        <ele>377</ele>
        <time>2012-11-16T10:39:32Z</time>
      </trkpt>
      <trkpt lat="45.50672" lon="3.26654">
        <ele>377</ele>
        <time>2012-11-16T10:39:35Z</time>
      </trkpt>
      <trkpt lat="45.50694" lon="3.26656">
        <ele>377</ele>
        <time>2012-11-16T10:39:38Z</time>
      </trkpt>
      <trkpt lat="45.50717" lon="3.26658">
        <ele>377</ele>
        <time>2012-11-16T10:39:41Z</time>
      </trkpt>
      <trkpt lat="45.50738" lon="3.2666">
        <ele>377</ele>
        <time>2012-11-16T10:39:44Z</time>
      </trkpt>
      <trkpt lat="45.50755" lon="3.26643">
        <ele>377</ele>
        <time>2012-11-16T10:39:47Z</time>
      </trkpt>
      <trkpt lat="45.50763" lon="3.26614">
        <ele>377</ele>
        <time>2012-11-16T10:39:50Z</time>
      </trkpt>
      <trkpt lat="45.50764" lon="3.26581">
        <ele>376</ele>
        <time>2012-11-16T10:39:52Z</time>
      </trkpt>
      <trkpt lat="45.50766" lon="3.26551">
        <ele>376</ele>
        <time>2012-11-16T10:39:56Z</time>
      </trkpt>
      <trkpt lat="45.50767" lon="3.26519">
        <ele>376</ele>
        <time>2012-11-16T10:39:59Z</time>
      </trkpt>
      <trkpt lat="45.50767" lon="3.26487">
        <ele>376</ele>
        <time>2012-11-16T10:40:02Z</time>
      </trkpt>
      <trkpt lat="45.50767" lon="3.26457">
        <ele>377</ele>
        <time>2012-11-16T10:40:05Z</time>
      </trkpt>
      <trkpt lat="45.50768" lon="3.26426">
        <ele>376</ele>
        <time>2012-11-16T10:40:08Z</time>
      </trkpt>
      <trkpt lat="45.5077" lon="3.26395">
        <ele>377</ele>
        <time>2012-11-16T10:40:11Z</time>
      </trkpt>
      <trkpt lat="45.50775" lon="3.26368">
        <ele>377</ele>
        <time>2012-11-16T10:40:14Z</time>
      </trkpt>
      <trkpt lat="45.50793" lon="3.26359">
        <ele>377</ele>
        <time>2012-11-16T10:40:17Z</time>
      </trkpt>
      <trkpt lat="45.50814" lon="3.26361">
        <ele>378</ele>
        <time>2012-11-16T10:40:20Z</time>
      </trkpt>
      <trkpt lat="45.50834" lon="3.26365">
        <ele>378</ele>
        <time>2012-11-16T10:40:23Z</time>
      </trkpt>
      <trkpt lat="45.50857" lon="3.26368">
        <ele>378</ele>
        <time>2012-11-16T10:40:26Z</time>
      </trkpt>
      <trkpt lat="45.50879" lon="3.26371">
        <ele>378</ele>
        <time>2012-11-16T10:40:29Z</time>
      </trkpt>
      <trkpt lat="45.50901" lon="3.26373">
        <ele>378</ele>
        <time>2012-11-16T10:40:32Z</time>
      </trkpt>
      <trkpt lat="45.50923" lon="3.26375">
        <ele>378</ele>
        <time>2012-11-16T10:40:35Z</time>
      </trkpt>
      <trkpt lat="45.50945" lon="3.26378">
        <ele>377</ele>
        <time>2012-11-16T10:40:38Z</time>
      </trkpt>
      <trkpt lat="45.50968" lon="3.26379">
        <ele>377</ele>
        <time>2012-11-16T10:40:41Z</time>
      </trkpt>
      <trkpt lat="45.5099" lon="3.2638">
        <ele>377</ele>
        <time>2012-11-16T10:40:44Z</time>
      </trkpt>
      <trkpt lat="45.51013" lon="3.26379">
        <ele>378</ele>
        <time>2012-11-16T10:40:47Z</time>
      </trkpt>
      <trkpt lat="45.51035" lon="3.26379">
        <ele>378</ele>
        <time>2012-11-16T10:40:50Z</time>
      </trkpt>
      <trkpt lat="45.51058" lon="3.26379">
        <ele>378</ele>
        <time>2012-11-16T10:40:53Z</time>
      </trkpt>
      <trkpt lat="45.5108" lon="3.2638">
        <ele>378</ele>
        <time>2012-11-16T10:40:56Z</time>
      </trkpt>
      <trkpt lat="45.51103" lon="3.26381">
        <ele>379</ele>
        <time>2012-11-16T10:40:59Z</time>
      </trkpt>
      <trkpt lat="45.51126" lon="3.2638">
        <ele>379</ele>
        <time>2012-11-16T10:41:02Z</time>
      </trkpt>
      <trkpt lat="45.51149" lon="3.26379">
        <ele>379</ele>
        <time>2012-11-16T10:41:05Z</time>
      </trkpt>
      <trkpt lat="45.51171" lon="3.26376">
        <ele>378</ele>
        <time>2012-11-16T10:41:07Z</time>
      </trkpt>
      <trkpt lat="45.51194" lon="3.26374">
        <ele>378</ele>
        <time>2012-11-16T10:41:11Z</time>
      </trkpt>
      <trkpt lat="45.51215" lon="3.26373">
        <ele>378</ele>
        <time>2012-11-16T10:41:14Z</time>
      </trkpt>
      <trkpt lat="45.51237" lon="3.26371">
        <ele>378</ele>
        <time>2012-11-16T10:41:17Z</time>
      </trkpt>
      <trkpt lat="45.51261" lon="3.26367">
        <ele>377</ele>
        <time>2012-11-16T10:41:20Z</time>
      </trkpt>
      <trkpt lat="45.51282" lon="3.26365">
        <ele>377</ele>
        <time>2012-11-16T10:41:23Z</time>
      </trkpt>
      <trkpt lat="45.513" lon="3.2636">
        <ele>377</ele>
        <time>2012-11-16T10:41:26Z</time>
      </trkpt>
      <trkpt lat="45.51318" lon="3.26355">
        <ele>377</ele>
        <time>2012-11-16T10:41:29Z</time>
      </trkpt>
      <trkpt lat="45.5134" lon="3.26352">
        <ele>377</ele>
        <time>2012-11-16T10:41:33Z</time>
      </trkpt>
      <trkpt lat="45.5136" lon="3.26349">
        <ele>377</ele>
        <time>2012-11-16T10:41:37Z</time>
      </trkpt>
      <trkpt lat="45.51381" lon="3.26346">
        <ele>377</ele>
        <time>2012-11-16T10:41:41Z</time>
      </trkpt>
      <trkpt lat="45.51403" lon="3.26343">
        <ele>377</ele>
        <time>2012-11-16T10:41:44Z</time>
      </trkpt>
      <trkpt lat="45.51425" lon="3.26339">
        <ele>377</ele>
        <time>2012-11-16T10:41:49Z</time>
      </trkpt>
      <trkpt lat="45.51446" lon="3.26334">
        <ele>377</ele>
        <time>2012-11-16T10:41:53Z</time>
      </trkpt>
      <trkpt lat="45.51468" lon="3.2633">
        <ele>377</ele>
        <time>2012-11-16T10:41:57Z</time>
      </trkpt>
      <trkpt lat="45.51491" lon="3.26325">
        <ele>376</ele>
        <time>2012-11-16T10:42:01Z</time>
      </trkpt>
      <trkpt lat="45.51514" lon="3.26321">
        <ele>376</ele>
        <time>2012-11-16T10:42:05Z</time>
      </trkpt>
      <trkpt lat="45.51532" lon="3.26317">
        <ele>376</ele>
        <time>2012-11-16T10:42:08Z</time>
      </trkpt>
      <trkpt lat="45.5155" lon="3.26311">
        <ele>376</ele>
        <time>2012-11-16T10:42:11Z</time>
      </trkpt>
      <trkpt lat="45.51568" lon="3.26305">
        <ele>376</ele>
        <time>2012-11-16T10:42:14Z</time>
      </trkpt>
      <trkpt lat="45.51587" lon="3.263">
        <ele>376</ele>
        <time>2012-11-16T10:42:17Z</time>
      </trkpt>
      <trkpt lat="45.51605" lon="3.26294">
        <ele>376</ele>
        <time>2012-11-16T10:42:20Z</time>
      </trkpt>
      <trkpt lat="45.51623" lon="3.26289">
        <ele>377</ele>
        <time>2012-11-16T10:42:23Z</time>
      </trkpt>
      <trkpt lat="45.51642" lon="3.26283">
        <ele>377</ele>
        <time>2012-11-16T10:42:26Z</time>
      </trkpt>
      <trkpt lat="45.5166" lon="3.26277">
        <ele>377</ele>
        <time>2012-11-16T10:42:29Z</time>
      </trkpt>
      <trkpt lat="45.51678" lon="3.26271">
        <ele>377</ele>
        <time>2012-11-16T10:42:32Z</time>
      </trkpt>
      <trkpt lat="45.51697" lon="3.26265">
        <ele>376</ele>
        <time>2012-11-16T10:42:34Z</time>
      </trkpt>
      <trkpt lat="45.51716" lon="3.26256">
        <ele>376</ele>
        <time>2012-11-16T10:42:38Z</time>
      </trkpt>
      <trkpt lat="45.51735" lon="3.26249">
        <ele>376</ele>
        <time>2012-11-16T10:42:41Z</time>
      </trkpt>
      <trkpt lat="45.51755" lon="3.26243">
        <ele>376</ele>
        <time>2012-11-16T10:42:44Z</time>
      </trkpt>
      <trkpt lat="45.51774" lon="3.26236">
        <ele>376</ele>
        <time>2012-11-16T10:42:47Z</time>
      </trkpt>
      <trkpt lat="45.51793" lon="3.26229">
        <ele>376</ele>
        <time>2012-11-16T10:42:50Z</time>
      </trkpt>
      <trkpt lat="45.51813" lon="3.26223">
        <ele>376</ele>
        <time>2012-11-16T10:42:53Z</time>
      </trkpt>
      <trkpt lat="45.51832" lon="3.26217">
        <ele>376</ele>
        <time>2012-11-16T10:42:56Z</time>
      </trkpt>
      <trkpt lat="45.51852" lon="3.26211">
        <ele>375</ele>
        <time>2012-11-16T10:42:59Z</time>
      </trkpt>
      <trkpt lat="45.51873" lon="3.26207">
        <ele>375</ele>
        <time>2012-11-16T10:43:02Z</time>
      </trkpt>
      <trkpt lat="45.51891" lon="3.26219">
        <ele>375</ele>
        <time>2012-11-16T10:43:05Z</time>
      </trkpt>
      <trkpt lat="45.51896" lon="3.26244">
        <ele>375</ele>
        <time>2012-11-16T10:43:08Z</time>
      </trkpt>
      <trkpt lat="45.519" lon="3.26277">
        <ele>375</ele>
        <time>2012-11-16T10:43:12Z</time>
      </trkpt>
      <trkpt lat="45.51904" lon="3.26308">
        <ele>375</ele>
        <time>2012-11-16T10:43:16Z</time>
      </trkpt>
      <trkpt lat="45.51913" lon="3.26338">
        <ele>375</ele>
        <time>2012-11-16T10:43:20Z</time>
      </trkpt>
      <trkpt lat="45.51932" lon="3.26356">
        <ele>375</ele>
        <time>2012-11-16T10:43:24Z</time>
      </trkpt>
      <trkpt lat="45.5195" lon="3.26358">
        <ele>375</ele>
        <time>2012-11-16T10:43:27Z</time>
      </trkpt>
      <trkpt lat="45.51969" lon="3.26357">
        <ele>375</ele>
        <time>2012-11-16T10:43:30Z</time>
      </trkpt>
      <trkpt lat="45.51989" lon="3.26355">
        <ele>376</ele>
        <time>2012-11-16T10:43:33Z</time>
      </trkpt>
      <trkpt lat="45.52007" lon="3.26352">
        <ele>376</ele>
        <time>2012-11-16T10:43:36Z</time>
      </trkpt>
      <trkpt lat="45.52027" lon="3.26349">
        <ele>376</ele>
        <time>2012-11-16T10:43:39Z</time>
      </trkpt>
      <trkpt lat="45.52051" lon="3.26343">
        <ele>376</ele>
        <time>2012-11-16T10:43:43Z</time>
      </trkpt>
      <trkpt lat="45.52071" lon="3.26339">
        <ele>376</ele>
        <time>2012-11-16T10:43:46Z</time>
      </trkpt>
      <trkpt lat="45.52091" lon="3.26339">
        <ele>376</ele>
        <time>2012-11-16T10:43:50Z</time>
      </trkpt>
      <trkpt lat="45.52113" lon="3.26337">
        <ele>375</ele>
        <time>2012-11-16T10:43:54Z</time>
      </trkpt>
      <trkpt lat="45.52131" lon="3.26332">
        <ele>376</ele>
        <time>2012-11-16T10:43:57Z</time>
      </trkpt>
      <trkpt lat="45.52152" lon="3.26327">
        <ele>375</ele>
        <time>2012-11-16T10:44:00Z</time>
      </trkpt>
      <trkpt lat="45.52173" lon="3.26322">
        <ele>373</ele>
        <time>2012-11-16T10:44:05Z</time>
      </trkpt>
      <trkpt lat="45.52195" lon="3.26319">
        <ele>373</ele>
        <time>2012-11-16T10:44:09Z</time>
      </trkpt>
      <trkpt lat="45.52219" lon="3.26318">
        <ele>373</ele>
        <time>2012-11-16T10:44:13Z</time>
      </trkpt>
      <trkpt lat="45.52238" lon="3.26317">
        <ele>373</ele>
        <time>2012-11-16T10:44:16Z</time>
      </trkpt>
      <trkpt lat="45.52257" lon="3.26314">
        <ele>373</ele>
        <time>2012-11-16T10:44:19Z</time>
      </trkpt>
      <trkpt lat="45.52275" lon="3.2631">
        <ele>373</ele>
        <time>2012-11-16T10:44:22Z</time>
      </trkpt>
      <trkpt lat="45.52298" lon="3.26308">
        <ele>373</ele>
        <time>2012-11-16T10:44:26Z</time>
      </trkpt>
      <trkpt lat="45.52317" lon="3.26306">
        <ele>374</ele>
        <time>2012-11-16T10:44:29Z</time>
      </trkpt>
      <trkpt lat="45.52336" lon="3.263">
        <ele>374</ele>
        <time>2012-11-16T10:44:32Z</time>
      </trkpt>
      <trkpt lat="45.52355" lon="3.26293">
        <ele>374</ele>
        <time>2012-11-16T10:44:35Z</time>
      </trkpt>
      <trkpt lat="45.52373" lon="3.26285">
        <ele>374</ele>
        <time>2012-11-16T10:44:38Z</time>
      </trkpt>
      <trkpt lat="45.52391" lon="3.26278">
        <ele>373</ele>
        <time>2012-11-16T10:44:41Z</time>
      </trkpt>
      <trkpt lat="45.52409" lon="3.26268">
        <ele>373</ele>
        <time>2012-11-16T10:44:44Z</time>
      </trkpt>
      <trkpt lat="45.5243" lon="3.26255">
        <ele>373</ele>
        <time>2012-11-16T10:44:48Z</time>
      </trkpt>
      <trkpt lat="45.52452" lon="3.26243">
        <ele>373</ele>
        <time>2012-11-16T10:44:52Z</time>
      </trkpt>
      <trkpt lat="45.5247" lon="3.26234">
        <ele>372</ele>
        <time>2012-11-16T10:44:55Z</time>
      </trkpt>
      <trkpt lat="45.52488" lon="3.26228">
        <ele>372</ele>
        <time>2012-11-16T10:44:58Z</time>
      </trkpt>
      <trkpt lat="45.52511" lon="3.26221">
        <ele>372</ele>
        <time>2012-11-16T10:45:02Z</time>
      </trkpt>
      <trkpt lat="45.52533" lon="3.26217">
        <ele>372</ele>
        <time>2012-11-16T10:45:06Z</time>
      </trkpt>
      <trkpt lat="45.52554" lon="3.26213">
        <ele>372</ele>
        <time>2012-11-16T10:45:10Z</time>
      </trkpt>
      <trkpt lat="45.52572" lon="3.26208">
        <ele>372</ele>
        <time>2012-11-16T10:45:13Z</time>
      </trkpt>
      <trkpt lat="45.52595" lon="3.26202">
        <ele>372</ele>
        <time>2012-11-16T10:45:17Z</time>
      </trkpt>
      <trkpt lat="45.52617" lon="3.26199">
        <ele>372</ele>
        <time>2012-11-16T10:45:21Z</time>
      </trkpt>
      <trkpt lat="45.52638" lon="3.26194">
        <ele>372</ele>
        <time>2012-11-16T10:45:25Z</time>
      </trkpt>
      <trkpt lat="45.5266" lon="3.26189">
        <ele>372</ele>
        <time>2012-11-16T10:45:29Z</time>
      </trkpt>
      <trkpt lat="45.52681" lon="3.26185">
        <ele>373</ele>
        <time>2012-11-16T10:45:33Z</time>
      </trkpt>
      <trkpt lat="45.52705" lon="3.26181">
        <ele>373</ele>
        <time>2012-11-16T10:45:37Z</time>
      </trkpt>
      <trkpt lat="45.52725" lon="3.26176">
        <ele>373</ele>
        <time>2012-11-16T10:45:41Z</time>
      </trkpt>
      <trkpt lat="45.52748" lon="3.26173">
        <ele>374</ele>
        <time>2012-11-16T10:45:45Z</time>
      </trkpt>
      <trkpt lat="45.52769" lon="3.26168">
        <ele>373</ele>
        <time>2012-11-16T10:45:49Z</time>
      </trkpt>
      <trkpt lat="45.52788" lon="3.26164">
        <ele>374</ele>
        <time>2012-11-16T10:45:53Z</time>
      </trkpt>
      <trkpt lat="45.52808" lon="3.26157">
        <ele>373</ele>
        <time>2012-11-16T10:45:57Z</time>
      </trkpt>
      <trkpt lat="45.52829" lon="3.26152">
        <ele>373</ele>
        <time>2012-11-16T10:46:01Z</time>
      </trkpt>
      <trkpt lat="45.52848" lon="3.26142">
        <ele>373</ele>
        <time>2012-11-16T10:46:05Z</time>
      </trkpt>
      <trkpt lat="45.52869" lon="3.26131">
        <ele>373</ele>
        <time>2012-11-16T10:46:09Z</time>
      </trkpt>
      <trkpt lat="45.52889" lon="3.26121">
        <ele>373</ele>
        <time>2012-11-16T10:46:13Z</time>
      </trkpt>
      <trkpt lat="45.52909" lon="3.26111">
        <ele>373</ele>
        <time>2012-11-16T10:46:17Z</time>
      </trkpt>
      <trkpt lat="45.52929" lon="3.26101">
        <ele>373</ele>
        <time>2012-11-16T10:46:21Z</time>
      </trkpt>
      <trkpt lat="45.52949" lon="3.26089">
        <ele>372</ele>
        <time>2012-11-16T10:46:25Z</time>
      </trkpt>
      <trkpt lat="45.52969" lon="3.26077">
        <ele>372</ele>
        <time>2012-11-16T10:46:29Z</time>
      </trkpt>
      <trkpt lat="45.5299" lon="3.26068">
        <ele>372</ele>
        <time>2012-11-16T10:46:33Z</time>
      </trkpt>
      <trkpt lat="45.53009" lon="3.26057">
        <ele>372</ele>
        <time>2012-11-16T10:46:37Z</time>
      </trkpt>
      <trkpt lat="45.53027" lon="3.26047">
        <ele>372</ele>
        <time>2012-11-16T10:46:42Z</time>
      </trkpt>
      <trkpt lat="45.53048" lon="3.26041">
        <ele>372</ele>
        <time>2012-11-16T10:46:46Z</time>
      </trkpt>
      <trkpt lat="45.53063" lon="3.26024">
        <ele>372</ele>
        <time>2012-11-16T10:46:50Z</time>
      </trkpt>
      <trkpt lat="45.53081" lon="3.26006">
        <ele>373</ele>
        <time>2012-11-16T10:46:54Z</time>
      </trkpt>
      <trkpt lat="45.531" lon="3.25996">
        <ele>373</ele>
        <time>2012-11-16T10:46:57Z</time>
      </trkpt>
      <trkpt lat="45.53119" lon="3.25987">
        <ele>374</ele>
        <time>2012-11-16T10:47:00Z</time>
      </trkpt>
      <trkpt lat="45.53139" lon="3.25977">
        <ele>374</ele>
        <time>2012-11-16T10:47:04Z</time>
      </trkpt>
      <trkpt lat="45.53152" lon="3.25958">
        <ele>374</ele>
        <time>2012-11-16T10:47:06Z</time>
      </trkpt>
      <trkpt lat="45.53169" lon="3.2595">
        <ele>374</ele>
        <time>2012-11-16T10:47:17Z</time>
      </trkpt>
      <trkpt lat="45.53187" lon="3.25936">
        <ele>373</ele>
        <time>2012-11-16T10:47:22Z</time>
      </trkpt>
      <trkpt lat="45.53204" lon="3.25925">
        <ele>373</ele>
        <time>2012-11-16T10:47:25Z</time>
      </trkpt>
      <trkpt lat="45.53225" lon="3.25915">
        <ele>373</ele>
        <time>2012-11-16T10:47:30Z</time>
      </trkpt>
      <trkpt lat="45.53246" lon="3.25904">
        <ele>373</ele>
        <time>2012-11-16T10:47:34Z</time>
      </trkpt>
      <trkpt lat="45.53268" lon="3.25894">
        <ele>373</ele>
        <time>2012-11-16T10:47:38Z</time>
      </trkpt>
      <trkpt lat="45.53289" lon="3.25884">
        <ele>373</ele>
        <time>2012-11-16T10:47:42Z</time>
      </trkpt>
      <trkpt lat="45.53309" lon="3.25869">
        <ele>373</ele>
        <time>2012-11-16T10:47:46Z</time>
      </trkpt>
      <trkpt lat="45.53327" lon="3.2585">
        <ele>374</ele>
        <time>2012-11-16T10:47:50Z</time>
      </trkpt>
      <trkpt lat="45.53345" lon="3.25829">
        <ele>375</ele>
        <time>2012-11-16T10:47:54Z</time>
      </trkpt>
      <trkpt lat="45.53361" lon="3.25805">
        <ele>376</ele>
        <time>2012-11-16T10:47:58Z</time>
      </trkpt>
      <trkpt lat="45.53374" lon="3.25787">
        <ele>376</ele>
        <time>2012-11-16T10:48:01Z</time>
      </trkpt>
      <trkpt lat="45.5339" lon="3.25763">
        <ele>376</ele>
        <time>2012-11-16T10:48:05Z</time>
      </trkpt>
      <trkpt lat="45.53405" lon="3.25742">
        <ele>378</ele>
        <time>2012-11-16T10:48:09Z</time>
      </trkpt>
      <trkpt lat="45.53419" lon="3.25721">
        <ele>380</ele>
        <time>2012-11-16T10:48:13Z</time>
      </trkpt>
      <trkpt lat="45.53429" lon="3.257">
        <ele>381</ele>
        <time>2012-11-16T10:48:17Z</time>
      </trkpt>
      <trkpt lat="45.53441" lon="3.25679">
        <ele>382</ele>
        <time>2012-11-16T10:48:21Z</time>
      </trkpt>
      <trkpt lat="45.53452" lon="3.25658">
        <ele>385</ele>
        <time>2012-11-16T10:48:24Z</time>
      </trkpt>
      <trkpt lat="45.53465" lon="3.25637">
        <ele>386</ele>
        <time>2012-11-16T10:48:29Z</time>
      </trkpt>
      <trkpt lat="45.53479" lon="3.25619">
        <ele>387</ele>
        <time>2012-11-16T10:48:33Z</time>
      </trkpt>
      <trkpt lat="45.53493" lon="3.25601">
        <ele>388</ele>
        <time>2012-11-16T10:48:37Z</time>
      </trkpt>
      <trkpt lat="45.53506" lon="3.25581">
        <ele>389</ele>
        <time>2012-11-16T10:48:41Z</time>
      </trkpt>
      <trkpt lat="45.53512" lon="3.25556">
        <ele>389</ele>
        <time>2012-11-16T10:48:45Z</time>
      </trkpt>
      <trkpt lat="45.53511" lon="3.25525">
        <ele>389</ele>
        <time>2012-11-16T10:48:50Z</time>
      </trkpt>
      <trkpt lat="45.53501" lon="3.25497">
        <ele>389</ele>
        <time>2012-11-16T10:48:55Z</time>
      </trkpt>
      <trkpt lat="45.53494" lon="3.25469">
        <ele>389</ele>
        <time>2012-11-16T10:48:59Z</time>
      </trkpt>
      <trkpt lat="45.53493" lon="3.25439">
        <ele>390</ele>
        <time>2012-11-16T10:49:03Z</time>
      </trkpt>
      <trkpt lat="45.53493" lon="3.2541">
        <ele>390</ele>
        <time>2012-11-16T10:49:07Z</time>
      </trkpt>
      <trkpt lat="45.53491" lon="3.2538">
        <ele>390</ele>
        <time>2012-11-16T10:49:11Z</time>
      </trkpt>
      <trkpt lat="45.53486" lon="3.2535">
        <ele>390</ele>
        <time>2012-11-16T10:49:15Z</time>
      </trkpt>
      <trkpt lat="45.53479" lon="3.25323">
        <ele>390</ele>
        <time>2012-11-16T10:49:19Z</time>
      </trkpt>
      <trkpt lat="45.53473" lon="3.25295">
        <ele>391</ele>
        <time>2012-11-16T10:49:23Z</time>
      </trkpt>
      <trkpt lat="45.53466" lon="3.25269">
        <ele>391</ele>
        <time>2012-11-16T10:49:27Z</time>
      </trkpt>
      <trkpt lat="45.5346" lon="3.25242">
        <ele>391</ele>
        <time>2012-11-16T10:49:31Z</time>
      </trkpt>
      <trkpt lat="45.5345" lon="3.25217">
        <ele>392</ele>
        <time>2012-11-16T10:49:37Z</time>
      </trkpt>
      <trkpt lat="45.53444" lon="3.25189">
        <ele>392</ele>
        <time>2012-11-16T10:49:41Z</time>
      </trkpt>
      <trkpt lat="45.5344" lon="3.25158">
        <ele>393</ele>
        <time>2012-11-16T10:49:45Z</time>
      </trkpt>
      <trkpt lat="45.53434" lon="3.25127">
        <ele>393</ele>
        <time>2012-11-16T10:49:49Z</time>
      </trkpt>
      <trkpt lat="45.53429" lon="3.25098">
        <ele>393</ele>
        <time>2012-11-16T10:49:53Z</time>
      </trkpt>
      <trkpt lat="45.53425" lon="3.25065">
        <ele>393</ele>
        <time>2012-11-16T10:49:57Z</time>
      </trkpt>
      <trkpt lat="45.5342" lon="3.25033">
        <ele>393</ele>
        <time>2012-11-16T10:50:01Z</time>
      </trkpt>
      <trkpt lat="45.53416" lon="3.25002">
        <ele>392</ele>
        <time>2012-11-16T10:50:05Z</time>
      </trkpt>
      <trkpt lat="45.53412" lon="3.2497">
        <ele>393</ele>
        <time>2012-11-16T10:50:09Z</time>
      </trkpt>
      <trkpt lat="45.53407" lon="3.24939">
        <ele>393</ele>
        <time>2012-11-16T10:50:13Z</time>
      </trkpt>
      <trkpt lat="45.534" lon="3.24911">
        <ele>395</ele>
        <time>2012-11-16T10:50:16Z</time>
      </trkpt>
      <trkpt lat="45.53395" lon="3.2488">
        <ele>395</ele>
        <time>2012-11-16T10:50:21Z</time>
      </trkpt>
      <trkpt lat="45.5339" lon="3.24848">
        <ele>396</ele>
        <time>2012-11-16T10:50:25Z</time>
      </trkpt>
      <trkpt lat="45.53384" lon="3.24815">
        <ele>396</ele>
        <time>2012-11-16T10:50:29Z</time>
      </trkpt>
      <trkpt lat="45.53378" lon="3.24783">
        <ele>396</ele>
        <time>2012-11-16T10:50:33Z</time>
      </trkpt>
      <trkpt lat="45.53373" lon="3.24751">
        <ele>396</ele>
        <time>2012-11-16T10:50:37Z</time>
      </trkpt>
      <trkpt lat="45.53368" lon="3.24718">
        <ele>396</ele>
        <time>2012-11-16T10:50:41Z</time>
      </trkpt>
      <trkpt lat="45.53362" lon="3.24686">
        <ele>396</ele>
        <time>2012-11-16T10:50:45Z</time>
      </trkpt>
      <trkpt lat="45.53355" lon="3.2466">
        <ele>396</ele>
        <time>2012-11-16T10:50:53Z</time>
      </trkpt>
      <trkpt lat="45.53335" lon="3.24655">
        <ele>396</ele>
        <time>2012-11-16T10:50:59Z</time>
      </trkpt>
      <trkpt lat="45.53312" lon="3.24646">
        <ele>396</ele>
        <time>2012-11-16T10:51:03Z</time>
      </trkpt>
      <trkpt lat="45.53293" lon="3.24638">
        <ele>396</ele>
        <time>2012-11-16T10:51:07Z</time>
      </trkpt>
      <trkpt lat="45.53275" lon="3.24628">
        <ele>396</ele>
        <time>2012-11-16T10:51:11Z</time>
      </trkpt>
      <trkpt lat="45.53255" lon="3.24616">
        <ele>397</ele>
        <time>2012-11-16T10:51:15Z</time>
      </trkpt>
      <trkpt lat="45.53233" lon="3.24604">
        <ele>397</ele>
        <time>2012-11-16T10:51:19Z</time>
      </trkpt>
      <trkpt lat="45.53216" lon="3.24593">
        <ele>397</ele>
        <time>2012-11-16T10:51:22Z</time>
      </trkpt>
      <trkpt lat="45.53199" lon="3.24584">
        <ele>396</ele>
        <time>2012-11-16T10:51:25Z</time>
      </trkpt>
      <trkpt lat="45.5318" lon="3.24578">
        <ele>397</ele>
        <time>2012-11-16T10:51:28Z</time>
      </trkpt>
      <trkpt lat="45.53162" lon="3.24574">
        <ele>396</ele>
        <time>2012-11-16T10:51:31Z</time>
      </trkpt>
      <trkpt lat="45.53139" lon="3.24573">
        <ele>396</ele>
        <time>2012-11-16T10:51:33Z</time>
      </trkpt>
      <trkpt lat="45.53113" lon="3.24571">
        <ele>396</ele>
        <time>2012-11-16T10:51:38Z</time>
      </trkpt>
      <trkpt lat="45.53093" lon="3.24573">
        <ele>395</ele>
        <time>2012-11-16T10:51:41Z</time>
      </trkpt>
      <trkpt lat="45.53074" lon="3.24574">
        <ele>396</ele>
        <time>2012-11-16T10:51:44Z</time>
      </trkpt>
      <trkpt lat="45.5305" lon="3.24574">
        <ele>396</ele>
        <time>2012-11-16T10:51:48Z</time>
      </trkpt>
      <trkpt lat="45.53027" lon="3.24574">
        <ele>396</ele>
        <time>2012-11-16T10:51:52Z</time>
      </trkpt>
      <trkpt lat="45.53004" lon="3.24574">
        <ele>397</ele>
        <time>2012-11-16T10:51:56Z</time>
      </trkpt>
      <trkpt lat="45.5298" lon="3.24573">
        <ele>397</ele>
        <time>2012-11-16T10:52:00Z</time>
      </trkpt>
      <trkpt lat="45.52957" lon="3.2457">
        <ele>397</ele>
        <time>2012-11-16T10:52:04Z</time>
      </trkpt>
      <trkpt lat="45.52934" lon="3.24568">
        <ele>397</ele>
        <time>2012-11-16T10:52:08Z</time>
      </trkpt>
      <trkpt lat="45.5291" lon="3.24564">
        <ele>398</ele>
        <time>2012-11-16T10:52:12Z</time>
      </trkpt>
      <trkpt lat="45.52887" lon="3.24557">
        <ele>398</ele>
        <time>2012-11-16T10:52:16Z</time>
      </trkpt>
      <trkpt lat="45.52865" lon="3.24551">
        <ele>399</ele>
        <time>2012-11-16T10:52:20Z</time>
      </trkpt>
      <trkpt lat="45.52842" lon="3.24547">
        <ele>399</ele>
        <time>2012-11-16T10:52:24Z</time>
      </trkpt>
      <trkpt lat="45.52821" lon="3.24536">
        <ele>400</ele>
        <time>2012-11-16T10:52:28Z</time>
      </trkpt>
      <trkpt lat="45.528" lon="3.24524">
        <ele>401</ele>
        <time>2012-11-16T10:52:32Z</time>
      </trkpt>
      <trkpt lat="45.52781" lon="3.24506">
        <ele>401</ele>
        <time>2012-11-16T10:52:36Z</time>
      </trkpt>
      <trkpt lat="45.52762" lon="3.24492">
        <ele>403</ele>
        <time>2012-11-16T10:52:40Z</time>
      </trkpt>
      <trkpt lat="45.52749" lon="3.24473">
        <ele>404</ele>
        <time>2012-11-16T10:52:44Z</time>
      </trkpt>
      <trkpt lat="45.52736" lon="3.24453">
        <ele>405</ele>
        <time>2012-11-16T10:52:48Z</time>
      </trkpt>
      <trkpt lat="45.52724" lon="3.24433">
        <ele>405</ele>
        <time>2012-11-16T10:52:52Z</time>
      </trkpt>
      <trkpt lat="45.52709" lon="3.24411">
        <ele>406</ele>
        <time>2012-11-16T10:52:57Z</time>
      </trkpt>
      <trkpt lat="45.52695" lon="3.24393">
        <ele>406</ele>
        <time>2012-11-16T10:53:03Z</time>
      </trkpt>
      <trkpt lat="45.52679" lon="3.24378">
        <ele>406</ele>
        <time>2012-11-16T10:56:40Z</time>
      </trkpt>
      <trkpt lat="45.52667" lon="3.24356">
        <ele>407</ele>
        <time>2012-11-16T10:56:49Z</time>
      </trkpt>
      <trkpt lat="45.52651" lon="3.24339">
        <ele>407</ele>
        <time>2012-11-16T10:56:55Z</time>
      </trkpt>
      <trkpt lat="45.52632" lon="3.24324">
        <ele>409</ele>
        <time>2012-11-16T10:57:00Z</time>
      </trkpt>
      <trkpt lat="45.52615" lon="3.24312">
        <ele>410</ele>
        <time>2012-11-16T10:57:04Z</time>
      </trkpt>
      <trkpt lat="45.52601" lon="3.24295">
        <ele>411</ele>
        <time>2012-11-16T10:57:09Z</time>
      </trkpt>
      <trkpt lat="45.52584" lon="3.24277">
        <ele>411</ele>
        <time>2012-11-16T10:57:15Z</time>
      </trkpt>
      <trkpt lat="45.52568" lon="3.24261">
        <ele>413</ele>
        <time>2012-11-16T10:57:21Z</time>
      </trkpt>
      <trkpt lat="45.52551" lon="3.24243">
        <ele>415</ele>
        <time>2012-11-16T10:57:28Z</time>
      </trkpt>
      <trkpt lat="45.52536" lon="3.24225">
        <ele>416</ele>
        <time>2012-11-16T10:57:35Z</time>
      </trkpt>
      <trkpt lat="45.52521" lon="3.24208">
        <ele>417</ele>
        <time>2012-11-16T10:57:42Z</time>
      </trkpt>
      <trkpt lat="45.52505" lon="3.24191">
        <ele>418</ele>
        <time>2012-11-16T10:57:50Z</time>
      </trkpt>
      <trkpt lat="45.52491" lon="3.24172">
        <ele>420</ele>
        <time>2012-11-16T10:57:58Z</time>
      </trkpt>
      <trkpt lat="45.52476" lon="3.24154">
        <ele>422</ele>
        <time>2012-11-16T10:58:05Z</time>
      </trkpt>
      <trkpt lat="45.52461" lon="3.24137">
        <ele>423</ele>
        <time>2012-11-16T10:58:11Z</time>
      </trkpt>
      <trkpt lat="45.52445" lon="3.24121">
        <ele>423</ele>
        <time>2012-11-16T10:58:17Z</time>
      </trkpt>
      <trkpt lat="45.52429" lon="3.24105">
        <ele>424</ele>
        <time>2012-11-16T10:58:23Z</time>
      </trkpt>
      <trkpt lat="45.52413" lon="3.24088">
        <ele>426</ele>
        <time>2012-11-16T10:58:29Z</time>
      </trkpt>
      <trkpt lat="45.52396" lon="3.24071">
        <ele>428</ele>
        <time>2012-11-16T10:58:35Z</time>
      </trkpt>
      <trkpt lat="45.5238" lon="3.24056">
        <ele>429</ele>
        <time>2012-11-16T10:58:41Z</time>
      </trkpt>
      <trkpt lat="45.52364" lon="3.24043">
        <ele>429</ele>
        <time>2012-11-16T10:58:47Z</time>
      </trkpt>
      <trkpt lat="45.52346" lon="3.24028">
        <ele>430</ele>
        <time>2012-11-16T10:58:54Z</time>
      </trkpt>
      <trkpt lat="45.52328" lon="3.24015">
        <ele>432</ele>
        <time>2012-11-16T10:59:01Z</time>
      </trkpt>
      <trkpt lat="45.52312" lon="3.24">
        <ele>433</ele>
        <time>2012-11-16T10:59:07Z</time>
      </trkpt>
      <trkpt lat="45.52297" lon="3.23982">
        <ele>434</ele>
        <time>2012-11-16T10:59:12Z</time>
      </trkpt>
      <trkpt lat="45.52285" lon="3.2396">
        <ele>435</ele>
        <time>2012-11-16T10:59:17Z</time>
      </trkpt>
      <trkpt lat="45.52276" lon="3.23937">
        <ele>435</ele>
        <time>2012-11-16T10:59:22Z</time>
      </trkpt>
      <trkpt lat="45.52268" lon="3.23912">
        <ele>437</ele>
        <time>2012-11-16T10:59:27Z</time>
      </trkpt>
      <trkpt lat="45.5226" lon="3.23887">
        <ele>437</ele>
        <time>2012-11-16T10:59:32Z</time>
      </trkpt>
      <trkpt lat="45.52252" lon="3.23862">
        <ele>437</ele>
        <time>2012-11-16T10:59:37Z</time>
      </trkpt>
      <trkpt lat="45.52243" lon="3.23835">
        <ele>439</ele>
        <time>2012-11-16T10:59:43Z</time>
      </trkpt>
      <trkpt lat="45.52233" lon="3.23809">
        <ele>443</ele>
        <time>2012-11-16T10:59:49Z</time>
      </trkpt>
      <trkpt lat="45.52226" lon="3.23785">
        <ele>444</ele>
        <time>2012-11-16T10:59:55Z</time>
      </trkpt>
      <trkpt lat="45.5222" lon="3.2376">
        <ele>444</ele>
        <time>2012-11-16T11:00:02Z</time>
      </trkpt>
      <trkpt lat="45.52212" lon="3.23733">
        <ele>448</ele>
        <time>2012-11-16T11:00:10Z</time>
      </trkpt>
      <trkpt lat="45.52202" lon="3.23708">
        <ele>449</ele>
        <time>2012-11-16T11:00:17Z</time>
      </trkpt>
      <trkpt lat="45.52186" lon="3.23692">
        <ele>451</ele>
        <time>2012-11-16T11:00:25Z</time>
      </trkpt>
      <trkpt lat="45.52168" lon="3.23681">
        <ele>454</ele>
        <time>2012-11-16T11:00:33Z</time>
      </trkpt>
      <trkpt lat="45.5215" lon="3.23673">
        <ele>458</ele>
        <time>2012-11-16T11:00:42Z</time>
      </trkpt>
      <trkpt lat="45.52132" lon="3.23667">
        <ele>459</ele>
        <time>2012-11-16T11:00:51Z</time>
      </trkpt>
      <trkpt lat="45.52113" lon="3.23665">
        <ele>462</ele>
        <time>2012-11-16T11:01:00Z</time>
      </trkpt>
      <trkpt lat="45.52094" lon="3.23666">
        <ele>464</ele>
        <time>2012-11-16T11:01:11Z</time>
      </trkpt>
      <trkpt lat="45.52075" lon="3.23663">
        <ele>466</ele>
        <time>2012-11-16T11:01:21Z</time>
      </trkpt>
      <trkpt lat="45.52055" lon="3.23655">
        <ele>467</ele>
        <time>2012-11-16T11:01:29Z</time>
      </trkpt>
      <trkpt lat="45.52036" lon="3.23645">
        <ele>468</ele>
        <time>2012-11-16T11:01:39Z</time>
      </trkpt>
      <trkpt lat="45.52018" lon="3.23634">
        <ele>468</ele>
        <time>2012-11-16T11:01:45Z</time>
      </trkpt>
      <trkpt lat="45.51999" lon="3.23625">
        <ele>473</ele>
        <time>2012-11-16T11:01:51Z</time>
      </trkpt>
      <trkpt lat="45.51979" lon="3.23617">
        <ele>474</ele>
        <time>2012-11-16T11:01:57Z</time>
      </trkpt>
      <trkpt lat="45.51961" lon="3.23609">
        <ele>474</ele>
        <time>2012-11-16T11:02:03Z</time>
      </trkpt>
      <trkpt lat="45.51942" lon="3.23599">
        <ele>476</ele>
        <time>2012-11-16T11:02:11Z</time>
      </trkpt>
      <trkpt lat="45.51924" lon="3.23591">
        <ele>477</ele>
        <time>2012-11-16T11:02:18Z</time>
      </trkpt>
      <trkpt lat="45.51906" lon="3.23582">
        <ele>481</ele>
        <time>2012-11-16T11:02:26Z</time>
      </trkpt>
      <trkpt lat="45.51888" lon="3.23576">
        <ele>483</ele>
        <time>2012-11-16T11:02:34Z</time>
      </trkpt>
      <trkpt lat="45.51871" lon="3.23568">
        <ele>484</ele>
        <time>2012-11-16T11:02:41Z</time>
      </trkpt>
      <trkpt lat="45.51853" lon="3.23559">
        <ele>485</ele>
        <time>2012-11-16T11:02:48Z</time>
      </trkpt>
      <trkpt lat="45.51834" lon="3.23552">
        <ele>485</ele>
        <time>2012-11-16T11:02:56Z</time>
      </trkpt>
      <trkpt lat="45.51817" lon="3.23542">
        <ele>491</ele>
        <time>2012-11-16T11:03:04Z</time>
      </trkpt>
      <trkpt lat="45.51801" lon="3.23528">
        <ele>492</ele>
        <time>2012-11-16T11:03:12Z</time>
      </trkpt>
      <trkpt lat="45.51787" lon="3.2351">
        <ele>493</ele>
        <time>2012-11-16T11:03:24Z</time>
      </trkpt>
      <trkpt lat="45.51773" lon="3.23491">
        <ele>496</ele>
        <time>2012-11-16T11:03:35Z</time>
      </trkpt>
      <trkpt lat="45.51758" lon="3.23476">
        <ele>497</ele>
        <time>2012-11-16T11:03:46Z</time>
      </trkpt>
      <trkpt lat="45.51743" lon="3.23461">
        <ele>503</ele>
        <time>2012-11-16T11:03:57Z</time>
      </trkpt>
      <trkpt lat="45.51725" lon="3.23451">
        <ele>504</ele>
        <time>2012-11-16T11:04:08Z</time>
      </trkpt>
      <trkpt lat="45.51707" lon="3.23442">
        <ele>505</ele>
        <time>2012-11-16T11:04:19Z</time>
      </trkpt>
      <trkpt lat="45.51687" lon="3.23435">
        <ele>507</ele>
        <time>2012-11-16T11:04:28Z</time>
      </trkpt>
      <trkpt lat="45.5167" lon="3.23428">
        <ele>509</ele>
        <time>2012-11-16T11:04:37Z</time>
      </trkpt>
      <trkpt lat="45.51651" lon="3.23423">
        <ele>514</ele>
        <time>2012-11-16T11:04:46Z</time>
      </trkpt>
      <trkpt lat="45.51635" lon="3.23437">
        <ele>517</ele>
        <time>2012-11-16T11:04:54Z</time>
      </trkpt>
      <trkpt lat="45.51626" lon="3.23464">
        <ele>517</ele>
        <time>2012-11-16T11:05:01Z</time>
      </trkpt>
      <trkpt lat="45.51621" lon="3.23489">
        <ele>518</ele>
        <time>2012-11-16T11:05:07Z</time>
      </trkpt>
      <trkpt lat="45.51614" lon="3.23515">
        <ele>517</ele>
        <time>2012-11-16T11:05:12Z</time>
      </trkpt>
      <trkpt lat="45.51608" lon="3.23543">
        <ele>517</ele>
        <time>2012-11-16T11:05:17Z</time>
      </trkpt>
      <trkpt lat="45.51601" lon="3.23571">
        <ele>518</ele>
        <time>2012-11-16T11:05:22Z</time>
      </trkpt>
      <trkpt lat="45.51593" lon="3.23596">
        <ele>518</ele>
        <time>2012-11-16T11:05:27Z</time>
      </trkpt>
      <trkpt lat="45.51588" lon="3.23621">
        <ele>516</ele>
        <time>2012-11-16T11:05:32Z</time>
      </trkpt>
      <trkpt lat="45.51584" lon="3.23647">
        <ele>516</ele>
        <time>2012-11-16T11:05:37Z</time>
      </trkpt>
      <trkpt lat="45.51578" lon="3.23676">
        <ele>523</ele>
        <time>2012-11-16T11:05:42Z</time>
      </trkpt>
      <trkpt lat="45.51571" lon="3.23704">
        <ele>525</ele>
        <time>2012-11-16T11:05:48Z</time>
      </trkpt>
      <trkpt lat="45.51564" lon="3.23728">
        <ele>524</ele>
        <time>2012-11-16T11:05:53Z</time>
      </trkpt>
      <trkpt lat="45.51553" lon="3.23756">
        <ele>520</ele>
        <time>2012-11-16T11:05:58Z</time>
      </trkpt>
      <trkpt lat="45.51542" lon="3.23777">
        <ele>521</ele>
        <time>2012-11-16T11:06:02Z</time>
      </trkpt>
      <trkpt lat="45.51528" lon="3.23799">
        <ele>522</ele>
        <time>2012-11-16T11:06:07Z</time>
      </trkpt>
      <trkpt lat="45.51508" lon="3.23811">
        <ele>523</ele>
        <time>2012-11-16T11:06:13Z</time>
      </trkpt>
      <trkpt lat="45.51491" lon="3.23824">
        <ele>529</ele>
        <time>2012-11-16T11:06:24Z</time>
      </trkpt>
      <trkpt lat="45.51475" lon="3.23836">
        <ele>526</ele>
        <time>2012-11-16T11:06:34Z</time>
      </trkpt>
      <trkpt lat="45.51457" lon="3.23845">
        <ele>527</ele>
        <time>2012-11-16T11:06:42Z</time>
      </trkpt>
      <trkpt lat="45.51439" lon="3.23851">
        <ele>529</ele>
        <time>2012-11-16T11:06:59Z</time>
      </trkpt>
      <trkpt lat="45.51421" lon="3.23857">
        <ele>531</ele>
        <time>2012-11-16T11:07:13Z</time>
      </trkpt>
      <trkpt lat="45.51402" lon="3.23851">
        <ele>537</ele>
        <time>2012-11-16T11:07:23Z</time>
      </trkpt>
      <trkpt lat="45.51385" lon="3.23845">
        <ele>537</ele>
        <time>2012-11-16T11:07:36Z</time>
      </trkpt>
      <trkpt lat="45.51366" lon="3.23843">
        <ele>538</ele>
        <time>2012-11-16T11:07:45Z</time>
      </trkpt>
      <trkpt lat="45.51348" lon="3.23842">
        <ele>539</ele>
        <time>2012-11-16T11:07:51Z</time>
      </trkpt>
      <trkpt lat="45.51329" lon="3.23848">
        <ele>542</ele>
        <time>2012-11-16T11:07:57Z</time>
      </trkpt>
      <trkpt lat="45.51307" lon="3.23854">
        <ele>543</ele>
        <time>2012-11-16T11:08:04Z</time>
      </trkpt>
      <trkpt lat="45.51288" lon="3.23858">
        <ele>544</ele>
        <time>2012-11-16T11:08:09Z</time>
      </trkpt>
      <trkpt lat="45.51268" lon="3.23861">
        <ele>544</ele>
        <time>2012-11-16T11:08:15Z</time>
      </trkpt>
      <trkpt lat="45.51248" lon="3.23869">
        <ele>548</ele>
        <time>2012-11-16T11:08:24Z</time>
      </trkpt>
      <trkpt lat="45.51229" lon="3.23873">
        <ele>549</ele>
        <time>2012-11-16T11:08:30Z</time>
      </trkpt>
      <trkpt lat="45.51212" lon="3.23887">
        <ele>549</ele>
        <time>2012-11-16T11:08:36Z</time>
      </trkpt>
      <trkpt lat="45.51201" lon="3.23912">
        <ele>549</ele>
        <time>2012-11-16T11:08:42Z</time>
      </trkpt>
      <trkpt lat="45.5119" lon="3.23937">
        <ele>549</ele>
        <time>2012-11-16T11:08:48Z</time>
      </trkpt>
      <trkpt lat="45.51175" lon="3.23952">
        <ele>549</ele>
        <time>2012-11-16T11:08:53Z</time>
      </trkpt>
      <trkpt lat="45.51162" lon="3.23974">
        <ele>550</ele>
        <time>2012-11-16T11:08:58Z</time>
      </trkpt>
      <trkpt lat="45.5115" lon="3.23996">
        <ele>549</ele>
        <time>2012-11-16T11:09:03Z</time>
      </trkpt>
      <trkpt lat="45.51138" lon="3.24018">
        <ele>548</ele>
        <time>2012-11-16T11:09:08Z</time>
      </trkpt>
      <trkpt lat="45.51128" lon="3.24041">
        <ele>548</ele>
        <time>2012-11-16T11:09:12Z</time>
      </trkpt>
      <trkpt lat="45.51117" lon="3.24068">
        <ele>548</ele>
        <time>2012-11-16T11:09:16Z</time>
      </trkpt>
      <trkpt lat="45.51096" lon="3.2406">
        <ele>548</ele>
        <time>2012-11-16T11:09:21Z</time>
      </trkpt>
      <trkpt lat="45.51076" lon="3.24047">
        <ele>549</ele>
        <time>2012-11-16T11:09:26Z</time>
      </trkpt>
      <trkpt lat="45.51057" lon="3.24037">
        <ele>549</ele>
        <time>2012-11-16T11:09:30Z</time>
      </trkpt>
      <trkpt lat="45.5104" lon="3.24028">
        <ele>549</ele>
        <time>2012-11-16T11:09:34Z</time>
      </trkpt>
      <trkpt lat="45.5102" lon="3.24022">
        <ele>550</ele>
        <time>2012-11-16T11:09:38Z</time>
      </trkpt>
      <trkpt lat="45.50999" lon="3.24014">
        <ele>551</ele>
        <time>2012-11-16T11:09:42Z</time>
      </trkpt>
      <trkpt lat="45.50977" lon="3.24008">
        <ele>550</ele>
        <time>2012-11-16T11:09:46Z</time>
      </trkpt>
      <trkpt lat="45.50958" lon="3.24005">
        <ele>550</ele>
        <time>2012-11-16T11:09:50Z</time>
      </trkpt>
      <trkpt lat="45.50938" lon="3.23998">
        <ele>550</ele>
        <time>2012-11-16T11:09:54Z</time>
      </trkpt>
      <trkpt lat="45.50916" lon="3.23993">
        <ele>550</ele>
        <time>2012-11-16T11:09:59Z</time>
      </trkpt>
      <trkpt lat="45.50897" lon="3.23992">
        <ele>550</ele>
        <time>2012-11-16T11:10:03Z</time>
      </trkpt>
      <trkpt lat="45.50874" lon="3.23984">
        <ele>550</ele>
        <time>2012-11-16T11:10:07Z</time>
      </trkpt>
      <trkpt lat="45.50856" lon="3.23978">
        <ele>550</ele>
        <time>2012-11-16T11:10:11Z</time>
      </trkpt>
      <trkpt lat="45.50834" lon="3.2398">
        <ele>551</ele>
        <time>2012-11-16T11:10:15Z</time>
      </trkpt>
      <trkpt lat="45.50816" lon="3.23983">
        <ele>551</ele>
        <time>2012-11-16T11:10:19Z</time>
      </trkpt>
      <trkpt lat="45.50796" lon="3.23989">
        <ele>550</ele>
        <time>2012-11-16T11:10:23Z</time>
      </trkpt>
      <trkpt lat="45.50777" lon="3.23993">
        <ele>550</ele>
        <time>2012-11-16T11:10:27Z</time>
      </trkpt>
      <trkpt lat="45.50755" lon="3.23992">
        <ele>550</ele>
        <time>2012-11-16T11:10:31Z</time>
      </trkpt>
      <trkpt lat="45.50736" lon="3.23992">
        <ele>550</ele>
        <time>2012-11-16T11:10:34Z</time>
      </trkpt>
      <trkpt lat="45.50716" lon="3.23997">
        <ele>551</ele>
        <time>2012-11-16T11:10:38Z</time>
      </trkpt>
      <trkpt lat="45.50695" lon="3.24007">
        <ele>551</ele>
        <time>2012-11-16T11:10:42Z</time>
      </trkpt>
      <trkpt lat="45.50675" lon="3.2402">
        <ele>551</ele>
        <time>2012-11-16T11:10:46Z</time>
      </trkpt>
      <trkpt lat="45.50654" lon="3.24028">
        <ele>552</ele>
        <time>2012-11-16T11:10:50Z</time>
      </trkpt>
      <trkpt lat="45.50632" lon="3.24029">
        <ele>552</ele>
        <time>2012-11-16T11:10:54Z</time>
      </trkpt>
      <trkpt lat="45.5061" lon="3.24026">
        <ele>551</ele>
        <time>2012-11-16T11:10:58Z</time>
      </trkpt>
      <trkpt lat="45.50589" lon="3.24015">
        <ele>551</ele>
        <time>2012-11-16T11:11:02Z</time>
      </trkpt>
      <trkpt lat="45.50568" lon="3.24009">
        <ele>551</ele>
        <time>2012-11-16T11:11:06Z</time>
      </trkpt>
      <trkpt lat="45.50548" lon="3.24013">
        <ele>551</ele>
        <time>2012-11-16T11:11:09Z</time>
      </trkpt>
      <trkpt lat="45.50529" lon="3.24013">
        <ele>551</ele>
        <time>2012-11-16T11:11:12Z</time>
      </trkpt>
      <trkpt lat="45.50511" lon="3.24014">
        <ele>551</ele>
        <time>2012-11-16T11:11:15Z</time>
      </trkpt>
      <trkpt lat="45.50486" lon="3.24013">
        <ele>550</ele>
        <time>2012-11-16T11:11:19Z</time>
      </trkpt>
      <trkpt lat="45.50464" lon="3.24011">
        <ele>550</ele>
        <time>2012-11-16T11:11:22Z</time>
      </trkpt>
      <trkpt lat="45.50446" lon="3.2401">
        <ele>550</ele>
        <time>2012-11-16T11:11:25Z</time>
      </trkpt>
      <trkpt lat="45.50427" lon="3.24009">
        <ele>550</ele>
        <time>2012-11-16T11:11:28Z</time>
      </trkpt>
      <trkpt lat="45.50409" lon="3.24002">
        <ele>550</ele>
        <time>2012-11-16T11:11:31Z</time>
      </trkpt>
      <trkpt lat="45.5039" lon="3.2399">
        <ele>550</ele>
        <time>2012-11-16T11:11:34Z</time>
      </trkpt>
      <trkpt lat="45.50373" lon="3.23977">
        <ele>549</ele>
        <time>2012-11-16T11:11:37Z</time>
      </trkpt>
      <trkpt lat="45.50356" lon="3.23961">
        <ele>549</ele>
        <time>2012-11-16T11:11:40Z</time>
      </trkpt>
      <trkpt lat="45.50339" lon="3.23948">
        <ele>549</ele>
        <time>2012-11-16T11:11:43Z</time>
      </trkpt>
      <trkpt lat="45.50321" lon="3.23939">
        <ele>548</ele>
        <time>2012-11-16T11:11:46Z</time>
      </trkpt>
      <trkpt lat="45.50299" lon="3.23932">
        <ele>547</ele>
        <time>2012-11-16T11:11:50Z</time>
      </trkpt>
      <trkpt lat="45.50279" lon="3.23936">
        <ele>546</ele>
        <time>2012-11-16T11:11:54Z</time>
      </trkpt>
      <trkpt lat="45.50261" lon="3.23922">
        <ele>544</ele>
        <time>2012-11-16T11:11:59Z</time>
      </trkpt>
      <trkpt lat="45.50262" lon="3.23893">
        <ele>546</ele>
        <time>2012-11-16T11:12:04Z</time>
      </trkpt>
      <trkpt lat="45.50259" lon="3.23864">
        <ele>547</ele>
        <time>2012-11-16T11:12:08Z</time>
      </trkpt>
      <trkpt lat="45.5025" lon="3.23834">
        <ele>546</ele>
        <time>2012-11-16T11:12:12Z</time>
      </trkpt>
      <trkpt lat="45.50241" lon="3.23805">
        <ele>545</ele>
        <time>2012-11-16T11:12:15Z</time>
      </trkpt>
      <trkpt lat="45.50247" lon="3.2378">
        <ele>545</ele>
        <time>2012-11-16T11:12:18Z</time>
      </trkpt>
      <trkpt lat="45.50255" lon="3.23752">
        <ele>548</ele>
        <time>2012-11-16T11:12:22Z</time>
      </trkpt>
      <trkpt lat="45.50261" lon="3.23727">
        <ele>549</ele>
        <time>2012-11-16T11:12:26Z</time>
      </trkpt>
      <trkpt lat="45.5027" lon="3.23702">
        <ele>549</ele>
        <time>2012-11-16T11:12:30Z</time>
      </trkpt>
      <trkpt lat="45.50279" lon="3.23676">
        <ele>550</ele>
        <time>2012-11-16T11:12:34Z</time>
      </trkpt>
      <trkpt lat="45.50289" lon="3.23648">
        <ele>550</ele>
        <time>2012-11-16T11:12:38Z</time>
      </trkpt>
      <trkpt lat="45.50302" lon="3.23621">
        <ele>551</ele>
        <time>2012-11-16T11:12:42Z</time>
      </trkpt>
      <trkpt lat="45.50317" lon="3.23594">
        <ele>550</ele>
        <time>2012-11-16T11:12:46Z</time>
      </trkpt>
      <trkpt lat="45.50328" lon="3.23573">
        <ele>551</ele>
        <time>2012-11-16T11:12:49Z</time>
      </trkpt>
      <trkpt lat="45.50336" lon="3.23549">
        <ele>551</ele>
        <time>2012-11-16T11:12:52Z</time>
      </trkpt>
      <trkpt lat="45.50343" lon="3.23524">
        <ele>551</ele>
        <time>2012-11-16T11:12:55Z</time>
      </trkpt>
      <trkpt lat="45.50351" lon="3.235">
        <ele>552</ele>
        <time>2012-11-16T11:12:58Z</time>
      </trkpt>
      <trkpt lat="45.50358" lon="3.23474">
        <ele>552</ele>
        <time>2012-11-16T11:13:01Z</time>
      </trkpt>
      <trkpt lat="45.50367" lon="3.23442">
        <ele>553</ele>
        <time>2012-11-16T11:13:05Z</time>
      </trkpt>
      <trkpt lat="45.50375" lon="3.23419">
        <ele>553</ele>
        <time>2012-11-16T11:13:08Z</time>
      </trkpt>
      <trkpt lat="45.50382" lon="3.23389">
        <ele>555</ele>
        <time>2012-11-16T11:13:12Z</time>
      </trkpt>
      <trkpt lat="45.50391" lon="3.23358">
        <ele>555</ele>
        <time>2012-11-16T11:13:16Z</time>
      </trkpt>
      <trkpt lat="45.50401" lon="3.23329">
        <ele>555</ele>
        <time>2012-11-16T11:13:20Z</time>
      </trkpt>
      <trkpt lat="45.50411" lon="3.23297">
        <ele>555</ele>
        <time>2012-11-16T11:13:24Z</time>
      </trkpt>
      <trkpt lat="45.5042" lon="3.23266">
        <ele>555</ele>
        <time>2012-11-16T11:13:28Z</time>
      </trkpt>
      <trkpt lat="45.50427" lon="3.23234">
        <ele>555</ele>
        <time>2012-11-16T11:13:32Z</time>
      </trkpt>
      <trkpt lat="45.50436" lon="3.23202">
        <ele>555</ele>
        <time>2012-11-16T11:13:36Z</time>
      </trkpt>
      <trkpt lat="45.50444" lon="3.23177">
        <ele>555</ele>
        <time>2012-11-16T11:13:39Z</time>
      </trkpt>
      <trkpt lat="45.50452" lon="3.23154">
        <ele>556</ele>
        <time>2012-11-16T11:13:42Z</time>
      </trkpt>
      <trkpt lat="45.50462" lon="3.23131">
        <ele>556</ele>
        <time>2012-11-16T11:13:45Z</time>
      </trkpt>
      <trkpt lat="45.50473" lon="3.23107">
        <ele>556</ele>
        <time>2012-11-16T11:13:48Z</time>
      </trkpt>
      <trkpt lat="45.50481" lon="3.23084">
        <ele>556</ele>
        <time>2012-11-16T11:13:51Z</time>
      </trkpt>
      <trkpt lat="45.5049" lon="3.23057">
        <ele>556</ele>
        <time>2012-11-16T11:13:54Z</time>
      </trkpt>
      <trkpt lat="45.50499" lon="3.23033">
        <ele>556</ele>
        <time>2012-11-16T11:13:57Z</time>
      </trkpt>
      <trkpt lat="45.50508" lon="3.23008">
        <ele>556</ele>
        <time>2012-11-16T11:14:00Z</time>
      </trkpt>
      <trkpt lat="45.50519" lon="3.2298">
        <ele>556</ele>
        <time>2012-11-16T11:14:04Z</time>
      </trkpt>
      <trkpt lat="45.50528" lon="3.22952">
        <ele>556</ele>
        <time>2012-11-16T11:14:08Z</time>
      </trkpt>
      <trkpt lat="45.50535" lon="3.22927">
        <ele>556</ele>
        <time>2012-11-16T11:14:13Z</time>
      </trkpt>
      <trkpt lat="45.50533" lon="3.22899">
        <ele>554</ele>
        <time>2012-11-16T11:14:19Z</time>
      </trkpt>
      <trkpt lat="45.50525" lon="3.22874">
        <ele>554</ele>
        <time>2012-11-16T11:14:29Z</time>
      </trkpt>
      <trkpt lat="45.5054" lon="3.22858">
        <ele>553</ele>
        <time>2012-11-16T11:14:36Z</time>
      </trkpt>
      <trkpt lat="45.5056" lon="3.22854">
        <ele>553</ele>
        <time>2012-11-16T11:14:41Z</time>
      </trkpt>
      <trkpt lat="45.50572" lon="3.22834">
        <ele>551</ele>
        <time>2012-11-16T11:14:44Z</time>
      </trkpt>
      <trkpt lat="45.5058" lon="3.22809">
        <ele>547</ele>
        <time>2012-11-16T11:14:47Z</time>
      </trkpt>
      <trkpt lat="45.50589" lon="3.22776">
        <ele>546</ele>
        <time>2012-11-16T11:14:50Z</time>
      </trkpt>
      <trkpt lat="45.50596" lon="3.22752">
        <ele>543</ele>
        <time>2012-11-16T11:14:52Z</time>
      </trkpt>
      <trkpt lat="45.506" lon="3.22713">
        <ele>541</ele>
        <time>2012-11-16T11:14:55Z</time>
      </trkpt>
      <trkpt lat="45.50602" lon="3.22687">
        <ele>539</ele>
        <time>2012-11-16T11:14:57Z</time>
      </trkpt>
      <trkpt lat="45.50606" lon="3.22654">
        <ele>537</ele>
        <time>2012-11-16T11:15:00Z</time>
      </trkpt>
      <trkpt lat="45.5061" lon="3.22621">
        <ele>538</ele>
        <time>2012-11-16T11:15:03Z</time>
      </trkpt>
      <trkpt lat="45.50611" lon="3.22589">
        <ele>537</ele>
        <time>2012-11-16T11:15:06Z</time>
      </trkpt>
      <trkpt lat="45.50613" lon="3.22558">
        <ele>537</ele>
        <time>2012-11-16T11:15:09Z</time>
      </trkpt>
    </trkseg>
  </trk>
</gpx>